GFSCGP_250_rhum_000.txt.gz
RH
27 25 29 23 30 24 21 16 17 21 19 13 13 13 13 14 17 18 19 19 21 22 22 20 21 23 24 25 25 26 27 46 27 22 26 22 20 16 28 19 32 27 22 23
24 26 22 23 28 29 28 20 16 17 22 23 17 16 16 15 18 22 25 28 33 37 30 40 29 27 27 25 24 21 21 20 44 17 44 28 29 22 23 19 27 26 27 28
34 26 21 19 22 32 27 27 20 17 17 16 20 21 23 25 22 22 26 33 46 38 41 30 34 31 28 26 22 19 17 16 25 24 20 21 23 18 14 17 23 26 30 36
29 36 32 21 18 21 30 27 23 20 19 17 17 17 16 17 23 26 25 38 44 54 42 36 29 30 28 24 17 13 13 12 15 26 20 23 14 13 16 23 28 30 36 41
34 36 40 35 26 19 22 25 25 22 20 19 17 16 19 20 16 32 40 39 41 31 43 36 32 28 21 14 12 12 12 14 16 18 18 15 14 15 21 24 30 33 35 38
32 36 32 36 31 27 17 21 21 22 23 20 21 20 18 16 17 20 23 23 23 25 26 27 27 16 14 14 14 14 15 17 19 17 16 14 15 20 26 34 37 38 38 38
39 39 40 36 33 33 26 21 19 18 21 26 27 24 20 19 18 16 15 18 18 18 14 15 17 16 16 18 18 18 19 18 17 16 15 14 19 33 34 36 35 38 37 36
36 37 39 38 38 33 37 35 28 24 24 27 26 27 23 20 19 21 20 18 15 15 15 15 16 18 20 20 19 18 17 16 15 14 18 25 28 30 30 32 35 36 39 42
13 37 42 39 38 33 35 31 34 27 25 22 27 23 20 23 23 20 18 19 20 20 19 20 20 20 20 18 18 17 18 18 20 24 27 29 29 29 30 30 33 33 29 37
9 15 38 42 38 37 22 36 31 27 26 26 27 26 21 20 23 23 22 22 21 19 20 20 19 20 23 22 22 22 23 24 25 27 30 32 30 29 32 32 30 27 26 36
9 10 16 36 42 43 34 27 29 31 28 25 27 27 26 22 21 21 22 21 21 22 23 24 24 25 26 26 25 25 25 28 30 32 34 31 29 31 36 30 23 27 35 40
13 9 10 18 32 39 39 30 33 31 34 33 30 27 27 26 24 26 25 21 19 20 22 22 23 24 25 25 25 26 29 32 35 34 31 32 32 32 32 27 18 22 23 36
16 12 10 12 19 32 39 36 27 32 33 32 33 30 27 28 27 23 24 25 23 21 20 21 22 23 24 25 26 29 31 35 37 35 33 34 38 32 26 24 13 23 37 39
30 16 10 11 13 20 28 37 34 32 31 32 33 33 30 27 28 28 26 26 27 27 26 26 26 26 25 27 28 30 34 39 38 37 37 40 36 28 22 17 14 68 56 70
32 26 13 10 12 14 20 27 33 30 29 29 33 35 35 31 27 30 30 30 31 31 31 30 29 29 29 29 31 35 40 38 37 36 38 39 30 22 18 12 42 58 54 44
40 31 20 12 11 12 14 20 25 31 30 28 30 32 37 36 32 31 35 34 36 37 37 36 34 34 35 35 38 40 39 36 34 36 38 32 23 18 15 10 10 12 13 29
47 37 25 19 13 11 12 14 18 24 29 28 27 29 37 40 40 40 40 39 40 42 42 41 40 40 41 40 39 40 39 35 34 35 29 23 21 18 14 10 10 12 14 21
51 40 33 25 16 12 12 13 15 18 22 27 29 29 28 35 41 42 41 42 44 47 49 49 48 47 45 43 43 42 43 43 42 31 24 21 20 16 13 11 12 13 14 15
64 52 42 36 21 14 14 12 12 14 17 20 25 29 27 26 31 39 36 40 43 46 48 51 50 50 50 49 50 50 50 44 34 24 21 20 18 14 13 13 14 16 16 15
50 51 49 50 24 20 14 14 12 12 14 16 18 22 24 23 26 32 31 36 39 43 46 45 45 45 44 46 46 45 39 33 26 21 18 18 16 14 14 17 17 16 15 17
69 63 55 47 36 28 16 15 15 12 12 15 18 20 21 22 23 24 27 29 31 35 38 40 41 39 38 40 38 33 28 23 20 18 18 17 15 17 18 18 17 15 15 36
88 74 66 57 42 36 25 20 16 14 13 14 18 18 20 22 22 21 22 23 24 28 31 34 34 34 33 27 26 25 21 19 18 17 16 15 16 16 18 17 17 19 21 36
100 87 85 68 41 34 46 33 24 19 15 15 17 20 23 23 24 23 22 21 21 21 22 22 22 24 21 20 19 19 17 17 17 16 16 16 16 18 18 19 21 21 21 33
96 98 80 73 43 41 45 44 39 23 19 17 17 21 22 26 26 25 24 22 20 20 19 19 19 18 18 18 17 18 17 16 16 16 16 17 18 20 22 24 23 21 26 34
93 91 92 73 55 51 51 49 46 40 26 21 18 19 22 25 26 28 27 24 22 20 19 19 19 18 18 17 17 17 17 17 17 18 19 20 21 24 26 25 24 27 33 29
89 90 88 76 56 60 100 96 74 87 63 23 19 19 22 28 30 32 32 28 26 25 23 22 21 20 20 20 20 20 19 20 21 20 23 24 26 25 24 23 27 32 29 28

GFSCGP_250_rhum_003.txt.gz
RH
28 25 24 21 24 26 21 21 19 16 14 14 10 9 11 12 12 12 16 19 20 19 20 21 22 21 20 22 25 31 40 50 36 52 36 25 25 20 18 16 28 30 36 41
28 32 27 19 22 26 25 23 20 20 22 16 16 13 14 15 16 18 20 23 25 30 26 24 26 26 25 23 24 26 28 22 32 18 27 29 28 16 15 20 30 27 35 39
31 35 29 22 21 23 24 24 23 18 18 26 24 23 14 16 19 21 24 28 38 38 34 24 24 25 24 23 20 18 18 17 22 38 22 34 45 15 15 21 27 30 34 35
34 34 34 32 24 24 23 23 22 22 18 22 18 24 25 23 19 23 25 28 38 46 42 31 28 25 24 24 20 16 13 11 11 28 29 38 26 17 17 22 26 29 43 36
53 49 40 37 38 30 26 21 19 23 21 22 17 17 17 21 24 23 23 27 33 40 42 43 29 25 24 19 14 12 11 12 16 18 26 26 20 24 19 23 26 28 28 26
39 55 50 43 38 26 35 30 19 18 23 19 21 19 16 17 16 15 27 28 27 33 40 36 31 23 21 14 12 13 14 17 18 18 16 17 30 23 24 26 26 27 25 25
19 43 54 52 39 38 28 32 30 19 18 26 24 21 27 20 16 16 14 25 38 43 38 25 29 28 15 14 14 16 18 19 18 17 16 17 23 30 25 27 28 30 29 27
9 20 38 45 41 37 39 34 37 29 25 27 29 26 25 22 18 19 18 16 15 16 17 22 20 18 15 15 17 20 20 19 18 17 17 20 23 26 26 29 31 32 29 25
12 9 18 32 37 41 40 28 34 36 31 27 24 28 26 22 23 22 20 19 20 18 18 16 16 16 17 19 20 19 18 17 19 20 21 23 26 28 28 31 32 34 31 28
19 10 10 15 29 36 46 38 31 32 32 24 26 28 27 21 22 24 23 21 19 19 19 20 20 20 20 19 18 17 19 21 22 23 24 28 30 29 29 33 32 34 28 25
26 17 11 10 15 22 30 38 39 31 32 29 32 29 27 25 21 23 25 24 22 21 20 20 19 20 21 21 20 21 22 23 23 25 28 31 30 30 31 31 33 36 30 22
31 27 17 10 10 13 21 30 39 38 34 32 28 30 30 28 24 21 20 21 20 20 21 21 21 21 22 21 21 22 23 24 25 27 29 30 32 33 32 33 36 33 23 19
54 35 28 17 11 9 12 18 30 37 38 30 33 32 34 30 28 25 24 23 23 22 22 20 19 20 20 20 20 21 23 24 26 28 29 31 35 36 34 38 40 29 22 22
44 53 35 27 23 14 9 12 18 32 38 35 32 33 33 32 29 28 27 26 26 24 25 24 23 25 25 25 24 23 25 27 29 30 31 34 38 36 36 39 32 26 22 22
50 57 48 32 25 21 12 10 12 18 37 36 34 36 34 33 30 30 30 28 27 26 26 25 26 26 27 29 29 28 29 31 32 33 34 38 39 39 39 36 33 26 22 30
64 66 55 34 38 28 19 12 10 12 18 36 36 36 36 35 34 33 31 30 30 30 29 28 28 28 30 31 32 33 34 34 35 38 40 42 44 42 37 38 34 23 21 18
64 85 80 44 52 32 27 16 13 11 12 20 32 34 32 35 35 33 34 33 30 30 32 30 29 30 31 33 35 37 38 40 42 44 47 49 49 46 41 34 26 21 19 17
94 95 98 69 62 41 35 27 18 11 10 11 19 30 29 30 32 34 36 34 32 32 33 34 34 34 34 35 37 40 42 45 48 50 52 53 50 43 37 30 24 20 18 16
85 100 99 68 54 43 43 32 20 15 10 10 11 19 29 31 28 30 36 40 37 34 33 35 35 36 37 39 41 44 47 49 51 54 54 50 47 40 32 26 22 18 17 16
100 100 93 73 58 62 64 53 33 24 15 13 11 12 18 26 28 27 29 39 45 42 35 34 37 37 38 37 39 42 46 49 50 50 47 41 38 32 27 24 18 17 16 16
100 100 89 76 61 66 68 52 38 28 20 14 11 11 12 17 23 27 25 27 38 44 38 39 39 39 39 38 40 42 46 47 47 44 41 36 29 27 22 19 17 17 16 17
100 100 99 91 74 80 66 71 56 29 20 19 14 11 12 13 17 21 25 24 29 38 38 39 39 40 39 38 39 39 40 41 41 38 31 27 24 20 18 17 17 17 17 17
100 100 100 100 90 59 73 87 57 38 24 21 16 14 11 11 12 16 20 24 23 23 24 28 28 31 30 30 31 30 30 32 31 30 28 22 20 18 17 16 16 17 17 18
100 100 100 91 74 77 100 91 71 47 39 23 19 16 13 11 11 13 16 19 22 23 22 22 22 22 23 24 24 25 25 24 23 22 21 19 18 17 16 17 18 18 19 25
100 100 100 70 100 100 92 85 75 51 41 27 34 24 21 14 16 12 14 16 19 22 24 24 22 22 21 21 20 20 20 20 20 19 18 18 18 18 18 20 22 24 33 48
100 95 96 79 100 100 84 83 72 55 66 61 29 71 58 38 18 15 15 17 19 22 24 26 26 25 24 24 23 22 22 22 21 21 20 20 21 21 23 25 35 44 42 35

GFSCGP_250_rhum_006.txt.gz
RH
36 32 32 23 22 22 22 22 17 14 11 9 26 100 100 12 9 8 9 12 13 15 16 17 15 17 26 32 39 43 48 30 30 34 25 27 23 17 16 18 21 26 30 38
32 47 35 23 22 24 23 22 22 17 15 12 9 18 18 11 11 11 14 14 15 19 22 24 24 24 25 24 27 30 30 27 30 23 28 50 62 19 16 18 26 25 42 34
34 56 44 32 20 25 27 20 22 22 18 17 13 12 13 14 14 14 18 18 20 23 25 26 26 26 26 26 25 22 20 18 15 13 39 28 41 27 26 21 24 24 29 32
29 41 54 56 40 27 30 27 20 21 22 18 21 16 15 17 17 20 21 23 37 35 30 27 24 24 25 24 22 19 16 14 11 11 20 30 26 31 24 23 24 28 48 39
13 25 41 59 59 39 31 30 23 19 20 21 17 22 24 20 17 20 23 27 32 36 44 37 33 23 22 20 18 14 12 11 11 15 24 24 25 30 31 31 30 27 27 26
11 12 21 35 50 58 40 28 28 22 19 21 22 18 17 21 26 21 22 23 26 30 36 38 30 23 22 18 10 10 11 11 14 18 18 18 25 24 35 39 32 25 25 26
20 12 11 21 29 43 58 32 33 26 21 20 23 22 23 18 18 20 22 46 24 24 26 27 34 33 26 19 15 11 12 14 17 18 17 17 22 23 33 32 30 27 32 27
23 21 12 11 18 22 34 52 33 37 35 30 30 21 28 20 18 18 22 24 20 32 40 36 36 31 23 18 16 15 16 18 18 17 17 20 22 25 28 31 29 29 28 26
26 24 28 17 11 17 20 37 44 42 36 36 32 24 24 23 18 20 20 18 18 19 18 17 14 15 18 18 17 17 18 19 18 17 20 22 23 25 28 28 27 25 27 27
52 25 32 42 19 12 16 20 32 39 41 32 36 32 26 24 23 24 19 22 20 19 19 18 17 17 17 18 18 19 19 18 19 22 22 24 25 26 28 28 30 28 29 31
67 51 33 30 37 24 13 16 20 32 38 41 38 33 33 28 26 22 27 25 24 21 21 20 19 19 20 19 18 18 19 21 22 23 24 25 26 26 26 29 33 34 34 34
45 37 37 25 21 44 24 14 14 20 33 38 40 35 37 34 30 26 26 27 27 22 24 23 21 20 21 20 19 20 22 22 22 23 25 26 26 27 28 31 36 37 35 35
78 57 42 27 20 22 27 28 17 13 17 30 39 38 39 38 35 32 26 26 26 23 22 24 24 24 23 21 23 20 20 21 23 26 28 28 29 30 31 33 36 38 37 36
99 84 44 45 32 33 31 51 30 17 13 18 29 38 39 37 38 37 34 29 27 27 25 26 27 24 23 23 22 22 23 26 28 29 31 31 31 32 33 35 38 38 39 41
73 87 55 61 41 30 24 29 47 26 14 12 20 26 36 40 36 37 37 34 31 28 26 26 28 26 26 27 26 26 27 28 29 30 31 32 32 34 36 39 40 40 43 41
60 53 60 40 57 40 38 34 38 37 25 14 12 17 25 32 38 36 35 38 35 32 29 27 27 27 27 28 28 28 28 29 30 30 31 32 33 36 39 41 43 43 45 46
32 34 54 42 56 56 41 28 45 54 38 23 16 11 16 24 30 36 35 35 38 37 33 30 29 29 28 27 26 26 27 28 28 29 30 32 34 38 41 42 41 44 46 46
53 68 75 68 77 64 38 65 50 56 38 31 22 19 13 14 21 28 35 33 33 36 37 34 33 30 30 31 31 30 29 28 28 28 31 33 36 39 40 38 39 43 44 40
41 94 100 92 86 68 53 88 73 66 45 45 29 23 21 12 13 17 26 34 35 34 38 42 38 35 34 33 33 32 32 32 32 32 34 36 38 40 40 41 41 38 48 35
63 84 100 100 88 69 98 100 76 100 55 50 29 21 20 17 11 12 15 24 33 36 34 41 42 34 36 36 34 33 33 33 34 34 36 37 39 40 40 40 38 41 39 34
99 100 100 100 90 100 94 88 68 99 75 49 44 30 22 17 16 13 12 15 20 32 37 35 41 39 36 39 37 36 35 35 35 36 38 39 39 39 41 39 42 40 33 26
80 85 100 100 100 100 86 100 100 100 76 53 56 61 39 23 17 13 10 11 14 17 30 30 32 44 39 39 42 43 42 40 40 39 39 39 40 40 39 40 36 31 24 21
67 83 100 100 100 100 100 92 75 80 71 57 63 61 30 23 21 16 10 11 11 14 20 26 27 28 38 39 38 40 40 40 38 38 40 41 42 39 36 34 31 22 20 20
100 100 100 100 100 100 100 96 71 63 66 68 58 46 38 25 20 20 17 13 10 10 12 18 23 26 26 25 29 34 36 37 36 34 36 39 38 32 29 23 21 21 21 23
100 100 100 100 100 99 100 99 88 82 94 74 60 56 26 54 73 36 18 16 14 11 11 13 19 26 28 27 25 25 25 25 24 25 26 26 24 22 21 23 23 24 24 24
100 100 100 100 100 100 100 78 76 100 87 70 63 54 48 78 100 100 65 36 28 14 12 12 13 17 29 37 30 28 26 26 24 23 23 23 23 24 27 37 33 28 26 31

GFSCGP_250_rhum_009.txt.gz
RH
30 33 56 30 24 20 25 26 22 15 10 15 100 72 66 98 13 11 8 8 10 12 13 14 14 18 23 24 23 42 36 33 28 34 24 54 32 19 19 19 28 26 32 36
41 43 38 36 27 26 25 24 22 20 13 11 29 78 74 13 10 8 10 12 12 12 14 15 14 29 25 37 39 37 41 36 27 32 37 33 40 32 30 27 27 26 26 42
21 37 43 39 45 36 34 29 20 21 19 14 12 24 18 12 10 10 11 13 14 14 18 19 19 23 25 25 28 28 30 25 18 13 19 28 39 32 31 30 27 26 30 32
10 14 26 40 49 45 44 34 26 19 20 22 17 12 11 12 39 23 15 16 18 18 18 21 26 26 25 26 25 23 20 18 15 11 15 24 28 31 33 34 34 29 28 26
13 12 12 24 34 42 52 42 32 21 15 24 22 18 14 12 62 100 23 18 22 33 31 37 30 26 25 24 24 21 16 14 12 11 15 21 18 26 24 28 32 29 25 26
26 17 12 12 24 26 43 41 47 35 20 18 22 24 19 19 16 34 29 22 26 42 42 45 43 33 30 26 22 18 15 11 11 12 17 18 18 23 22 22 23 26 25 26
18 23 21 17 11 16 22 37 40 48 29 27 28 25 34 21 19 19 19 27 24 29 32 37 38 34 34 30 25 22 13 12 12 15 18 18 18 22 22 21 23 25 27 28
28 25 34 26 16 11 13 18 30 43 54 41 31 22 35 30 28 19 23 23 25 28 26 25 27 27 28 30 27 20 17 16 15 16 20 19 21 23 22 21 24 26 29 29
36 44 40 21 28 18 15 12 15 26 41 38 40 27 28 26 27 21 19 18 24 87 100 76 25 26 30 31 28 20 17 17 17 18 20 20 24 25 22 22 25 27 28 30
37 35 41 27 24 24 25 29 13 15 26 38 48 36 31 29 27 31 26 22 16 35 44 37 26 29 31 24 22 20 18 17 18 19 20 23 26 23 22 24 25 26 27 29
38 26 37 28 17 22 22 24 23 14 15 23 37 46 42 35 32 31 30 27 25 21 21 19 18 16 16 16 16 17 18 19 20 22 24 25 23 22 23 25 26 26 28 30
25 28 22 26 31 21 17 18 19 15 18 13 18 37 46 42 37 30 31 28 24 22 25 22 22 19 20 21 20 20 20 21 21 23 25 24 23 24 27 28 28 28 29 31
30 25 24 21 16 14 20 28 22 19 23 14 12 17 37 44 43 39 35 33 28 24 20 30 26 25 24 23 22 22 21 22 24 25 25 24 24 27 29 30 30 31 31 32
38 33 28 25 23 27 20 29 34 25 20 22 18 13 18 32 43 44 41 37 35 32 24 25 29 29 27 25 25 25 24 24 25 25 25 25 26 28 29 30 31 31 30 32
32 28 30 27 29 27 23 21 26 24 19 18 23 22 13 17 28 41 44 42 38 36 33 29 29 30 30 27 24 26 26 25 26 26 26 27 27 28 28 29 30 30 29 30
32 28 27 26 29 32 31 21 22 23 24 23 30 26 27 17 18 23 37 42 42 39 35 35 34 30 29 30 27 27 26 27 28 28 28 28 28 28 28 28 29 30 29 32
37 32 31 31 33 35 44 25 27 26 34 39 34 35 53 23 28 17 20 30 37 42 39 36 36 35 32 30 29 30 28 26 28 28 28 28 28 28 27 28 30 30 33 36
33 34 35 34 44 47 39 46 44 46 41 44 46 41 47 40 27 31 14 16 26 34 39 40 36 35 34 33 31 29 29 29 29 29 28 27 26 26 28 30 32 34 35 36
33 37 46 42 44 41 44 62 83 93 57 67 44 42 42 40 38 31 31 14 15 20 28 34 39 38 36 35 36 34 32 29 28 28 27 26 26 27 29 31 33 34 35 64
38 45 42 41 48 49 46 88 100 76 70 66 54 59 57 71 70 51 43 38 23 12 16 23 28 34 38 37 38 36 34 34 33 32 31 31 32 32 32 33 34 35 55 95
42 42 37 48 63 74 66 98 100 97 59 53 45 48 52 49 44 62 52 30 25 19 12 14 17 23 28 35 38 39 37 35 36 35 36 36 37 37 36 36 38 64 85 67
32 33 25 32 53 80 81 98 99 92 63 67 62 54 79 68 58 64 59 54 36 21 13 10 11 13 17 23 29 35 38 40 39 38 38 39 40 41 39 39 68 88 68 45
32 42 57 36 49 59 81 100 99 67 68 86 62 94 88 96 98 70 46 36 36 38 25 12 9 10 11 13 18 25 29 34 36 37 38 39 39 40 40 55 60 53 37 35
32 52 49 55 100 97 73 69 74 98 84 73 100 100 78 95 99 65 39 29 23 21 20 21 15 10 8 8 10 13 19 23 27 31 33 34 35 36 40 36 45 35 33 30
30 44 59 63 100 94 92 61 100 87 90 90 100 100 100 96 79 57 38 28 32 83 81 65 34 19 15 12 8 9 11 14 18 23 52 72 66 37 29 28 27 27 25 24
28 36 47 70 99 75 97 95 100 99 86 96 100 100 100 75 54 41 35 75 92 97 100 100 100 80 18 18 15 12 14 19 15 20 25 58 97 73 32 28 28 26 27 30

GFSCGP_250_rhum_012.txt.gz
RH
35 39 42 28 29 28 32 24 20 21 16 13 71 42 39 56 32 28 12 10 8 11 20 4 2 11 24 46 44 62 67 44 32 27 46 71 31 27 28 24 22 26 34 36
18 33 42 36 33 29 40 39 23 19 21 13 26 68 40 15 11 10 10 9 7 19 16 12 10 29 37 40 32 49 35 22 22 36 36 32 35 26 29 28 29 28 28 30
9 12 27 43 48 36 42 46 38 19 18 24 17 17 56 11 8 8 8 10 11 13 13 12 12 22 20 28 41 36 44 37 29 17 20 23 28 28 28 25 35 34 29 28
14 10 10 21 42 51 41 51 33 28 18 22 27 16 14 12 11 10 10 11 12 15 17 16 14 16 21 24 23 22 25 31 22 15 12 20 22 20 24 22 29 30 28 27
18 15 12 11 15 32 52 38 39 29 22 18 26 25 19 13 12 34 20 14 14 18 22 19 20 20 23 24 27 27 25 22 20 14 12 16 19 18 19 22 26 30 30 28
25 19 18 13 11 12 23 35 38 32 17 23 24 30 24 24 14 53 70 48 15 19 25 25 29 25 24 26 26 27 27 21 18 14 12 15 20 18 18 21 24 29 29 27
27 28 25 21 15 13 12 17 24 30 22 36 35 25 32 27 23 19 91 91 18 19 32 34 44 42 38 35 30 26 22 18 14 12 12 15 19 20 19 22 24 26 26 26
24 25 34 30 26 21 16 11 14 21 30 31 34 24 29 28 26 21 24 21 27 24 34 36 34 36 36 37 34 30 30 20 17 14 13 15 18 20 20 22 24 25 25 25
24 24 26 18 29 26 25 16 12 11 20 26 33 32 37 24 30 27 22 24 24 43 27 27 28 27 29 30 30 28 30 28 18 21 21 18 20 20 20 23 23 24 25 25
19 20 21 21 19 17 30 27 15 12 10 17 36 29 47 38 26 28 32 28 21 25 28 24 30 28 27 26 25 27 32 30 20 18 20 19 19 20 22 24 23 24 25 25
21 17 19 17 16 23 25 27 23 16 12 9 14 29 46 49 40 26 26 29 29 23 21 25 31 73 92 53 36 42 40 24 19 18 18 19 20 20 24 24 23 26 28 28
23 20 18 15 19 20 16 17 16 13 21 23 11 13 25 42 46 36 27 28 23 24 30 22 22 27 37 23 25 26 28 17 18 19 19 21 22 22 24 24 23 27 28 27
23 17 16 15 14 13 14 19 27 20 18 16 20 16 12 19 32 42 43 35 33 29 25 30 30 32 26 20 20 20 22 20 21 22 21 22 23 24 24 24 24 27 28 26
12 9 9 11 23 26 22 20 17 19 18 19 19 25 20 11 15 26 32 45 40 36 36 26 23 30 42 33 23 23 23 23 22 22 23 24 25 25 25 26 26 27 28 27
17 8 10 11 17 23 20 20 20 18 20 19 35 25 35 23 13 13 20 27 31 41 38 33 28 29 29 62 46 30 28 26 23 24 25 25 26 26 27 27 27 28 28 27
17 15 13 16 24 28 26 26 24 24 24 23 24 22 27 50 32 20 16 14 23 31 39 40 35 34 32 31 31 32 32 29 27 24 25 26 27 27 28 28 28 28 28 28
17 16 16 14 27 29 31 15 21 27 28 28 26 26 28 25 44 32 38 23 14 15 24 40 43 42 39 36 33 31 31 29 29 29 29 28 27 28 28 28 28 28 28 29
23 20 18 17 21 28 22 25 24 30 32 30 28 26 27 30 33 58 55 42 28 18 14 17 29 39 38 41 38 34 33 31 31 30 29 29 29 29 28 28 28 29 29 29
18 19 18 18 20 16 21 22 32 32 34 33 31 28 29 35 38 45 64 52 47 38 27 18 13 19 32 35 40 40 37 36 36 36 34 31 31 30 30 30 30 30 31 32
14 16 18 20 24 21 20 26 34 43 36 32 33 30 24 33 48 45 61 79 69 63 50 22 19 12 13 22 31 36 41 40 38 38 37 37 36 36 35 35 35 34 34 35
19 24 28 29 20 17 26 38 40 53 41 34 29 31 28 34 44 76 86 71 62 56 55 42 22 17 12 10 13 22 31 39 43 41 41 39 38 38 37 37 37 37 37 38
27 26 27 34 27 22 23 31 35 44 52 38 36 34 25 32 40 66 80 85 81 70 71 48 32 24 19 11 8 7 12 21 29 38 41 41 41 41 39 39 38 37 39 47
19 24 27 30 28 28 28 32 33 34 38 38 38 36 28 32 40 48 79 96 80 76 63 39 17 14 15 14 13 12 10 9 11 16 21 28 35 38 38 36 34 34 41 38
10 19 28 30 29 25 32 37 38 41 39 41 35 32 30 34 48 57 66 72 68 76 70 30 14 12 14 14 13 15 14 12 9 8 8 10 14 20 26 27 28 28 46 99
4 10 22 46 34 27 42 55 59 49 56 64 77 74 66 40 47 56 69 76 56 42 23 18 28 37 33 45 94 100 94 83 58 35 17 10 9 8 10 12 20 100 100 100
5 9 16 63 91 67 53 64 73 90 81 50 47 49 59 73 90 82 62 62 58 41 34 59 100 100 100 100 100 100 100 100 99 86 53 27 16 37 96 84 93 100 100 96

GFSCGP_250_rhum_015.txt.gz
RH
18 33 42 37 28 22 25 34 25 19 21 17 27 55 40 58 72 76 32 48 15 9 8 9 9 7 25 37 44 35 73 39 36 38 41 37 30 30 28 29 29 29 28 29
9 11 22 32 39 34 27 30 36 22 18 20 17 52 56 63 39 33 26 11 10 8 14 13 4 15 30 39 46 65 63 41 30 39 34 36 35 27 28 34 39 36 30 27
12 10 10 15 24 32 41 31 27 23 20 18 18 19 65 68 23 10 11 8 9 18 8 4 4 14 23 36 42 49 47 29 27 27 18 20 23 25 25 27 35 33 29 28
20 13 11 10 12 20 42 49 23 21 22 20 20 19 13 37 28 9 8 9 9 17 12 12 8 23 19 29 34 34 32 35 31 22 13 12 20 19 18 25 29 29 27 25
24 20 16 13 10 10 24 32 33 23 21 19 23 26 21 14 14 10 10 11 12 13 12 13 14 25 23 22 31 29 30 34 34 23 15 11 15 19 18 20 24 25 25 26
25 23 22 17 14 15 10 14 21 34 24 21 35 28 32 24 13 12 15 12 12 14 16 16 15 21 28 26 22 26 27 26 24 18 15 13 13 18 19 19 23 24 23 23
26 24 24 23 23 22 14 12 11 17 29 46 36 31 29 29 24 13 22 42 36 17 21 20 20 21 25 30 32 29 26 25 23 19 14 12 13 15 18 20 23 25 23 23
29 28 29 26 28 22 19 13 12 10 15 39 38 32 35 22 23 20 18 28 64 36 22 21 22 33 35 34 37 34 32 30 24 19 16 13 14 15 17 19 22 24 22 22
24 25 29 24 26 21 27 14 24 11 10 10 25 40 41 31 22 23 22 21 54 98 22 21 28 34 40 39 38 36 34 32 32 33 30 20 18 17 17 18 21 24 22 23
22 22 22 21 18 16 19 24 16 17 12 12 10 26 46 41 34 25 21 23 24 27 26 23 27 38 41 32 33 33 31 31 26 28 34 31 20 18 17 18 20 23 23 22
19 20 21 19 18 17 18 21 21 17 14 18 12 11 32 45 44 35 25 24 26 23 24 22 36 34 29 30 33 30 27 27 27 29 34 34 26 18 18 20 21 22 23 23
16 14 24 21 21 20 17 14 17 15 27 22 14 15 12 23 37 36 37 29 24 23 21 21 21 24 29 24 25 39 55 89 38 40 35 34 24 18 19 20 23 24 25 24
16 13 14 17 19 17 15 17 15 17 23 24 23 24 16 14 14 29 41 44 39 30 28 33 29 25 24 23 23 31 95 71 30 25 19 20 20 20 22 22 23 25 25 25
14 12 13 16 16 20 19 17 19 17 17 28 30 57 21 20 19 13 20 34 40 42 34 29 30 29 30 33 26 20 28 28 22 24 21 21 22 22 22 23 24 25 26 26
14 12 12 13 17 17 18 19 17 13 15 17 45 42 48 28 28 22 15 13 20 34 40 42 36 32 32 31 31 32 27 25 26 24 23 23 23 24 23 23 25 26 25 27
14 13 11 11 15 24 17 17 10 9 11 15 20 21 34 39 31 31 31 22 16 15 18 38 49 47 42 36 41 33 32 32 29 30 29 28 28 26 25 25 25 26 26 27
10 10 11 12 21 21 15 10 11 9 10 12 14 26 30 29 27 27 27 26 24 20 21 18 20 39 48 47 42 35 35 34 36 33 30 33 32 32 31 30 28 29 29 28
10 8 9 10 17 24 16 17 12 10 10 14 14 24 22 20 26 30 28 25 24 25 29 36 32 19 18 32 44 46 43 39 38 39 34 32 31 31 31 31 31 31 30 30
11 11 8 9 8 9 19 23 15 12 11 11 13 14 18 18 17 26 27 27 27 28 32 42 39 35 29 18 15 24 35 45 43 40 36 36 36 37 35 34 33 34 34 35
14 14 13 12 10 9 10 13 19 18 12 8 8 10 16 24 21 19 27 32 31 31 30 33 40 39 41 34 28 15 14 21 38 45 45 41 38 38 38 37 37 36 36 36
12 11 10 12 11 12 11 13 14 19 9 12 12 13 14 16 20 24 24 34 33 31 33 30 33 42 53 50 30 24 15 13 15 20 35 43 44 44 43 41 38 38 37 37
11 14 13 13 11 11 13 20 18 16 19 12 17 17 15 14 16 19 27 25 37 35 36 35 34 37 50 48 25 18 15 14 14 12 12 15 22 31 37 38 37 36 34 31
21 18 15 16 17 17 18 22 23 27 19 22 18 19 18 19 19 19 27 32 40 42 45 36 32 36 37 35 25 16 20 21 16 12 9 8 8 8 10 13 14 16 19 18
19 21 23 26 24 23 20 20 22 37 39 33 32 24 24 26 24 22 26 32 44 49 46 44 35 32 41 45 27 18 20 22 20 16 14 12 9 8 8 13 24 37 30 11
8 16 21 25 25 28 28 33 37 43 45 45 59 89 66 50 38 32 37 40 46 53 51 46 47 41 49 43 25 20 25 22 18 18 15 12 36 64 65 84 83 81 36 26
3 4 7 15 26 32 37 41 40 41 60 64 70 68 100 81 85 81 58 52 49 41 39 40 38 52 41 24 20 48 72 62 25 28 52 70 85 100 100 100 100 76 86 100

GFSCGP_250_rhum_021.txt.gz
RH
9 10 12 13 19 21 20 27 29 30 25 19 17 17 33 42 46 47 53 42 54 58 52 48 23 14 12 16 22 25 30 25 24 25 25 27 24 24 25 30 29 26 27 27
8 7 9 10 13 20 28 39 42 36 32 23 18 18 22 46 49 59 35 53 50 58 31 26 16 10 17 20 29 27 28 32 27 31 33 32 28 23 22 23 27 27 27 26
11 9 10 10 10 12 17 29 46 47 40 29 26 24 20 32 48 40 27 24 30 18 10 10 12 17 23 30 29 32 34 37 28 29 25 24 22 18 18 22 24 26 26 25
14 13 14 12 11 9 10 12 17 35 46 40 29 28 24 17 33 25 12 11 9 10 10 9 12 20 31 36 34 36 52 30 30 32 17 18 20 19 18 19 22 24 24 24
23 14 16 17 13 11 9 9 10 14 31 40 42 35 34 23 15 17 12 9 8 9 14 10 16 23 26 32 35 42 68 47 38 32 26 16 13 16 19 19 20 22 23 22
23 23 22 29 14 14 10 10 8 10 18 48 53 48 37 32 18 12 13 10 8 11 15 11 10 18 31 36 38 58 61 52 37 30 35 31 20 13 13 15 16 18 21 23
32 27 26 27 17 14 13 10 8 8 10 46 37 50 45 31 29 16 13 10 9 9 9 6 5 15 22 28 39 44 41 42 31 27 27 24 18 16 13 13 14 15 18 20
30 24 24 29 25 20 15 11 14 13 10 10 17 46 47 38 38 25 17 12 12 16 12 9 6 3 11 21 28 46 33 32 24 25 26 23 21 17 13 13 14 17 19 19
29 28 29 31 26 20 18 18 14 13 12 10 13 37 42 39 38 39 25 16 15 13 13 15 15 15 16 23 26 25 23 23 25 25 23 22 22 21 20 21 23 24 23 19
28 29 29 31 25 17 19 19 16 22 23 17 14 14 32 44 38 44 36 31 16 20 15 15 18 20 18 15 18 25 26 28 29 32 33 30 29 27 29 32 32 31 25 20
31 33 37 32 27 25 29 27 23 27 27 36 29 20 17 25 36 43 42 38 31 17 22 26 33 27 22 21 18 22 30 33 38 42 42 40 36 30 28 28 29 36 41 24
35 34 39 34 30 26 28 26 19 21 29 33 25 26 27 16 17 39 49 40 34 27 23 21 36 46 70 27 26 27 35 41 45 47 48 42 42 38 34 35 74 48 45 34
30 30 36 36 29 28 25 25 22 25 27 28 32 31 28 31 21 14 33 47 47 41 34 28 24 23 45 96 31 27 28 33 36 38 38 38 36 33 33 64 100 61 32 29
32 26 29 35 35 31 26 24 21 23 22 29 37 56 20 27 26 21 14 29 49 49 44 40 39 37 30 66 72 39 26 28 33 39 42 38 33 29 31 50 56 50 28 23
41 31 26 29 31 30 26 24 21 21 21 21 59 38 22 21 29 23 22 15 19 37 47 46 42 38 36 35 33 30 28 28 28 30 29 29 27 24 23 22 21 23 26 24
34 34 28 24 28 29 26 24 22 20 22 23 49 36 29 22 23 25 32 29 24 17 22 38 44 46 45 43 40 37 35 34 32 34 37 36 35 34 33 32 29 30 29 29
29 31 29 26 23 26 24 24 21 18 19 22 37 39 40 22 20 19 27 26 30 29 25 19 17 26 40 45 47 48 47 43 41 39 36 34 33 34 33 32 32 30 31 34
20 26 30 29 25 23 27 25 20 16 16 19 29 36 38 25 18 20 19 26 33 35 30 28 29 26 21 19 19 20 23 28 37 46 50 50 50 47 44 42 40 38 36 37
22 19 26 28 28 25 26 26 21 17 17 14 19 28 37 37 26 18 18 22 26 29 33 32 30 33 29 25 23 24 24 23 20 19 17 16 18 23 25 24 26 31 36 44
20 19 17 24 26 21 30 25 24 20 18 16 16 24 31 38 28 29 19 18 23 22 26 31 31 32 31 28 27 23 22 23 22 21 19 17 18 20 19 17 18 17 16 13
15 18 16 18 23 24 31 29 23 22 19 20 18 19 25 25 34 35 23 17 17 22 26 27 26 28 30 29 28 27 26 25 24 24 25 24 21 20 18 18 16 19 20 20
9 12 15 15 15 18 29 29 26 24 22 21 18 18 18 20 21 34 33 23 12 11 17 24 28 25 21 26 28 25 25 25 27 27 27 29 28 28 25 25 25 27 24 22
9 7 13 13 12 18 24 25 24 24 23 22 19 18 18 21 22 24 32 37 23 13 12 14 18 20 24 21 21 23 21 21 23 22 22 25 27 27 30 36 34 27 29 26
17 9 7 13 12 15 18 20 22 21 21 20 20 16 17 17 18 25 24 30 36 31 20 14 13 13 14 19 21 19 20 20 19 18 18 18 20 25 28 33 36 34 28 25
22 11 8 8 15 15 17 19 19 18 19 21 20 21 16 17 16 16 19 24 29 34 32 22 16 17 18 16 15 14 14 15 17 17 16 17 18 22 28 32 32 36 45 37
17 19 12 8 9 13 16 15 18 20 18 17 19 24 28 23 23 25 22 17 19 25 32 33 32 28 25 24 23 23 22 21 18 17 16 17 21 24 29 30 35 40 58 66

GFSCGP_250_rhum_024.txt.gz
RH
15 16 16 15 15 16 18 18 35 32 24 22 19 18 17 22 43 38 39 39 34 38 45 47 43 26 10 13 14 18 30 20 19 20 24 22 22 27 26 25 26 26 28 26
10 10 12 13 11 11 13 16 34 50 36 29 25 21 19 17 37 44 32 49 39 38 47 48 46 22 12 19 17 21 29 23 23 29 28 24 23 21 22 24 26 26 28 26
10 8 9 9 10 10 10 11 18 49 49 34 32 27 24 19 24 56 38 29 36 35 34 33 40 15 16 20 21 31 28 26 26 27 32 29 21 18 20 22 23 24 24 23
9 9 10 10 10 9 9 9 10 15 39 41 37 35 28 24 19 33 32 12 24 34 22 18 14 15 14 23 30 37 29 30 29 27 21 21 19 18 18 21 21 22 23 23
16 9 9 11 9 10 11 10 10 11 18 26 31 40 40 31 25 19 23 12 11 12 8 9 12 12 23 26 34 39 39 35 30 25 18 14 16 18 19 19 20 22 22 22
12 12 13 19 16 17 12 11 9 9 11 20 54 54 48 44 30 23 18 14 9 9 8 8 12 22 24 36 39 35 50 37 34 33 24 23 17 13 14 16 17 18 19 22
16 26 26 19 20 18 16 13 10 9 10 16 35 48 56 50 34 29 18 15 10 9 10 9 12 18 29 34 34 35 63 65 54 36 30 34 34 23 15 12 13 15 17 19
15 16 26 25 23 20 15 14 11 13 11 11 11 30 39 48 30 30 23 16 12 10 12 9 9 12 31 38 44 46 61 53 38 30 27 29 30 25 20 16 13 13 16 18
26 20 31 24 21 16 16 18 21 15 12 13 12 13 24 38 32 35 34 24 16 11 11 6 5 12 28 41 45 49 52 40 38 33 28 26 24 23 22 18 20 24 26 21
20 21 31 32 23 18 20 20 15 21 25 30 23 13 16 33 40 42 32 34 22 12 13 9 7 9 20 17 17 27 37 51 38 32 30 31 30 27 26 26 26 27 30 31
23 37 32 33 21 24 23 18 21 28 37 35 29 18 11 12 35 47 42 41 30 16 16 15 13 10 7 6 19 26 33 41 33 33 36 34 36 37 39 37 34 32 33 41
24 32 30 40 37 26 23 21 22 23 37 41 27 20 12 11 16 41 46 39 36 26 14 19 15 15 17 16 17 16 20 25 26 28 32 35 42 44 44 44 39 38 33 49
22 24 31 35 31 23 19 21 23 26 37 39 36 31 36 31 13 23 43 48 44 39 25 14 14 15 20 21 20 20 17 16 21 28 34 38 42 48 45 39 34 31 28 71
21 37 31 33 49 44 25 21 25 25 32 49 64 39 35 29 24 13 20 42 48 46 37 31 29 24 30 40 38 24 26 24 23 30 38 40 44 42 37 35 35 33 29 27
21 24 33 33 33 30 25 22 24 26 34 39 66 41 30 27 29 26 16 16 34 50 47 41 36 32 36 41 39 51 100 69 30 26 27 29 29 31 33 36 37 29 25 23
23 20 29 28 33 34 31 24 24 29 32 40 59 53 34 25 28 29 30 16 14 25 45 50 42 38 38 38 38 34 29 65 88 59 37 28 27 28 29 26 25 28 32 34
27 23 21 32 36 36 31 26 27 28 30 38 61 72 54 30 24 22 24 20 15 14 16 28 44 50 46 42 39 37 35 34 34 34 35 35 34 35 35 35 34 32 31 30
28 26 24 25 24 30 32 30 28 26 28 31 44 63 69 35 25 24 26 21 19 19 17 13 14 20 30 42 46 44 43 42 41 41 40 41 42 42 42 40 43 46 47 42
22 31 25 22 19 33 30 28 28 27 26 26 34 45 68 49 30 23 23 29 28 21 22 24 24 23 18 17 19 26 31 38 40 42 42 43 45 40 28 22 21 19 15 14
15 27 28 23 18 26 32 29 28 26 27 27 33 44 54 58 35 36 23 22 23 25 29 33 27 25 27 25 23 21 16 15 16 16 14 15 17 19 20 19 18 18 18 20
14 15 26 25 21 21 25 24 26 27 28 27 32 37 43 55 41 44 23 20 24 25 25 31 33 32 28 22 20 20 21 22 21 21 23 24 25 24 23 21 21 23 26 29
13 13 18 27 22 18 21 22 27 25 26 26 28 34 38 47 52 36 34 25 25 24 22 26 30 34 37 31 28 25 25 26 27 28 26 26 25 25 25 23 21 25 25 26
18 12 12 15 23 21 17 20 24 24 24 25 26 30 29 31 39 39 36 30 22 24 24 22 23 28 30 32 34 33 29 27 28 27 26 25 26 21 18 17 15 15 22 18
21 14 11 12 17 21 20 19 23 25 22 24 24 27 26 27 31 34 27 27 24 18 21 24 25 21 21 29 32 31 32 32 28 23 22 20 20 21 20 20 16 13 14 15
22 20 15 12 13 14 22 21 21 22 22 25 27 25 28 26 29 35 33 27 21 23 21 19 21 24 24 17 18 24 31 32 30 29 25 22 20 18 14 14 14 13 13 14
17 22 21 17 13 12 14 23 20 20 23 24 30 32 29 29 32 33 34 39 34 26 24 23 19 19 22 27 25 22 20 22 27 29 28 26 20 15 14 12 12 11 13 14

GFSCGP_250_rhum_027.txt.gz
RH
20 21 20 17 18 16 15 14 14 19 24 36 31 21 20 18 19 22 29 20 20 38 38 37 34 39 14 12 12 16 33 22 18 22 22 25 24 21 21 23 23 20 22 66
24 24 21 20 19 18 18 17 16 20 21 30 39 30 23 21 19 21 32 33 18 33 38 38 38 34 16 13 13 18 34 21 18 24 21 20 23 21 22 22 23 20 20 45
30 24 23 16 12 12 15 15 14 14 16 20 31 39 32 25 21 20 26 46 20 23 27 26 32 30 16 13 15 20 34 21 20 24 23 22 19 20 21 22 21 20 19 20
34 30 21 13 11 10 10 13 13 11 11 14 17 41 38 32 26 25 21 33 23 24 27 35 32 37 18 15 18 22 36 22 24 33 27 23 17 17 19 20 20 20 19 20
22 27 24 14 10 9 8 9 9 9 9 10 11 24 46 41 33 30 23 20 22 19 25 28 34 36 14 19 20 23 40 25 29 29 23 20 18 18 18 19 21 21 24 19
27 24 23 19 13 9 9 10 10 10 10 10 11 27 53 48 42 34 31 20 20 9 13 13 25 30 15 20 23 36 32 30 33 25 17 14 14 14 16 18 18 18 19 21
22 22 18 15 13 12 9 10 10 9 11 12 12 13 58 56 49 42 39 26 18 10 8 9 9 22 17 15 23 36 33 41 30 27 20 21 23 20 16 13 14 14 16 18
22 18 16 14 14 14 11 10 10 14 12 13 10 9 19 45 52 47 43 32 20 12 10 9 8 12 15 16 26 36 37 47 31 35 32 29 29 40 37 22 17 13 13 15
24 21 18 14 14 12 12 11 19 12 14 14 14 11 10 19 39 40 46 35 29 16 11 10 11 11 14 20 33 40 40 60 68 60 45 40 35 37 35 27 21 15 16 20
27 24 22 19 16 13 11 18 10 12 20 26 19 15 11 10 26 27 42 37 39 24 12 10 13 13 14 19 35 40 41 71 66 56 42 30 29 31 30 27 22 24 27 27
26 26 23 20 15 14 17 12 15 20 25 32 25 20 12 9 12 32 48 49 43 36 19 11 11 14 10 16 34 44 50 54 52 40 38 35 29 30 29 29 32 36 41 38
23 23 22 20 20 19 16 14 19 25 40 50 44 27 16 10 10 20 43 50 48 42 30 13 11 11 8 14 26 35 41 49 48 48 45 36 29 29 27 34 37 35 31 30
20 20 21 21 21 15 12 14 21 24 32 40 39 20 17 12 11 11 32 49 50 47 40 26 14 13 12 9 13 18 18 16 22 28 45 35 27 29 31 38 41 39 42 42
22 22 20 22 24 34 20 22 25 24 27 40 47 29 28 21 14 12 16 41 49 49 44 36 23 21 12 12 11 8 11 15 18 25 26 26 26 29 34 38 41 44 46 36
22 24 22 26 21 22 18 24 29 28 30 35 57 51 34 28 20 14 13 23 43 48 47 44 31 19 22 20 17 14 12 18 19 18 18 17 20 28 34 38 42 40 35 32
20 25 23 22 19 16 14 16 19 25 34 37 58 74 38 30 26 25 17 15 28 42 47 46 42 34 25 21 17 17 18 25 24 23 25 24 25 26 30 33 33 28 26 27
16 23 25 22 18 16 14 22 26 27 34 37 48 76 58 30 30 31 30 17 14 25 40 47 46 42 36 35 30 27 34 43 47 43 87 99 81 56 45 38 31 27 26 29
17 22 24 24 22 17 22 28 31 31 33 43 51 67 76 43 29 22 27 32 23 15 18 34 46 48 44 39 34 36 36 35 33 28 30 29 31 35 32 27 28 31 35 42
17 19 24 29 25 22 19 24 26 24 28 40 49 63 84 68 41 22 26 30 30 24 16 14 21 40 49 48 43 39 38 38 38 39 38 38 37 36 36 39 42 43 39 34
17 18 19 26 26 23 23 23 22 22 30 36 44 56 67 72 42 39 18 26 32 25 23 20 15 13 17 30 44 48 48 48 47 46 46 46 46 42 37 31 29 22 18 17
17 16 18 22 24 22 24 20 22 30 37 33 37 47 60 75 62 39 30 25 29 31 34 34 30 24 18 16 14 15 24 34 37 39 34 27 26 25 23 20 18 19 20 21
20 17 16 20 21 20 21 20 23 26 33 29 31 43 52 65 67 54 34 22 26 29 34 35 35 40 41 36 28 22 20 17 14 17 19 19 18 18 20 21 20 18 19 21
22 21 17 16 18 20 17 16 18 20 28 26 30 40 48 61 66 54 39 31 23 24 28 32 33 30 34 36 36 32 30 28 24 23 24 23 23 24 24 23 18 15 17 19
23 22 21 18 15 14 14 13 16 21 26 28 32 36 49 59 72 67 52 41 30 25 26 29 31 30 27 28 32 34 35 33 30 28 26 25 25 25 25 24 22 19 16 17
25 24 24 22 20 16 16 12 15 20 25 33 31 34 43 54 63 68 66 53 43 36 31 27 28 30 33 32 30 29 29 31 32 32 28 25 22 21 21 20 19 19 17 15
21 26 26 24 23 21 17 17 18 22 22 30 29 32 36 44 56 62 69 65 57 42 38 33 29 26 24 26 31 33 30 28 25 23 24 24 22 19 18 18 17 16 15 14

GFSCGP_250_rhum_030.txt.gz
RH
16 15 16 15 13 13 12 11 12 17 21 22 32 30 28 25 71 100 17 16 22 16 18 36 35 29 21 9 11 20 37 25 19 21 21 29 38 20 17 20 42 61 69 75
18 24 17 14 14 16 15 15 13 16 19 22 28 36 34 26 98 94 17 50 20 25 18 27 36 28 21 9 12 21 38 28 21 24 23 20 19 19 18 19 20 30 100 74
22 28 20 20 20 21 21 19 16 15 16 17 20 23 28 32 26 22 19 18 17 31 20 24 38 28 27 10 12 20 39 38 20 26 24 24 21 19 19 18 17 19 46 100
24 20 21 24 27 24 23 21 20 18 18 18 16 17 25 34 32 28 26 16 100 31 20 23 28 33 27 11 12 17 38 26 19 26 23 20 19 19 19 18 18 19 21 42
34 28 22 24 38 28 25 23 21 16 12 15 16 15 18 28 35 34 28 19 83 19 20 19 17 25 30 11 12 18 37 23 19 26 24 24 19 18 19 19 20 20 20 20
31 28 20 28 31 31 29 23 15 10 10 10 12 12 12 20 32 38 34 27 20 18 18 20 24 23 37 14 13 20 36 24 21 29 30 25 18 18 18 18 19 19 20 20
42 34 37 36 31 30 29 23 13 10 9 11 10 10 11 19 40 42 39 35 23 22 18 11 27 28 34 21 13 18 31 30 24 27 28 18 18 17 17 18 17 16 17 18
38 34 35 40 33 22 24 22 17 11 11 10 8 8 8 8 12 31 35 40 30 28 19 12 10 21 33 26 14 18 35 28 26 31 20 18 16 17 25 23 14 13 13 14
40 34 30 30 30 28 27 22 18 14 9 8 9 9 7 8 9 14 20 41 39 34 25 15 8 8 14 19 16 20 34 30 34 32 24 20 23 23 33 39 26 20 18 14
45 38 32 28 27 24 22 19 15 13 12 11 12 12 11 9 10 15 29 44 43 40 33 19 11 8 9 15 17 22 37 39 45 34 38 40 34 32 37 38 29 24 20 18
36 36 32 28 22 27 21 17 12 14 13 17 15 14 12 9 9 12 19 44 48 47 36 24 14 10 10 12 17 22 34 41 48 41 48 49 43 40 30 30 27 25 22 27
22 28 32 27 23 27 24 17 14 14 20 31 28 18 14 11 10 10 14 31 55 50 46 32 22 11 12 10 18 24 32 38 55 73 70 58 44 34 28 28 28 25 29 29
14 14 21 23 24 19 21 22 18 16 22 31 30 21 18 14 10 11 12 20 48 53 50 42 33 16 12 12 21 30 35 35 43 59 60 52 42 38 36 28 29 30 36 41
15 13 15 23 26 25 25 24 22 18 20 28 33 25 25 19 11 14 12 12 31 49 49 44 40 29 13 14 16 29 36 39 41 48 52 51 47 47 46 32 32 32 38 41
17 21 16 23 30 28 30 28 26 21 30 31 38 38 34 27 16 17 14 12 15 36 46 47 44 37 15 16 15 18 28 39 40 38 35 26 24 32 42 31 31 35 37 39
15 24 22 24 28 27 25 26 26 24 30 36 43 47 31 28 22 20 22 16 12 19 36 42 44 46 28 16 15 15 17 25 34 36 12 16 23 28 21 19 22 27 32 36
16 18 20 28 32 28 24 23 21 24 26 32 42 51 50 38 23 21 23 18 14 11 20 40 47 48 42 21 18 15 16 18 29 15 8 15 19 19 20 21 22 24 27 28
14 16 16 32 33 31 24 23 24 24 27 35 50 51 53 40 31 22 32 27 18 14 13 23 46 49 48 42 23 18 16 14 14 16 21 23 25 33 88 94 88 72 68 65
14 15 18 32 31 29 23 22 23 22 32 46 56 66 49 44 42 25 26 33 27 19 13 12 20 44 48 46 43 32 18 17 17 16 17 24 27 37 30 25 27 31 33 32
15 16 20 22 28 26 28 25 25 26 32 51 52 45 38 47 65 44 22 28 35 34 30 27 21 21 33 44 46 45 42 35 25 22 20 20 24 28 28 27 33 36 40 43
16 14 19 22 24 23 28 29 26 34 33 22 38 46 52 54 74 98 24 24 31 34 33 30 30 20 14 18 31 41 42 45 45 42 40 38 37 38 39 40 44 46 47 39
20 14 17 19 22 22 26 28 26 24 23 19 33 39 35 41 40 69 41 31 31 27 34 37 37 37 30 22 17 18 22 31 41 46 46 46 46 46 45 44 41 38 29 23
24 18 16 18 23 22 18 25 24 24 21 20 21 31 40 42 48 66 92 44 28 24 28 37 43 45 43 37 40 36 30 23 22 20 19 18 20 20 21 22 23 23 23 22
20 18 17 14 16 19 18 15 17 22 21 19 21 30 42 42 60 94 96 77 32 25 28 33 37 39 39 45 43 42 44 47 42 37 34 32 38 34 32 33 29 25 24 23
20 18 19 15 15 14 13 12 13 18 25 22 20 31 41 49 65 83 85 88 57 44 32 28 34 34 44 39 38 39 39 37 36 37 31 30 32 35 31 28 25 24 25 25
22 24 24 21 20 16 12 11 12 15 23 26 25 32 48 58 60 78 86 88 80 54 51 27 29 33 37 40 35 32 33 32 31 34 35 34 33 33 30 26 23 24 25 29

GFSCGP_250_rhum_033.txt.gz
RH
16 10 18 16 14 13 12 12 13 15 14 15 15 17 14 12 11 100 100 95 95 61 14 15 22 32 32 12 10 20 25 18 20 23 21 30 29 26 47 60 28 30 53 73
15 18 17 15 14 14 14 14 14 15 18 19 18 16 11 12 14 100 100 100 81 100 75 11 21 28 33 14 10 20 25 18 20 23 26 32 24 21 34 63 66 100 80 58
17 22 14 14 15 16 16 16 15 14 18 19 18 14 13 11 13 99 99 100 82 100 40 13 16 23 32 16 11 20 23 20 24 23 23 26 21 20 22 24 38 100 85 81
16 18 16 15 15 16 17 20 16 13 14 17 17 17 13 14 13 46 94 100 51 31 49 56 12 22 29 28 12 23 23 22 25 24 26 25 22 20 22 21 20 32 95 100
30 26 23 20 25 19 26 20 18 16 14 14 15 17 18 18 16 14 15 21 18 40 86 96 18 21 24 35 14 17 26 24 22 26 23 25 24 22 21 22 21 21 23 27
27 24 20 26 26 22 25 20 18 17 16 14 20 19 18 18 18 16 14 16 9 71 100 48 29 19 22 30 20 13 25 24 20 26 24 22 21 20 20 21 21 22 20 20
28 27 29 33 32 28 25 20 17 17 20 23 20 20 12 12 15 16 17 18 16 24 91 84 98 47 19 22 29 12 20 20 19 20 26 24 20 18 18 18 19 20 19 19
32 29 28 34 32 30 33 31 23 29 36 24 22 18 11 10 10 12 14 14 16 18 18 71 68 15 24 23 34 14 16 24 20 20 30 29 20 18 19 19 18 16 15 16
34 37 38 33 39 39 34 26 31 37 39 32 25 14 10 8 10 12 12 12 15 23 26 16 16 11 17 30 36 20 14 30 22 22 25 32 20 16 14 16 16 13 13 13
33 46 52 53 42 41 32 35 29 29 32 31 24 15 11 8 9 9 9 9 21 35 32 23 22 14 9 20 34 23 16 27 27 24 28 29 17 17 20 27 32 26 19 16
20 22 48 51 40 40 33 27 30 28 27 24 22 19 15 9 8 8 9 8 19 34 43 38 28 18 10 9 22 24 18 21 32 26 29 26 18 20 26 27 32 31 24 21
18 18 30 30 47 43 37 35 39 34 25 25 22 19 15 10 9 8 8 9 10 40 39 47 41 27 14 10 9 18 19 20 31 27 33 33 28 30 32 32 28 27 26 24
15 15 23 29 31 38 34 31 32 33 26 24 22 18 13 12 11 10 9 10 8 22 43 46 48 39 21 11 10 12 17 21 36 33 43 38 32 38 45 35 30 28 27 26
13 14 17 20 27 31 38 36 29 27 26 23 20 16 13 13 12 11 10 10 9 9 23 43 44 45 30 15 11 12 14 21 32 43 41 42 41 58 58 40 38 36 30 30
14 16 16 25 26 27 34 38 34 26 26 24 25 17 16 15 15 13 12 12 11 9 11 35 45 49 40 25 12 12 12 23 28 41 46 59 66 69 54 49 48 48 41 30
14 16 16 23 32 35 33 26 28 29 29 27 34 22 20 18 16 16 18 16 13 11 9 17 46 48 49 38 17 13 14 23 26 41 48 44 45 51 53 53 39 32 41 31
14 14 16 23 34 34 30 30 23 30 32 29 37 27 22 22 16 16 25 16 12 12 10 9 25 44 51 46 35 14 15 22 27 33 36 39 45 49 40 21 21 30 28 19
14 13 15 27 32 31 33 30 28 26 30 34 45 34 24 30 23 13 19 21 14 13 11 9 19 42 56 70 50 31 15 14 17 26 31 34 35 28 26 13 20 20 20 22
15 14 19 25 20 35 38 33 31 31 34 33 43 46 31 26 22 15 19 22 24 14 15 13 10 19 43 58 65 83 40 18 15 12 15 19 17 14 12 11 18 22 39 67
18 18 20 17 19 36 44 36 31 31 34 37 44 47 26 23 22 18 17 27 33 21 20 17 14 13 24 44 49 52 47 43 26 22 16 10 11 14 16 19 23 31 40 34
19 24 25 18 20 27 40 39 36 33 33 32 56 49 33 22 20 19 23 19 31 33 28 22 19 13 12 21 40 48 48 46 44 37 26 24 23 21 20 23 26 28 33 36
19 27 29 22 21 26 37 42 42 37 32 29 35 46 35 20 23 29 38 28 23 37 35 25 24 22 20 16 18 37 42 40 42 43 42 41 39 39 38 36 35 37 39 41
20 26 27 20 24 25 28 30 24 26 35 32 30 32 28 21 25 41 50 49 22 26 48 57 47 35 30 32 28 18 19 32 40 40 41 40 41 42 43 43 42 42 40 35
19 24 27 22 19 20 24 21 21 23 34 36 32 32 27 22 25 47 71 99 50 26 34 42 53 42 38 47 40 34 29 20 19 21 26 29 30 30 30 29 28 26 24 24
21 26 29 28 21 18 16 18 18 21 23 33 35 33 30 25 26 38 51 67 100 69 39 34 35 43 47 50 38 39 37 32 32 29 25 25 29 31 26 23 22 23 26 26
16 21 24 24 18 18 18 16 14 17 23 22 27 31 28 28 30 33 42 58 88 98 40 25 27 35 39 45 51 48 43 38 39 47 56 50 39 34 31 30 27 29 26 28

GFSCGP_250_rhum_036.txt.gz
RH
11 9 14 16 14 12 10 11 12 11 11 13 9 14 14 18 13 13 70 88 76 71 59 29 20 16 25 16 10 27 22 20 23 24 26 27 31 39 41 49 50 66 80 64
10 16 20 14 13 13 12 13 13 12 13 16 14 14 14 13 11 11 53 100 90 95 72 38 14 20 24 20 10 20 18 20 23 21 28 32 31 39 49 32 43 64 72 67
11 22 13 9 10 13 14 16 15 14 12 16 12 12 13 14 11 10 51 83 81 100 100 55 12 11 23 20 10 18 16 20 25 24 29 33 25 38 62 45 96 73 51 62
14 17 12 12 12 15 16 20 16 14 11 13 13 11 12 14 11 11 80 100 97 85 68 64 42 31 22 18 11 15 18 19 22 26 31 34 22 23 35 50 76 97 94 48
18 19 17 17 19 18 20 18 17 15 12 12 13 12 13 13 14 14 16 100 100 100 68 79 91 50 20 26 12 12 23 18 22 22 23 24 21 21 22 23 21 61 76 97
19 19 15 18 17 16 19 16 16 14 12 10 13 13 13 15 18 14 14 16 38 35 52 39 70 63 13 28 21 12 18 18 20 22 24 25 22 20 21 22 21 21 24 25
20 17 16 15 16 16 17 16 15 13 11 14 19 15 21 21 18 14 14 16 19 18 16 22 79 66 22 23 31 15 13 20 19 21 23 22 22 20 20 20 20 20 20 20
20 32 26 17 17 19 19 16 17 18 16 23 25 14 21 20 19 16 16 16 16 18 16 30 100 72 57 19 30 27 15 21 23 20 24 22 21 19 18 19 20 21 20 19
15 20 29 28 29 27 32 20 22 19 17 20 16 19 16 16 15 15 17 19 14 17 16 16 19 58 81 33 17 35 26 15 26 22 20 24 23 20 18 18 19 18 17 15
14 17 21 26 28 26 33 35 28 23 21 19 20 22 24 16 18 20 21 11 12 15 15 22 26 27 60 20 21 20 30 16 20 22 19 23 28 25 18 18 18 16 14 14
13 17 21 24 21 25 25 25 24 24 26 26 25 23 22 12 15 22 18 9 11 25 21 19 29 30 20 14 13 30 36 20 16 26 20 21 31 31 19 16 15 22 26 25
12 15 21 23 39 30 26 27 31 32 34 30 26 26 20 15 26 28 13 8 9 14 17 18 25 31 29 20 11 25 37 26 14 24 26 22 24 33 19 15 22 27 30 30
12 13 23 25 28 28 30 27 26 30 31 30 30 27 22 23 30 23 16 9 9 10 10 14 28 34 41 31 14 9 20 32 17 18 31 25 26 33 21 18 23 29 30 26
10 12 19 20 26 34 28 31 36 29 29 31 28 24 19 28 28 22 18 12 9 10 10 10 26 44 44 40 20 10 10 24 21 20 27 38 27 32 27 20 31 38 31 32
11 12 18 18 22 26 32 28 30 32 38 34 35 31 28 26 24 22 16 13 10 9 9 9 10 39 41 46 33 15 10 11 19 20 24 37 33 32 35 32 38 49 39 38
13 12 18 22 22 25 36 36 27 31 50 46 40 35 31 26 26 22 16 13 11 10 11 12 9 16 46 52 47 26 12 12 14 20 24 27 45 33 44 38 40 60 46 43
15 15 18 22 22 23 35 39 36 43 48 43 39 33 32 28 24 20 16 12 11 10 10 12 12 12 42 54 52 40 21 12 12 14 21 24 38 48 48 48 70 68 56 52
14 17 19 21 24 24 27 32 39 47 50 46 41 34 30 27 24 19 15 13 12 10 10 11 11 13 24 36 51 51 40 26 14 13 16 24 36 48 58 68 74 54 48 26
14 19 22 21 25 27 23 30 43 45 47 48 43 36 30 27 25 20 16 15 14 12 12 14 12 12 15 33 52 54 53 48 29 15 14 23 27 40 49 49 39 42 41 21
15 19 26 20 20 25 22 30 37 43 49 49 45 42 34 26 23 23 17 17 16 13 12 15 15 13 12 14 31 50 54 52 48 26 18 21 23 28 35 33 37 42 41 30
17 22 28 22 23 24 24 27 29 40 44 48 51 43 36 24 22 22 21 21 18 15 13 14 18 18 17 12 22 42 72 93 77 50 25 19 21 22 25 32 39 43 41 34
17 26 23 22 25 28 30 29 34 26 36 41 48 44 34 28 26 24 23 22 21 18 18 16 17 19 18 15 13 28 57 97 88 95 75 43 25 20 20 20 28 30 24 18
18 26 25 26 25 26 27 37 21 23 36 34 42 43 35 26 30 29 29 28 26 28 27 27 21 21 26 25 18 18 27 40 53 69 56 49 47 42 30 24 23 21 24 26
17 23 26 27 24 29 23 28 17 20 29 40 40 38 35 27 28 32 38 35 32 29 32 38 40 26 23 27 25 22 18 20 32 40 44 44 46 45 44 43 40 37 39 41
17 23 25 27 27 31 25 23 39 23 23 36 44 45 36 24 26 31 39 48 59 35 29 35 48 59 45 34 29 28 28 32 32 26 27 33 38 39 41 41 40 39 41 42
15 24 24 28 29 25 29 32 29 36 18 30 44 48 49 33 28 30 36 51 71 73 31 28 32 45 56 57 46 33 29 30 33 35 31 28 22 20 24 28 31 33 33 34

GFSCGP_250_rhum_039.txt.gz
RH
9 9 10 11 10 10 11 11 10 10 12 13 11 11 11 13 31 20 12 22 42 65 43 51 15 16 23 10 15 30 23 19 20 18 25 39 46 44 41 60 54 56 52 61
8 10 15 9 9 10 10 11 12 9 11 14 14 15 11 11 11 13 13 15 77 79 41 61 23 10 28 12 13 24 20 19 20 17 23 32 44 46 50 58 73 91 70 80
9 12 11 9 9 9 9 14 13 10 10 12 12 14 13 10 11 15 11 14 30 85 69 65 41 12 20 15 11 20 19 18 19 18 26 31 36 43 43 50 62 82 76 81
8 15 9 9 9 10 10 18 15 10 8 12 11 15 18 12 15 42 29 14 74 64 83 76 53 28 23 22 11 14 20 19 19 19 26 29 33 37 50 42 86 71 71 100
10 17 11 10 14 13 20 16 14 10 8 9 10 12 14 12 17 13 11 15 77 75 54 70 70 72 35 26 12 10 19 20 22 18 23 25 28 40 60 57 89 77 75 60
19 20 12 14 13 11 19 13 12 8 7 7 10 12 13 18 21 12 12 14 99 80 84 97 86 74 50 27 17 11 12 18 20 21 26 30 24 29 35 40 34 88 98 92
21 24 18 16 11 9 11 10 9 7 6 10 14 13 19 24 23 14 12 13 13 58 86 62 16 27 60 33 22 13 10 19 18 20 22 25 20 20 21 21 20 20 28 49
16 23 23 17 13 15 15 13 12 12 10 15 14 13 20 23 18 16 11 11 14 16 18 17 17 17 31 44 28 18 13 13 22 21 21 21 20 21 21 21 21 21 21 20
11 20 24 23 20 21 17 14 16 15 13 15 12 13 20 15 16 14 12 10 13 17 19 18 17 23 84 48 31 24 18 13 17 24 21 21 20 21 20 21 21 21 22 20
9 17 22 29 26 19 24 24 19 15 14 15 12 13 23 18 18 15 14 14 14 15 19 18 16 18 43 87 78 37 26 21 14 15 24 20 21 21 21 19 21 20 19 18
8 12 21 26 24 25 18 20 19 17 16 16 16 16 24 17 17 16 16 16 15 19 20 18 14 16 19 34 68 48 31 25 22 15 16 28 21 23 23 20 20 20 18 16
7 10 16 19 25 29 22 19 27 23 18 15 16 17 28 18 14 16 18 21 18 22 22 16 10 12 19 24 59 36 21 21 27 18 14 20 24 21 26 24 19 19 18 18
8 9 14 18 24 24 23 19 23 30 29 26 28 32 19 18 16 17 18 23 22 24 21 10 10 13 22 24 27 22 13 20 22 25 17 15 28 20 24 31 23 19 17 27
9 8 13 12 19 18 23 24 28 33 27 34 36 32 29 24 21 19 18 18 28 27 20 9 11 16 23 28 32 31 19 14 27 32 23 14 25 27 21 25 30 18 17 24
9 10 13 12 16 19 24 29 27 32 44 34 58 40 37 32 26 23 19 20 26 30 21 10 9 12 19 27 38 41 33 17 14 31 36 19 15 28 28 24 30 26 18 21
9 11 15 14 16 20 27 37 30 29 48 48 68 52 46 32 31 26 22 22 34 31 21 12 9 9 9 14 33 44 40 36 13 10 27 29 19 18 31 30 27 36 24 22
10 12 19 16 17 21 25 28 29 35 46 60 60 59 43 38 30 26 26 23 31 30 22 18 10 9 9 10 24 43 46 45 28 12 12 21 26 21 21 32 37 33 36 36
10 15 23 20 20 20 19 25 33 30 46 65 65 48 40 37 34 33 29 28 29 23 21 17 12 9 9 9 11 28 48 50 45 23 12 11 16 21 26 27 40 36 46 49
12 18 26 23 22 20 20 22 30 30 41 65 69 54 45 39 37 36 33 31 27 26 21 15 12 10 10 11 11 17 42 53 52 44 28 15 14 16 21 26 38 52 49 51
14 21 26 24 20 18 20 20 24 33 44 68 68 57 53 45 37 39 36 32 28 25 18 15 13 11 10 11 11 12 30 53 55 53 46 37 16 14 16 22 25 49 70 67
17 23 25 26 24 21 20 21 21 30 42 62 66 59 50 49 44 43 40 36 30 22 17 16 14 13 13 12 12 13 19 42 55 55 54 50 45 21 16 16 23 30 58 65
18 23 23 25 26 24 20 22 22 22 38 59 60 56 49 46 49 47 42 33 28 23 16 14 14 15 14 14 12 12 13 20 39 54 55 54 50 44 20 16 20 27 32 41
19 23 21 23 26 25 25 23 23 20 31 53 58 57 49 45 50 56 59 32 29 26 19 17 17 16 19 17 16 14 14 15 19 37 51 54 54 53 45 22 20 24 29 33
19 23 22 23 25 25 26 25 25 22 25 41 58 55 48 44 50 61 73 37 32 32 25 20 20 20 19 19 19 18 17 23 36 44 56 69 91 93 70 55 35 25 23 24
19 22 21 23 27 26 26 30 24 22 26 40 58 55 51 44 45 49 70 86 58 34 31 25 24 24 24 23 23 23 19 16 17 24 38 61 89 100 100 100 63 47 44 39
20 24 25 24 25 32 29 29 26 24 28 36 50 55 50 43 43 45 52 88 100 80 37 33 29 28 26 27 26 25 27 24 23 18 18 22 34 45 52 54 46 47 47 47

GFSCGP_250_rhum_042.txt.gz
RH
10 9 11 13 11 10 12 12 10 9 10 9 8 9 8 7 11 23 42 38 33 20 50 48 34 18 16 10 14 32 29 19 20 16 26 52 36 43 46 40 35 34 32 32
10 14 16 10 10 11 11 12 13 12 12 11 10 8 9 8 9 14 29 25 13 25 67 55 51 18 23 11 12 29 22 20 22 20 28 48 37 36 56 61 39 48 63 41
8 17 14 8 9 10 11 11 12 11 12 12 11 10 10 8 13 16 14 12 12 17 59 67 51 15 25 17 9 21 21 20 23 20 24 42 43 40 64 72 78 64 64 65
8 14 13 8 8 10 10 15 11 10 10 12 12 12 10 10 11 10 12 14 16 15 54 67 63 40 24 25 10 12 20 20 23 20 24 33 41 45 53 59 63 64 58 71
11 14 12 10 12 9 12 13 11 8 8 11 11 12 12 10 17 12 11 13 36 26 45 80 67 52 48 38 21 10 16 18 21 22 26 24 32 38 35 33 43 64 52 70
14 16 14 10 11 8 12 11 10 8 6 7 12 12 14 13 12 9 10 11 18 24 63 54 63 73 74 35 29 13 11 16 20 22 22 27 30 32 40 29 75 68 70 63
15 16 19 14 10 10 11 10 8 7 5 10 12 14 20 21 12 10 10 10 11 18 55 57 80 89 48 60 32 22 13 14 18 22 20 22 25 30 41 52 51 47 73 73
9 15 23 20 14 11 11 11 8 8 8 13 12 13 33 33 19 11 11 11 11 22 60 82 83 42 28 32 45 32 18 10 18 20 22 26 26 23 26 23 22 20 22 32
8 10 18 24 19 13 11 9 9 8 10 13 10 12 30 34 16 11 11 11 12 15 16 28 39 16 17 17 40 47 32 14 12 20 23 23 23 23 20 20 22 21 21 21
6 8 16 17 22 19 11 11 9 7 8 10 9 12 26 33 22 18 13 13 12 12 13 14 17 18 17 18 81 50 32 27 15 14 21 23 23 24 25 21 21 22 21 22
5 6 10 12 16 24 17 11 11 9 9 12 12 15 25 36 26 18 17 14 12 12 12 16 17 17 18 18 32 78 67 42 23 14 15 23 23 26 26 23 22 21 20 22
6 5 8 8 16 24 20 14 14 13 11 10 9 17 21 36 27 20 15 14 14 15 14 15 19 19 20 19 14 19 47 60 42 29 17 14 23 26 25 23 21 20 20 21
5 7 8 8 13 17 17 13 16 16 15 14 16 33 24 41 27 25 18 16 16 16 15 13 16 22 23 18 13 16 26 67 49 38 25 18 17 28 28 25 24 22 20 21
5 8 9 8 10 12 12 16 16 16 15 16 17 84 27 32 25 22 18 17 17 16 16 17 19 24 21 13 11 14 21 48 33 32 36 31 19 17 27 28 23 26 22 20
3 6 10 11 8 8 12 18 17 16 19 20 28 97 40 36 29 25 20 20 18 16 16 16 18 20 21 12 11 14 24 26 29 16 18 31 29 20 16 29 26 22 30 26
2 6 9 12 8 9 13 17 19 21 26 24 42 78 33 35 31 31 25 20 20 18 18 19 19 22 24 14 10 14 22 34 35 32 18 15 34 36 18 15 27 27 24 32
2 6 9 14 12 12 13 15 21 23 26 26 62 76 40 39 29 26 30 34 36 24 22 21 19 20 26 20 9 10 16 25 35 38 36 25 14 32 40 22 16 32 31 25
2 4 11 14 12 11 11 14 20 24 25 30 68 63 32 44 39 30 30 38 33 31 27 24 20 20 27 21 10 9 9 17 27 34 43 40 26 11 14 32 22 17 34 33
2 4 13 12 12 12 13 14 17 25 28 33 60 47 40 47 51 47 41 39 39 34 33 29 24 24 31 21 13 10 10 10 16 36 48 48 43 23 11 13 21 21 20 35
4 8 16 11 13 14 13 13 15 21 28 40 56 43 47 51 52 55 54 51 48 42 38 32 26 28 30 23 19 11 10 10 13 29 46 51 48 46 21 12 12 16 21 30
5 10 16 15 14 15 15 14 16 21 27 45 57 35 40 48 48 46 55 58 56 49 44 37 30 30 26 23 17 12 10 10 10 11 27 47 50 52 44 29 16 14 16 20
7 12 16 15 16 19 19 17 17 18 25 47 59 35 36 45 47 47 52 50 53 51 45 39 34 26 26 23 15 13 12 10 10 11 15 34 51 55 53 49 43 26 16 17
9 14 15 15 17 19 19 21 19 18 25 51 56 42 40 39 44 52 57 53 58 56 49 40 32 26 28 22 15 14 12 11 11 12 12 15 38 53 56 54 53 47 35 18
10 15 16 16 19 21 20 21 20 21 26 44 54 46 44 44 46 55 70 68 59 56 48 41 34 31 28 20 16 15 15 13 12 12 13 14 18 28 50 57 56 55 49 30
10 17 18 18 22 25 24 24 23 24 25 36 47 41 45 54 54 57 68 71 73 66 51 39 34 31 28 22 18 18 17 16 16 15 13 13 14 17 25 46 53 52 52 52
16 22 31 27 27 29 30 29 27 26 27 34 42 40 46 55 56 57 62 72 96 93 100 90 42 35 30 25 22 20 20 20 22 21 18 16 17 16 16 20 37 51 59 76

GFSCGP_250_rhum_045.txt.gz
RH
16 21 24 13 11 10 12 15 10 10 9 10 10 9 8 8 8 8 15 52 36 23 23 55 53 22 14 10 12 20 16 17 18 69 38 27 41 29 29 29 29 26 28 31
12 22 23 14 14 11 10 12 14 11 10 10 10 9 10 9 8 14 41 57 62 23 29 52 50 24 16 12 10 20 17 16 17 22 59 31 39 44 33 33 35 46 33 38
11 20 20 15 15 12 10 10 12 12 10 11 9 11 12 10 9 10 15 23 33 14 23 56 44 23 14 18 12 13 17 16 17 15 36 43 31 46 46 41 40 64 55 55
10 14 14 15 14 14 13 11 10 10 10 11 10 12 12 11 10 8 12 18 15 13 15 58 44 35 22 27 16 13 16 17 17 17 34 46 37 35 59 56 70 67 50 56
11 14 14 11 15 12 16 14 10 9 9 10 10 11 13 12 14 10 12 13 12 11 12 34 55 52 29 41 29 15 16 16 17 15 25 41 37 39 53 57 63 74 54 57
9 17 14 12 12 10 17 11 9 7 8 7 10 12 12 13 14 10 10 11 14 26 13 33 66 54 62 52 36 19 12 15 17 15 16 29 40 39 44 46 47 67 51 55
6 11 16 16 12 9 11 12 8 6 6 10 11 12 17 14 12 12 11 10 10 19 12 26 47 56 67 69 48 32 17 15 17 16 14 21 27 33 34 33 46 74 69 68
7 8 13 16 18 11 10 10 8 6 7 11 10 11 24 17 12 12 12 11 11 22 15 39 48 61 82 45 45 44 28 11 14 17 17 15 21 29 33 48 51 51 35 45
8 8 9 13 16 15 12 9 8 7 7 9 10 12 37 27 13 12 12 12 13 15 14 23 37 72 91 30 26 27 42 31 15 16 20 19 19 24 27 34 38 29 21 30
8 9 8 8 12 20 17 14 8 6 7 7 8 10 35 28 20 12 12 13 14 13 15 23 44 47 81 35 17 17 45 52 30 14 16 20 22 26 27 22 21 22 22 21
8 8 9 6 8 17 20 11 8 6 8 9 9 11 34 43 29 21 12 14 13 13 14 19 52 19 60 26 16 18 47 70 36 22 14 18 21 22 24 24 23 22 22 21
6 8 9 7 6 12 15 13 8 7 8 9 8 9 21 57 30 24 17 13 12 12 13 12 12 14 18 17 16 17 32 65 46 35 24 14 19 22 23 24 25 25 23 23
5 5 7 8 6 7 11 13 9 9 9 9 8 10 21 35 49 24 14 14 13 13 13 13 13 14 15 19 20 19 18 19 48 57 57 24 15 21 23 23 25 25 24 23
3 4 6 8 7 6 7 8 7 7 7 9 8 13 17 26 72 48 10 14 14 14 14 13 15 17 17 20 22 22 18 16 20 32 54 57 27 18 15 24 26 27 25 26
2 2 4 6 7 5 6 8 8 4 8 8 11 14 24 26 48 30 15 11 11 13 15 15 18 23 23 22 22 23 19 13 16 30 58 54 45 33 23 18 26 30 28 29
2 2 3 6 7 5 5 8 8 5 10 10 13 16 43 19 22 25 19 13 13 15 16 18 22 21 21 21 21 21 18 14 11 23 32 38 25 26 34 34 21 18 24 30
2 2 2 5 6 5 6 7 6 7 10 15 17 38 64 26 19 18 21 17 17 18 19 22 20 20 20 19 20 22 21 17 11 12 22 28 30 20 18 33 39 29 19 23
2 1 2 3 6 4 6 8 8 10 10 17 21 51 69 24 19 18 21 18 19 22 22 22 20 22 22 20 19 18 23 22 12 10 14 23 29 34 25 19 37 43 30 18
2 1 2 2 4 7 7 9 7 11 13 22 30 66 71 31 30 21 20 24 24 26 24 25 23 25 24 22 22 20 22 26 17 10 12 20 27 30 35 40 29 14 36 37
2 2 2 2 4 7 7 8 9 11 17 27 37 61 48 37 29 24 25 40 35 42 30 24 28 27 26 26 25 22 25 27 19 10 10 12 19 28 38 34 39 33 12 15
2 2 2 2 5 6 7 10 11 12 17 28 44 56 45 40 37 37 36 48 54 44 32 34 38 32 30 30 28 27 27 30 22 13 10 10 11 17 26 36 42 45 31 14
3 3 3 3 7 8 10 13 12 12 18 28 50 52 36 43 42 47 41 58 54 44 42 44 41 40 34 33 32 29 27 31 25 20 15 10 10 13 23 42 49 50 50 36
5 3 3 5 10 10 12 14 13 13 18 29 45 51 35 42 42 51 53 54 54 53 63 57 51 47 43 40 35 33 29 28 24 22 16 12 11 11 12 31 46 52 52 52
5 6 7 7 10 7 13 15 14 15 20 28 39 44 38 45 47 51 68 57 56 68 66 59 58 56 52 43 38 35 30 24 26 23 15 12 12 11 12 14 29 48 52 52
8 6 6 7 9 16 20 18 17 17 22 30 36 40 41 46 49 48 66 64 59 62 67 61 60 60 52 46 42 38 30 26 26 24 15 13 11 10 10 12 12 22 40 54
9 9 6 6 12 17 16 20 20 20 24 31 34 37 42 49 52 63 65 70 70 73 69 68 63 55 46 43 43 39 30 28 28 22 16 14 14 13 12 11 12 13 18 29

GFSCGP_250_rhum_048.txt.gz
RH
22 25 28 16 13 13 14 12 11 12 10 8 7 7 7 7 7 7 8 10 8 13 20 20 47 36 11 12 11 22 14 15 42 31 29 31 20 22 24 25 28 33 34 39
17 25 20 17 17 17 14 13 12 11 11 11 10 10 10 8 8 9 9 8 14 24 22 34 46 22 14 11 14 20 16 15 37 42 27 35 25 23 27 30 31 32 40 42
14 16 17 17 16 15 15 15 12 9 10 12 12 11 11 10 10 9 8 10 16 15 12 36 41 22 13 13 11 18 17 15 16 56 39 23 30 26 30 33 49 51 56 51
16 16 14 17 12 16 16 17 13 10 9 10 10 12 11 10 10 10 9 11 16 14 11 20 37 26 18 18 12 18 18 16 16 16 54 34 34 35 34 34 53 65 63 59
11 18 19 12 13 13 16 14 11 10 10 7 10 13 12 12 12 11 9 10 18 11 11 13 38 36 29 32 19 14 19 17 18 16 27 42 24 29 39 38 50 60 53 60
7 10 15 21 11 10 13 13 11 9 8 6 9 12 13 13 14 11 10 10 15 10 10 13 36 43 41 38 31 14 15 17 18 17 18 38 30 29 40 44 44 39 49 61
8 9 8 12 18 10 10 10 11 8 7 11 10 10 15 15 14 12 10 10 8 10 11 12 15 49 36 36 41 24 16 18 17 18 15 24 35 31 37 40 33 28 42 53
12 10 8 6 11 14 10 8 8 8 9 18 9 10 12 16 15 14 12 11 9 11 17 18 33 51 37 47 50 42 29 14 17 16 17 16 25 32 30 32 30 36 47 50
11 10 10 10 8 10 15 9 10 7 9 14 7 11 12 13 14 15 13 12 12 13 16 21 26 29 30 44 42 44 41 27 15 17 19 18 17 22 26 27 34 45 42 26
10 10 9 9 11 9 9 17 8 5 6 9 9 11 11 11 12 13 15 13 13 14 14 18 30 30 20 30 31 30 29 45 31 17 19 20 20 21 25 31 39 49 43 20
8 8 8 9 9 10 8 9 8 5 5 10 14 11 12 12 11 11 14 14 14 14 16 15 14 17 15 19 33 16 15 36 63 33 21 21 22 22 28 26 25 27 24 22
7 6 7 8 8 9 9 8 7 6 6 7 11 11 12 22 11 10 10 14 15 13 14 14 12 12 19 26 44 34 14 22 62 67 27 21 20 21 26 31 27 23 22 23
5 5 6 6 6 7 8 8 7 6 8 7 8 12 11 24 13 11 10 12 14 13 12 12 12 14 21 18 28 51 17 15 36 59 42 30 19 22 22 24 26 25 26 23
3 3 5 6 5 4 6 7 7 4 4 7 8 11 11 32 15 12 11 11 11 12 13 12 13 13 16 26 24 26 17 17 22 53 70 67 46 25 19 22 25 25 26 28
2 3 3 5 5 4 6 7 7 4 5 8 8 7 12 27 28 11 14 9 9 10 11 13 14 15 16 18 18 19 18 18 19 16 24 44 40 54 44 19 25 26 26 26
2 2 2 3 4 3 5 7 7 6 4 6 9 8 12 33 42 20 10 10 9 9 9 12 15 15 16 18 20 20 21 20 20 18 15 14 18 54 75 56 29 21 19 25
2 2 2 3 3 3 3 5 6 6 4 6 8 8 12 25 40 32 13 9 9 9 9 13 16 19 20 21 20 21 19 17 18 18 16 14 16 35 53 48 44 30 33 30
2 2 2 2 2 2 3 5 6 6 5 7 10 9 12 20 35 28 15 12 9 10 11 15 19 20 22 23 24 20 18 18 18 19 18 15 12 16 29 33 23 28 35 36
2 1 2 2 2 2 4 4 8 7 5 7 9 10 14 28 17 23 21 14 8 11 12 14 20 25 20 20 23 23 21 19 19 20 22 19 11 11 21 29 29 27 20 17
1 2 2 2 2 2 3 4 6 7 5 5 11 14 13 60 16 22 20 22 11 11 13 15 22 23 22 21 23 22 22 22 21 20 23 22 18 11 16 26 31 27 32 34
2 2 2 2 2 2 3 4 6 8 6 6 13 14 44 84 33 15 25 28 16 12 15 19 22 23 24 19 19 21 22 23 22 20 21 23 24 13 10 11 15 24 25 33
2 2 2 2 2 2 3 3 6 7 9 8 12 19 52 53 56 19 23 33 22 14 16 20 21 20 19 22 25 24 21 22 23 24 23 22 24 18 11 10 11 12 17 27
3 3 3 3 2 2 2 3 7 10 10 8 13 33 54 53 50 30 28 30 40 34 21 25 20 17 20 24 24 23 19 21 24 27 25 24 24 22 16 12 10 11 16 24
6 5 5 4 3 3 4 5 11 13 11 10 16 40 48 46 34 47 40 42 33 36 33 25 19 21 28 25 26 27 30 28 32 32 29 24 24 26 23 20 14 11 11 12
12 10 8 6 5 5 5 7 12 13 12 13 21 37 46 38 34 56 56 55 54 61 55 33 26 30 38 38 34 36 38 36 38 35 32 27 24 26 24 22 15 12 11 12
25 22 22 10 14 9 10 12 17 16 15 16 24 35 42 37 38 54 54 57 62 53 57 52 42 38 41 45 42 44 46 42 45 37 36 76 42 26 26 23 15 15 16 10

GFSCGP_250_rhum_051.txt.gz
RH
22 21 30 20 19 14 18 15 12 11 9 8 8 10 100 100 29 15 14 13 11 9 8 9 27 46 17 11 12 14 17 35 56 26 29 21 22 19 22 31 35 33 27 63
26 30 28 20 19 21 26 20 14 11 10 11 8 12 10 12 9 9 9 8 8 7 9 12 28 54 12 11 14 21 16 18 57 27 34 21 21 21 22 26 34 45 41 52
17 28 21 19 20 20 25 24 20 11 10 11 12 11 12 10 10 8 7 7 7 9 8 16 33 42 13 11 16 20 18 16 42 28 31 31 23 24 28 34 34 52 44 57
18 15 17 20 21 18 20 24 24 12 11 10 9 12 12 12 16 10 8 7 8 8 12 17 39 18 11 12 14 18 20 16 26 40 29 39 28 26 30 38 47 46 46 42
16 20 19 15 17 17 18 17 21 19 11 9 8 10 14 14 20 16 10 8 8 10 14 26 34 25 15 13 11 14 21 16 18 61 51 26 32 29 32 33 48 42 50 51
10 11 15 20 15 13 16 12 13 18 12 6 9 10 12 13 15 25 10 8 8 10 11 12 28 30 29 25 12 12 23 18 18 17 50 45 29 34 37 42 43 47 35 47
10 8 9 13 17 16 12 11 12 12 10 11 13 10 12 13 14 13 11 10 10 12 9 12 31 32 33 34 19 10 16 21 18 19 17 39 35 31 31 43 46 36 41 43
13 10 9 8 11 14 16 12 9 10 12 22 17 10 12 13 14 16 69 10 10 16 10 10 20 42 42 38 33 17 11 19 18 18 17 29 42 33 31 42 44 34 34 38
15 13 12 10 10 10 12 13 13 9 10 15 9 14 13 11 13 13 16 12 12 18 14 10 12 24 38 37 37 30 21 13 17 17 18 19 39 44 38 39 40 36 31 40
17 16 13 12 12 12 9 13 12 8 6 8 9 16 14 9 13 13 11 11 12 16 12 10 15 15 33 35 33 40 34 31 13 16 19 20 19 31 40 42 43 35 43 46
19 17 14 12 13 15 14 9 10 9 6 5 9 14 17 10 10 13 12 11 13 14 12 11 15 11 23 41 43 38 34 28 33 15 18 20 22 22 30 33 38 46 56 56
15 14 14 12 12 14 13 11 10 7 8 6 11 12 20 12 10 13 14 12 13 12 12 11 12 11 14 37 35 34 20 13 23 35 19 19 20 23 26 26 30 31 36 42
12 13 13 12 12 12 13 12 14 11 8 8 9 10 20 13 9 10 13 13 13 13 12 11 10 10 18 21 26 47 37 17 12 15 35 25 19 23 25 23 27 32 29 25
12 11 11 12 11 9 10 10 10 12 6 5 7 9 14 14 15 12 10 10 14 13 13 12 11 11 12 16 24 44 64 41 24 16 24 46 32 21 19 22 25 27 28 28
8 9 10 11 8 8 9 9 10 10 11 6 6 9 12 11 13 16 10 11 13 13 12 13 12 11 12 11 13 19 38 71 48 18 26 55 40 33 27 19 24 25 26 26
8 6 4 6 7 6 6 7 8 9 10 8 7 6 9 7 13 17 8 8 9 13 12 12 14 13 12 12 12 12 16 32 50 17 17 19 52 61 58 49 33 24 27 26
6 6 4 4 4 4 4 6 7 7 8 9 7 6 13 10 15 22 13 9 9 10 11 11 12 12 14 14 14 18 22 20 22 17 17 15 16 17 28 36 58 58 38 34
3 4 4 4 4 2 2 4 5 6 6 7 7 7 9 10 13 24 19 6 8 8 11 14 15 15 15 16 15 16 17 20 16 16 17 17 16 17 14 14 25 59 61 53
2 2 3 2 2 2 2 2 4 4 5 5 6 7 7 11 11 21 24 7 8 14 11 11 13 14 16 15 17 17 17 17 16 17 17 18 18 18 17 14 15 25 38 36
2 2 2 2 2 2 2 2 2 3 3 6 7 8 10 11 9 18 24 9 7 8 9 10 12 12 14 17 18 18 18 17 17 18 18 17 17 18 20 16 12 13 20 30
2 2 2 2 2 2 2 1 1 2 5 5 6 8 10 10 10 18 25 13 8 8 10 12 15 14 17 19 20 20 18 19 18 16 16 16 19 19 21 20 15 11 16 25
3 2 2 2 2 2 2 1 1 2 6 5 5 7 10 7 10 12 23 23 9 9 9 11 13 15 17 21 19 18 18 20 18 18 17 18 18 18 20 21 21 16 10 17
4 3 3 2 2 2 2 2 2 2 5 5 6 8 11 7 10 28 47 25 15 10 10 13 16 23 26 26 18 16 17 16 17 20 21 23 19 20 21 20 24 22 15 10
10 6 4 3 3 2 2 2 2 3 4 6 6 8 8 6 13 36 44 28 17 12 10 11 14 20 22 23 17 16 16 17 18 20 21 24 21 23 23 21 20 22 22 15
22 17 6 4 4 3 2 2 2 4 6 5 8 9 10 10 16 40 59 35 19 17 12 11 16 22 34 24 16 16 18 21 19 20 22 24 22 24 26 24 22 22 24 24
40 34 23 7 6 5 4 4 4 5 8 8 10 11 13 16 21 44 61 51 26 18 13 10 16 29 30 23 17 19 22 21 19 20 21 22 26 24 27 29 25 22 25 24

GFSCGP_250_rhum_054.txt.gz
RH
21 20 22 20 17 19 21 14 11 10 9 12 14 16 15 16 57 100 100 100 93 16 14 13 9 9 29 31 8 12 14 33 24 24 21 22 23 34 28 24 33 55 88 100
15 17 18 18 18 17 23 23 14 11 9 9 9 13 14 42 94 95 100 89 61 13 13 11 8 10 38 23 8 13 15 36 26 22 19 20 20 26 35 49 36 42 38 52
24 28 17 15 15 15 23 26 20 12 11 10 8 7 9 93 82 77 70 57 11 6 8 7 8 14 39 12 8 16 17 21 44 22 19 20 21 24 28 45 45 53 40 44
16 26 26 18 17 16 20 27 22 15 12 11 8 6 7 9 10 100 98 94 17 7 6 7 10 23 32 12 8 16 17 15 31 27 29 20 21 23 32 35 46 39 42 54
20 18 16 21 24 23 22 20 20 15 12 12 10 9 10 7 27 100 100 93 8 7 7 9 15 35 18 12 8 11 18 14 18 38 30 33 22 26 34 48 52 50 47 81
14 18 20 18 16 19 25 20 18 20 14 9 11 11 10 9 22 100 100 100 49 7 9 11 21 42 27 12 11 9 15 15 15 49 30 31 33 25 30 36 60 59 53 51
11 11 13 18 21 18 16 20 21 17 11 12 12 9 11 11 13 85 100 100 92 8 10 10 27 39 44 20 21 9 11 14 15 31 48 30 32 30 32 37 39 57 48 55
13 13 10 11 14 19 18 16 14 17 20 22 11 8 14 11 9 38 100 99 57 8 11 16 18 28 42 32 35 25 10 13 15 15 26 51 37 33 36 41 45 50 41 49
13 13 10 11 10 11 15 15 17 12 15 15 8 8 14 9 9 8 56 77 98 57 14 10 10 24 30 34 36 29 12 13 14 15 15 17 48 38 35 34 45 47 37 45
15 15 13 13 13 11 10 12 13 10 9 12 9 6 11 9 9 9 8 14 99 100 76 16 8 11 31 34 40 39 30 12 13 16 16 15 33 38 34 39 52 47 45 37
17 14 15 12 12 14 16 11 10 12 13 10 11 6 13 12 10 8 8 90 93 98 87 89 76 8 9 25 36 41 39 28 14 14 16 16 17 31 44 46 46 45 46 41
19 14 17 12 14 14 15 13 10 9 9 10 9 9 15 11 11 9 16 99 68 12 98 100 98 80 8 11 27 36 50 36 35 25 12 16 18 17 22 31 36 39 44 47
23 19 21 19 14 15 17 15 13 11 9 8 10 10 14 13 12 10 11 100 82 46 100 100 100 100 33 9 16 23 49 41 35 29 32 16 14 20 21 22 26 26 28 32
28 21 16 20 19 10 13 14 12 11 9 7 8 9 16 11 10 10 8 23 70 23 71 100 88 90 45 10 13 12 26 38 34 21 24 34 25 16 15 18 21 21 21 25
17 16 16 19 20 11 12 15 13 10 10 8 8 9 13 9 5 6 9 8 9 8 36 95 82 100 100 31 10 10 13 30 37 24 22 25 40 46 33 19 18 20 22 24
17 19 13 16 18 12 12 13 13 11 10 10 8 6 9 10 5 6 9 9 8 8 6 33 72 24 46 10 9 11 11 15 25 35 30 23 20 58 70 40 26 19 16 20
8 8 11 15 14 13 10 11 13 11 10 10 11 9 10 10 7 6 9 11 8 8 7 6 8 9 12 16 9 10 13 11 11 22 33 29 18 24 62 55 37 36 30 24
8 10 8 8 8 9 9 10 11 12 11 10 10 11 12 7 7 9 10 12 12 9 8 8 8 8 100 78 96 89 10 14 13 14 22 30 20 16 18 40 59 64 54 48
4 6 5 4 4 4 6 8 8 7 8 8 8 9 11 6 6 7 8 12 14 12 10 10 12 12 15 36 100 100 15 12 12 14 16 17 15 15 16 16 17 19 20 23
3 3 4 6 5 3 4 6 5 6 7 8 7 9 10 9 5 7 6 10 16 17 10 11 11 13 15 13 15 13 12 12 13 16 16 13 14 14 14 15 17 17 18 16
4 4 4 4 4 6 6 5 3 3 6 8 6 7 10 10 6 10 8 8 12 19 15 15 11 12 13 13 13 13 13 14 15 13 12 14 13 14 14 15 16 18 19 17
4 4 4 4 3 4 4 4 2 3 3 6 6 7 9 10 10 10 8 5 12 14 9 14 11 11 13 12 12 13 14 18 17 13 13 14 14 13 14 15 16 18 19 20
6 4 4 4 4 3 3 3 2 2 3 4 5 6 7 8 10 8 4 5 11 16 6 10 11 10 11 13 14 13 15 16 16 16 15 14 14 13 14 16 16 18 19 20
13 16 8 4 4 3 2 2 2 2 2 2 4 4 5 7 8 6 5 5 9 18 11 8 12 13 11 19 19 17 17 18 17 17 15 16 16 15 14 17 18 18 18 18
36 33 15 7 4 3 3 3 2 2 2 2 2 2 4 6 6 7 6 6 8 21 15 9 11 12 13 12 18 23 17 18 18 17 17 18 18 19 18 19 20 19 19 20
58 47 33 14 6 5 4 3 3 3 2 2 2 2 4 5 6 8 7 7 8 23 17 7 7 11 12 13 19 30 21 18 18 18 19 19 20 24 22 19 19 21 20 20

GFSCGP_250_rhum_057.txt.gz
RH
14 16 22 22 21 18 19 11 11 11 13 16 16 19 26 17 20 96 100 92 94 80 64 55 22 12 11 12 23 10 14 27 19 16 20 20 20 21 28 42 64 95 64 46
14 19 19 22 22 20 19 20 14 11 10 10 12 13 15 17 14 39 100 89 100 66 66 77 33 8 8 14 26 10 12 28 17 15 18 22 30 28 24 36 46 69 63 47
17 21 18 17 20 20 22 22 17 12 10 9 9 10 11 12 13 14 78 99 94 88 98 84 8 8 8 28 24 10 12 26 27 13 17 22 26 35 48 61 42 28 47 63
18 19 18 20 20 22 22 21 20 15 10 10 10 10 8 8 9 13 22 68 100 92 100 57 7 8 8 33 16 10 12 19 43 20 16 21 21 29 39 52 47 45 39 71
18 21 16 16 19 19 22 20 18 15 12 10 10 10 12 6 8 10 100 100 100 100 88 7 7 8 10 28 16 12 11 13 24 40 16 19 21 24 30 39 41 40 50 70
24 23 17 20 19 17 17 15 16 16 13 11 13 12 12 9 9 33 54 100 99 100 100 11 8 9 20 17 12 11 11 12 14 44 24 18 20 24 34 39 40 53 51 89
17 20 23 20 18 20 21 15 14 14 13 22 16 11 13 12 9 18 76 100 100 100 100 24 9 11 22 15 12 14 11 11 12 22 33 26 22 24 30 38 48 48 45 44
12 14 16 20 22 20 16 18 15 15 20 30 13 10 19 11 9 9 30 100 100 96 36 23 8 10 24 15 16 22 18 12 12 12 34 28 34 26 27 32 35 46 44 50
13 13 11 13 16 18 20 14 15 13 17 11 10 10 12 9 8 10 13 68 100 100 57 75 14 13 20 12 20 29 27 13 14 13 18 30 25 32 30 36 46 47 44 43
12 16 16 12 12 12 14 18 14 11 10 12 18 14 15 10 8 10 12 76 98 90 63 82 49 21 21 16 16 29 31 13 14 16 15 24 41 26 30 35 41 52 57 43
15 15 17 15 13 12 12 12 14 15 14 10 15 16 22 11 9 8 11 72 88 65 94 96 95 100 20 22 18 27 32 15 13 16 15 16 18 35 32 28 31 44 55 46
20 16 20 16 15 15 14 11 10 10 12 14 10 22 35 15 7 6 10 36 100 99 100 100 100 100 94 13 17 28 37 34 14 12 15 15 15 15 32 28 26 32 42 40
28 19 20 18 15 16 16 16 12 9 10 10 9 19 22 14 11 6 6 9 37 94 100 100 100 100 73 28 14 9 31 36 30 25 14 16 16 14 15 27 29 28 32 34
27 30 22 23 13 11 12 13 14 7 7 7 7 19 16 11 8 7 5 6 7 41 100 100 100 95 94 95 58 12 15 35 27 33 34 22 17 17 13 12 13 17 21 26
24 29 19 23 14 10 11 12 13 12 8 8 8 13 21 12 9 6 5 6 6 7 92 100 100 84 99 87 46 94 11 27 17 23 29 22 30 24 21 18 15 14 13 14
22 20 21 17 16 12 10 11 12 13 12 10 10 10 21 10 7 6 5 6 7 6 64 93 95 99 100 97 90 100 56 21 10 9 19 19 15 26 30 34 32 25 19 18
9 17 17 20 11 14 9 10 12 15 13 11 10 10 18 8 7 6 5 6 8 8 10 48 98 100 100 100 100 90 93 52 12 7 10 18 15 17 20 32 57 59 37 30
6 6 9 14 10 7 13 11 11 12 15 10 10 11 14 7 8 6 6 7 9 9 8 25 58 77 100 95 93 96 100 100 21 9 9 19 21 17 12 13 20 35 39 39
5 6 5 6 8 8 8 10 10 12 14 14 10 10 13 6 6 8 6 7 9 12 16 46 56 100 100 88 100 100 100 100 69 28 10 11 17 17 16 12 11 12 17 27
5 4 6 6 5 4 10 11 8 6 10 17 10 8 12 7 7 9 5 6 8 10 20 26 37 57 100 96 100 100 100 100 100 100 70 20 10 21 21 14 11 12 13 14
6 5 4 4 5 6 5 6 7 5 8 12 9 9 11 8 8 9 6 5 6 8 21 57 26 29 98 99 51 54 97 100 100 98 97 89 12 18 16 15 14 11 12 13
8 6 5 4 3 4 6 6 3 4 9 10 9 10 10 10 9 10 9 5 6 7 9 19 42 14 22 95 90 73 99 100 96 92 100 89 15 14 12 11 12 12 12 14
18 8 5 4 4 4 3 4 4 3 3 7 8 7 9 9 11 9 9 6 4 6 8 10 9 9 7 9 18 36 100 100 94 90 94 96 20 12 11 11 11 13 12 14
34 18 8 5 4 4 3 3 3 3 3 3 5 6 7 7 9 9 8 7 4 4 7 9 11 9 8 8 8 12 99 100 100 100 100 72 53 20 11 11 12 13 13 14
56 40 27 13 7 4 3 3 3 2 2 3 3 4 4 5 8 11 8 5 4 4 6 8 10 11 9 8 7 17 29 62 68 38 21 16 13 13 11 11 12 12 14 15
65 66 58 32 14 7 4 3 3 3 2 2 2 2 3 4 6 7 7 5 4 3 5 6 11 12 10 10 9 12 18 19 20 13 12 12 12 12 12 11 12 14 14 15

GFSCGP_250_rhum_060.txt.gz
RH
20 21 26 22 25 16 12 11 12 18 20 20 25 20 15 17 16 15 16 20 90 100 100 100 100 80 100 27 16 12 11 25 21 18 17 22 28 30 49 65 58 49 40 25
16 21 19 18 20 24 25 17 12 11 15 18 20 19 22 19 15 13 14 25 100 100 100 100 90 74 100 16 20 15 11 23 22 19 18 18 22 22 42 55 77 52 44 31
12 14 15 15 18 18 22 29 18 10 10 13 16 18 18 19 15 20 18 24 100 98 98 83 71 100 52 9 30 21 11 21 23 20 20 21 27 25 34 48 42 54 55 57
15 13 12 13 15 18 20 32 22 10 9 11 11 12 22 32 19 19 19 27 91 100 95 55 100 93 9 10 32 20 10 16 27 21 19 25 30 38 57 56 41 34 57 64
12 15 15 13 14 16 17 22 25 14 12 12 12 11 10 12 19 17 17 18 100 100 70 54 79 100 8 10 32 15 10 14 33 28 19 23 25 31 42 52 41 46 49 65
14 13 14 17 16 14 15 17 20 19 15 16 19 16 13 11 10 12 15 17 82 83 60 83 100 66 7 8 24 12 9 12 22 31 20 19 21 27 29 43 43 46 62 76
18 15 11 12 14 16 19 18 24 24 28 28 17 20 18 15 11 10 9 11 47 27 52 65 55 29 8 8 14 11 10 10 13 29 30 18 22 22 28 40 51 58 50 77
19 20 19 17 13 11 16 17 20 32 38 33 18 14 28 16 9 8 8 11 32 72 65 72 42 37 10 12 17 12 15 10 14 13 35 27 19 22 27 41 61 58 48 51
13 18 21 20 22 19 17 18 19 20 24 18 18 21 31 16 10 9 10 15 68 88 100 82 35 33 17 14 28 17 18 13 12 15 18 37 24 20 24 30 47 55 58 57
12 14 14 18 22 24 19 17 14 15 18 17 24 29 26 13 11 11 11 11 30 80 100 56 61 67 12 10 25 30 26 16 11 17 14 32 31 31 25 27 33 44 52 57
15 15 15 14 16 18 22 24 21 17 15 18 21 30 22 11 11 11 13 12 14 99 99 69 58 73 17 10 14 28 32 32 12 11 14 21 37 30 36 32 33 42 49 53
16 15 16 16 14 14 15 17 19 20 16 16 26 47 22 13 10 9 11 13 11 52 100 99 82 84 38 14 20 21 29 36 19 10 13 16 19 45 36 31 32 35 39 49
28 22 20 15 13 13 12 12 13 15 18 22 20 29 22 11 9 7 8 14 15 11 79 100 100 93 77 44 16 12 26 37 31 16 12 14 17 18 32 42 37 32 32 30
36 30 26 17 14 12 12 12 12 12 14 16 21 28 16 10 8 8 7 9 13 9 16 100 100 100 86 74 61 72 24 35 34 34 17 13 13 13 14 14 24 36 30 30
31 29 29 26 15 11 11 11 12 11 10 13 15 20 27 12 7 8 7 7 10 12 18 100 100 100 67 62 80 97 83 29 37 30 32 27 22 18 14 14 15 20 31 30
22 22 26 24 20 11 9 10 11 12 10 11 15 15 23 14 11 7 6 6 7 11 31 100 100 100 87 48 71 77 100 68 24 29 24 37 37 30 24 24 19 17 17 17
26 26 20 24 18 15 10 10 10 12 14 11 13 14 17 12 10 10 6 6 6 8 23 96 100 100 96 66 94 87 99 100 100 88 20 10 37 40 23 25 27 27 26 24
11 18 22 17 16 14 18 13 11 12 12 13 12 16 14 18 7 8 8 5 6 7 25 38 84 80 99 100 97 86 82 90 100 100 89 29 12 36 24 11 14 18 24 35
8 7 9 14 15 13 13 9 10 11 12 9 9 14 15 16 8 5 8 6 5 6 24 22 17 46 94 100 99 100 100 100 100 100 100 96 25 24 46 14 10 8 9 13
12 8 6 6 8 9 13 9 8 10 11 12 12 12 12 15 9 6 5 6 5 5 8 12 12 19 41 100 100 100 100 100 100 100 100 100 90 17 43 26 10 12 10 11
14 10 7 5 5 6 6 7 8 7 8 11 13 13 12 12 10 10 7 6 5 5 6 10 10 16 20 99 100 93 98 100 100 100 90 100 100 65 18 16 16 12 12 15
14 9 7 6 5 5 5 5 4 6 10 10 11 14 12 9 10 11 10 7 5 4 5 7 8 14 16 70 100 100 100 100 100 100 96 98 100 100 88 62 40 13 12 14
28 18 8 6 5 4 4 5 4 4 5 10 10 10 13 10 9 11 12 8 6 5 4 5 7 8 14 34 98 100 100 81 100 100 84 81 68 100 100 100 100 42 13 9
54 35 22 11 8 5 4 4 4 4 4 4 8 8 9 9 9 10 11 10 7 5 5 4 6 7 13 28 91 99 99 74 99 100 100 87 100 100 100 100 98 80 14 12
72 68 44 34 15 8 5 4 3 3 3 4 4 7 7 7 10 9 9 10 8 6 4 5 6 6 10 23 21 84 98 96 100 87 71 83 100 100 100 100 100 88 13 22
65 66 58 58 36 19 12 5 3 3 2 3 4 5 5 6 8 9 8 9 9 6 5 4 6 6 8 21 29 60 100 92 100 68 92 72 86 100 100 100 100 58 33 29

GFSCGP_250_rhum_063.txt.gz
RH
30 23 23 26 17 10 9 11 14 15 14 22 19 16 22 20 27 34 37 29 36 23 42 100 99 100 100 100 73 30 11 18 24 19 32 46 29 33 48 49 54 36 33 54
20 37 30 22 23 19 14 10 10 12 18 19 23 21 24 18 28 25 23 16 23 22 41 83 100 100 100 100 75 19 13 15 23 22 19 33 38 38 48 85 65 49 41 56
15 22 27 23 19 20 28 16 10 9 11 18 23 24 23 20 23 25 20 14 25 25 54 99 96 98 98 88 33 11 18 16 23 19 18 16 20 32 48 94 58 49 54 66
16 15 16 25 26 23 28 21 12 9 10 11 14 17 22 22 23 33 22 14 18 26 37 100 94 98 64 100 41 9 24 12 23 20 19 17 18 22 35 43 42 50 66 68
15 14 14 15 24 28 27 22 13 10 11 14 12 12 14 18 19 21 22 15 14 28 36 74 58 62 46 96 71 10 28 11 22 22 20 20 26 22 34 56 42 37 65 63
15 13 13 15 14 23 22 23 17 14 15 20 27 18 14 16 17 19 19 18 16 24 34 28 59 54 72 94 67 13 29 12 15 22 20 18 28 32 38 50 47 46 53 72
13 13 14 13 13 15 16 20 20 17 17 21 26 38 29 16 13 14 14 17 22 19 24 18 56 58 61 55 41 7 31 11 12 22 21 20 22 26 27 40 44 46 59 68
19 16 14 16 16 15 15 14 16 17 18 20 19 27 40 23 13 10 11 12 17 23 18 17 32 63 49 72 42 7 28 13 11 16 24 22 21 19 23 28 39 46 48 42
25 25 21 20 20 16 19 18 17 15 14 16 16 19 25 19 18 10 10 11 12 12 14 14 14 16 41 49 41 13 22 15 13 17 25 36 23 22 20 25 39 42 44 39
18 23 28 28 25 20 14 15 16 17 16 16 18 18 18 15 16 12 12 14 11 11 12 11 11 23 49 44 36 19 19 15 13 14 19 22 40 24 20 22 33 42 37 42
17 18 19 24 28 27 18 12 12 15 17 19 24 15 15 15 18 16 15 17 14 12 19 97 44 39 59 37 42 14 21 16 16 15 15 18 26 45 30 21 25 32 32 35
16 17 17 16 19 23 25 19 14 14 15 19 21 18 17 16 14 16 19 17 22 14 12 100 100 100 54 71 51 12 21 22 25 21 11 17 17 44 42 37 24 26 29 32
28 23 18 15 13 15 18 22 22 20 17 18 21 16 14 17 19 18 17 17 25 21 12 27 100 97 80 100 50 16 18 28 30 22 12 10 15 26 32 37 40 34 32 35
26 26 26 19 14 14 14 15 18 20 24 24 18 11 13 15 16 18 19 20 20 20 14 11 63 100 100 100 96 48 28 29 32 32 17 11 12 14 18 31 36 36 35 35
35 30 27 26 20 15 13 14 15 17 18 23 21 16 11 10 11 16 16 16 19 18 16 12 27 100 100 93 100 86 28 28 33 31 30 20 12 12 13 18 34 42 44 40
28 30 33 33 26 20 18 14 14 15 15 17 20 19 14 13 11 10 12 13 13 15 17 16 14 100 100 100 99 80 55 73 58 29 32 35 22 15 18 14 15 15 17 23
34 28 25 28 33 24 20 17 14 12 12 12 14 16 15 14 13 13 10 8 10 10 14 18 14 63 100 100 84 83 90 100 87 30 28 34 36 32 25 24 22 16 14 14
30 31 30 27 24 27 18 17 15 14 12 14 12 11 11 13 13 12 13 10 6 8 10 16 17 17 100 100 98 73 78 96 100 79 27 28 34 37 39 33 27 26 26 20
20 24 26 24 26 24 20 15 13 12 12 14 12 12 10 8 11 13 12 12 9 6 8 13 20 19 68 98 99 78 81 77 100 100 58 81 28 34 43 38 39 22 21 26
14 15 16 18 21 21 20 20 13 11 10 11 13 12 10 9 8 9 12 10 10 9 6 10 14 23 17 23 85 100 99 82 82 93 84 80 100 99 74 42 28 16 13 14
18 14 14 15 14 13 14 15 13 9 11 12 13 14 12 8 8 8 7 8 8 9 6 7 12 18 25 21 80 100 100 88 70 77 82 80 98 78 94 79 78 46 12 17
29 22 22 19 16 13 11 10 8 10 12 11 9 13 14 10 8 8 8 7 6 6 7 6 8 14 21 20 43 83 100 99 84 79 83 68 100 89 96 100 100 98 36 43
43 32 24 25 18 15 12 9 8 6 6 8 10 9 11 12 8 9 8 8 7 6 6 6 5 8 15 19 28 72 82 100 100 73 75 64 99 100 89 80 98 100 89 18
41 39 40 34 32 20 13 8 6 6 5 5 5 7 8 10 10 8 8 8 9 8 6 6 5 6 10 17 18 42 70 97 96 73 74 72 94 99 91 82 85 78 84 96
59 43 40 43 40 28 15 10 6 5 4 4 4 4 5 9 9 9 9 7 7 8 8 6 5 5 7 13 16 29 65 77 100 76 62 61 76 90 100 91 74 59 72 97
58 56 52 46 48 38 21 11 8 5 4 4 4 4 4 6 9 8 8 8 7 7 8 7 5 4 5 8 14 21 53 53 91 81 67 50 74 91 100 81 69 49 49 72

GFSCGP_250_rhum_069.txt.gz
RH
14 21 18 13 14 15 18 20 19 20 20 18 18 18 22 20 20 25 33 83 92 63 44 40 35 30 32 88 95 72 59 18 19 22 22 30 26 44 42 50 36 36 25 23
13 18 23 14 14 12 14 17 17 19 20 19 18 18 18 18 19 18 20 22 21 22 27 33 32 25 24 83 86 74 72 23 14 24 22 26 38 34 38 47 40 36 37 31
12 14 17 20 16 17 12 14 15 16 17 18 19 18 19 19 19 17 16 16 16 14 26 23 34 25 21 55 76 70 52 77 14 19 24 22 22 48 40 67 47 38 45 44
13 12 14 22 21 18 19 11 12 13 14 15 18 18 18 18 17 19 18 14 13 16 21 22 35 24 18 19 35 60 55 70 28 15 24 24 20 23 34 56 53 46 42 66
17 12 13 16 28 24 22 17 12 12 11 11 13 15 16 16 17 14 12 13 12 12 22 25 30 24 17 19 30 47 50 47 46 16 20 24 24 19 20 42 67 49 47 61
17 15 11 15 18 25 22 20 21 19 14 11 11 12 13 14 15 16 20 21 18 18 20 22 28 28 18 18 17 30 38 39 30 18 15 20 23 24 21 23 40 41 36 68
18 17 15 12 14 19 25 24 29 32 31 20 15 12 12 12 12 13 15 15 18 19 20 17 22 28 21 16 21 23 32 44 23 23 11 14 20 23 26 32 49 52 36 41
16 20 16 15 13 16 17 28 31 33 36 42 30 19 15 12 11 11 11 13 16 16 18 20 16 20 16 16 17 17 24 59 44 20 15 10 17 22 25 30 49 49 40 38
14 18 20 16 15 13 15 19 32 34 37 36 29 28 22 17 14 13 13 12 11 11 13 21 23 20 19 17 18 22 22 32 47 42 27 11 12 19 22 27 34 39 36 38
15 16 22 20 17 15 12 16 17 27 39 39 33 37 26 28 24 21 20 19 14 13 11 12 16 18 19 18 19 26 22 21 29 56 58 20 11 20 21 24 28 32 29 33
15 14 18 23 18 16 14 13 14 18 26 28 38 38 39 28 30 30 29 30 24 20 14 13 12 12 17 18 19 30 33 24 18 77 68 28 14 14 23 25 25 27 28 27
17 16 16 21 24 19 17 14 13 13 16 20 28 32 40 38 29 30 29 35 32 30 23 19 15 13 13 16 21 24 28 20 18 39 53 37 24 12 17 32 36 27 27 25
16 17 16 18 24 25 20 17 15 14 14 15 21 22 31 40 42 34 33 31 29 33 31 26 22 18 14 14 16 14 15 15 29 45 64 44 33 16 15 19 39 43 28 29
20 20 18 17 21 29 31 25 21 16 15 14 14 21 28 32 34 36 32 35 32 28 34 31 29 24 43 54 22 16 16 34 68 76 84 57 32 18 17 16 18 33 45 35
25 24 22 20 19 23 31 34 31 25 19 16 14 15 19 26 30 28 27 30 32 29 25 27 35 30 24 50 89 46 56 42 100 100 99 56 37 21 22 21 16 18 33 50
31 32 28 24 21 20 22 27 32 32 28 21 17 16 18 20 22 22 21 20 25 29 24 22 31 36 28 25 29 36 60 100 100 100 100 63 42 31 24 27 18 17 18 41
39 30 28 27 22 20 19 20 21 23 24 24 21 17 17 19 19 20 18 18 16 18 21 21 20 32 33 27 26 25 52 100 100 100 100 100 62 52 30 30 24 18 18 19
44 39 29 29 24 19 20 20 18 18 20 21 21 23 22 18 17 19 20 15 16 15 15 17 18 24 32 28 26 27 28 92 100 100 100 100 100 65 44 34 29 18 19 20
37 38 38 30 26 25 23 20 17 15 15 15 15 15 18 22 23 20 18 17 14 16 15 15 15 17 28 28 25 25 24 48 100 95 66 78 78 100 64 46 36 21 16 18
37 33 33 32 28 24 22 22 20 18 15 14 13 13 12 14 17 20 23 19 16 13 15 15 15 14 18 24 25 25 23 21 50 92 74 72 85 100 86 38 39 33 21 22
31 31 33 32 30 30 26 21 19 18 18 17 15 14 13 13 13 14 19 22 24 20 14 14 14 14 14 18 20 17 23 21 20 41 70 64 83 100 97 34 36 39 28 31
24 24 25 26 29 31 30 28 25 20 16 15 16 16 14 13 12 13 11 13 17 20 21 14 13 15 13 13 16 14 16 18 20 17 44 49 50 74 88 55 32 42 44 36
23 23 24 23 23 22 23 26 27 27 24 19 17 14 15 14 12 12 12 10 10 11 13 17 15 12 13 14 14 15 14 13 16 18 17 36 33 63 80 77 34 49 44 64
34 25 22 21 21 20 18 17 15 16 20 23 20 17 14 13 12 13 13 12 11 10 10 10 12 14 13 13 14 15 13 12 12 16 17 17 30 49 67 77 49 59 49 29
38 36 36 30 22 19 17 16 15 12 10 10 13 16 16 16 13 12 11 10 10 10 9 9 9 9 10 11 13 13 14 12 11 12 14 17 16 32 57 68 63 67 70 46
37 32 33 34 33 32 28 21 15 11 9 7 7 7 8 11 13 13 13 12 10 9 9 9 8 9 8 8 8 12 14 12 11 11 12 15 16 17 41 56 58 55 64 65

GFSCGP_250_rhum_072.txt.gz
RH
14 14 15 10 10 19 26 27 22 18 19 19 22 20 21 18 24 23 39 34 50 70 87 89 45 32 29 69 83 75 64 54 14 18 32 31 37 50 46 34 66 35 34 38
14 15 15 14 11 15 22 23 26 22 22 23 24 24 22 19 22 21 28 36 69 78 61 68 30 26 24 29 83 82 64 86 37 13 17 34 38 38 41 51 45 43 44 49
16 14 15 14 15 16 13 19 23 23 22 21 22 23 23 20 19 22 20 22 23 37 28 25 25 28 25 22 32 65 65 78 50 22 15 16 26 53 87 72 41 73 58 50
16 14 14 15 15 21 16 11 18 18 20 21 20 21 22 21 18 18 18 16 16 20 21 17 23 36 29 17 18 18 66 56 38 36 15 20 17 23 37 67 54 50 78 79
16 16 14 14 16 18 18 15 11 14 16 18 18 19 20 21 20 19 17 17 16 18 19 17 25 60 40 26 17 21 41 48 31 28 21 18 17 17 51 37 86 56 76 80
14 15 16 14 14 14 19 22 19 13 13 16 17 17 18 18 19 19 19 18 17 17 19 17 24 32 40 25 17 19 22 36 40 22 21 15 21 17 18 46 61 57 54 94
16 15 16 17 14 14 14 21 31 25 14 14 15 16 16 16 17 17 19 18 17 17 16 17 17 22 38 22 15 19 20 24 47 44 22 16 20 26 31 49 66 41 42 40
23 15 15 16 16 14 15 18 35 42 34 19 15 14 14 14 14 15 16 16 16 16 18 19 17 16 24 20 12 17 18 20 32 53 34 24 14 20 19 27 32 46 41 37
28 16 15 16 17 17 15 15 22 36 43 33 22 13 16 13 12 12 12 12 13 14 15 19 21 20 18 17 13 14 20 19 29 48 44 42 28 15 22 20 26 43 41 36
36 23 19 16 16 17 16 15 15 37 49 50 39 28 18 16 14 13 12 11 11 10 12 13 17 20 19 19 17 18 19 19 21 30 31 38 45 22 16 21 21 32 39 37
33 29 28 18 14 16 16 16 14 22 41 51 48 40 41 34 25 19 15 13 11 13 14 12 18 13 14 16 20 19 19 19 22 23 20 36 64 36 17 22 25 24 30 31
24 22 22 17 14 14 18 16 17 15 30 52 52 43 44 42 37 30 28 22 16 13 13 26 14 37 36 18 15 17 18 18 21 20 25 29 67 38 29 14 26 28 26 32
21 19 19 19 15 13 15 18 17 17 18 32 55 51 52 50 44 36 32 31 30 24 21 19 21 24 20 28 23 20 17 14 20 27 34 22 48 44 39 20 15 34 33 29
24 22 21 20 17 14 15 18 19 19 16 17 39 46 55 54 51 47 39 40 40 32 32 30 27 29 20 55 44 17 25 24 27 27 24 23 36 46 38 26 19 18 42 49
26 26 24 22 20 18 16 16 23 21 18 17 15 30 55 57 59 56 50 48 42 34 32 35 36 38 31 22 22 29 22 18 19 38 42 37 50 47 57 30 17 18 19 31
31 30 28 27 21 20 18 18 19 29 26 18 15 17 42 50 53 58 52 45 49 43 34 29 29 29 39 33 25 34 67 49 18 15 39 73 100 99 64 38 21 20 19 19
42 45 37 33 29 21 20 19 19 19 30 23 18 18 20 27 42 41 40 37 34 35 32 30 30 31 27 36 32 26 26 61 44 17 21 62 100 100 78 44 31 21 24 18
45 49 40 37 28 24 20 20 18 17 21 24 22 19 22 21 21 26 32 32 28 21 22 21 21 26 29 30 31 31 25 26 48 36 50 82 98 100 92 83 42 34 26 24
53 55 50 44 34 25 21 21 20 19 19 20 25 26 23 22 20 18 18 19 21 21 20 16 16 15 20 26 28 30 31 24 21 26 42 100 99 100 100 100 93 48 35 29
51 50 48 46 37 33 26 22 21 22 19 17 19 25 28 27 26 19 21 19 17 17 16 17 16 13 13 16 22 26 28 26 22 21 27 99 100 94 98 98 99 78 60 45
47 50 46 42 37 33 32 25 22 20 20 22 19 18 22 27 28 21 27 20 21 20 17 16 14 15 14 13 14 17 23 23 22 20 21 36 100 100 91 61 60 78 57 50
33 38 42 38 34 32 29 26 22 21 20 22 20 20 19 18 20 23 26 27 23 21 22 19 15 13 13 14 13 13 14 18 21 22 20 22 34 94 84 70 76 70 99 86
24 25 29 31 30 30 28 28 32 29 22 22 22 21 19 19 18 17 16 19 22 21 20 18 17 16 14 11 11 12 12 13 16 17 18 22 22 30 57 75 64 45 52 72
26 24 21 20 19 20 25 26 27 29 28 24 21 21 22 19 17 15 14 14 13 15 17 20 19 19 15 13 12 11 11 12 13 16 16 17 20 21 22 38 41 64 68 64
24 24 24 23 19 17 16 17 20 25 26 26 25 23 19 17 19 18 16 13 12 11 11 11 13 16 17 16 14 14 12 11 12 12 12 13 19 18 17 20 27 39 62 66
25 25 26 25 25 24 20 16 14 14 14 15 19 21 21 19 16 16 16 15 14 12 10 10 10 9 10 13 12 12 14 12 10 10 12 10 10 15 16 16 17 20 38 52

GFSCGP_250_rhum_075.txt.gz
RH
19 15 16 16 15 13 18 20 24 24 24 22 21 26 26 32 28 28 41 74 73 22 31 56 47 60 25 26 46 45 64 60 19 26 31 27 33 37 52 39 40 50 57 31
19 19 14 15 16 14 12 17 22 23 24 24 22 22 24 28 22 20 26 52 29 26 32 61 59 66 31 26 21 56 54 74 38 22 24 34 28 32 66 57 52 62 50 46
17 18 13 13 16 22 13 11 16 23 23 25 24 20 19 19 20 20 23 28 46 29 34 94 72 69 28 27 26 18 37 52 53 32 21 21 34 51 92 70 45 63 62 66
15 15 16 14 13 17 20 10 10 18 24 26 23 20 19 20 21 21 24 32 27 28 31 88 94 35 22 26 27 24 20 48 47 34 22 22 23 20 36 65 53 60 96 67
18 17 18 17 14 14 17 15 9 14 18 23 24 23 21 20 21 21 24 27 36 36 24 25 39 24 21 19 21 27 20 32 42 25 33 17 28 20 37 42 90 72 71 79
16 17 17 18 17 14 14 18 16 15 16 19 20 22 22 18 31 23 23 23 23 31 30 22 28 32 18 15 17 25 20 17 37 45 24 19 24 25 19 48 88 82 66 77
13 15 18 19 18 17 14 16 19 24 15 16 18 20 20 21 21 21 30 26 22 24 28 21 36 26 15 15 18 16 20 16 22 47 38 21 16 23 27 36 50 44 39 46
18 15 15 18 19 18 15 16 16 25 30 21 18 18 18 20 20 21 21 22 22 30 24 26 29 27 18 17 16 15 17 19 17 23 45 36 22 16 26 40 57 42 44 38
29 20 12 15 18 19 18 14 17 20 26 30 23 16 15 18 19 19 20 19 19 19 24 22 18 18 22 20 16 15 13 18 18 20 32 44 42 22 22 23 23 34 42 37
48 25 20 18 16 18 19 20 16 15 20 33 29 29 13 17 15 17 19 19 18 24 53 54 53 28 18 18 19 19 16 15 20 17 20 22 31 37 19 23 26 24 37 38
59 34 35 23 17 17 19 20 19 15 18 32 42 34 25 26 16 14 16 17 17 17 37 63 93 69 76 54 30 27 20 17 17 18 18 19 20 33 41 22 26 30 26 33
78 68 53 40 23 17 20 20 20 18 18 18 40 18 25 35 27 18 15 15 15 15 16 87 82 99 99 100 93 70 32 23 18 15 16 18 18 23 47 32 20 26 30 26
92 97 74 52 30 27 23 23 21 21 23 17 22 17 38 39 34 27 20 16 14 14 13 58 95 100 100 96 100 100 87 85 27 16 15 16 18 19 26 34 26 17 30 30
90 93 91 73 52 45 44 26 24 20 21 22 31 17 17 45 39 38 33 26 20 15 14 13 52 89 80 99 100 89 84 72 63 46 30 16 16 16 19 24 30 20 16 32
68 82 95 79 74 60 41 38 32 22 20 23 23 14 14 48 45 41 43 40 37 31 23 19 16 24 38 34 66 95 81 84 69 48 34 33 26 25 17 25 29 40 17 17
41 62 63 62 66 61 48 45 44 37 25 19 21 15 15 27 47 46 43 46 48 49 43 34 29 25 24 85 43 80 86 100 100 99 63 41 25 34 26 17 44 52 42 17
27 28 37 44 47 51 46 46 39 34 30 23 17 17 23 22 40 54 53 45 45 48 47 38 34 34 37 36 25 19 21 67 77 78 36 19 24 49 95 93 75 77 51 22
24 26 27 29 28 28 27 28 27 26 24 23 16 16 26 30 23 28 43 50 47 48 51 46 34 33 33 32 29 27 28 22 18 21 33 27 16 16 48 100 97 100 72 32
25 26 29 30 31 33 43 37 28 24 23 22 17 13 19 30 23 21 21 37 45 48 49 50 49 44 38 36 34 31 29 26 23 21 24 28 25 20 14 65 100 100 72 42
28 29 32 34 36 37 33 59 64 42 30 26 20 14 15 23 30 19 22 20 31 44 45 44 45 43 46 46 46 42 34 32 29 26 23 23 27 39 19 43 100 100 100 100
34 35 41 44 43 37 43 55 47 39 30 43 24 20 16 16 20 29 31 24 20 21 30 36 37 38 39 39 40 39 37 36 36 30 26 23 20 34 53 47 50 96 94 100
30 33 41 45 45 40 52 46 39 37 33 31 25 22 17 16 16 19 27 29 28 22 19 19 23 21 23 26 25 26 30 30 27 32 31 26 21 18 34 76 100 89 72 75
34 32 28 31 38 43 52 45 41 35 34 28 25 21 20 18 17 14 18 28 27 26 26 21 18 17 17 15 14 15 18 20 20 18 20 26 23 20 18 26 93 100 70 75
23 25 30 28 28 34 40 44 43 42 39 36 30 26 20 19 18 16 13 18 26 26 26 28 23 17 15 14 13 12 11 12 14 16 16 16 18 21 21 18 23 97 97 97
23 21 20 22 25 28 31 35 42 43 41 39 38 34 29 22 18 17 15 13 14 19 23 23 24 25 19 14 13 12 11 10 10 10 13 14 13 12 16 19 20 21 68 65
23 24 22 19 19 21 21 24 27 32 34 36 36 36 33 29 23 18 16 15 13 14 13 16 19 20 22 20 15 13 12 11 10 9 10 9 10 11 11 12 16 22 18 22

GFSCGP_250_rhum_078.txt.gz
RH
12 14 18 19 18 11 12 17 22 28 34 35 34 61 100 98 100 63 76 74 46 35 35 26 28 41 58 43 23 37 51 60 30 21 28 30 30 50 60 59 70 45 34 21
12 15 20 19 19 16 10 12 17 22 26 21 36 22 86 84 75 88 54 61 48 89 61 31 29 28 47 49 27 25 29 51 48 27 21 25 38 65 75 79 71 55 43 26
15 15 17 18 19 18 15 11 12 16 29 25 24 20 39 94 100 98 66 35 28 22 49 30 31 22 29 34 18 29 20 38 52 30 19 23 48 79 100 88 60 80 48 31
18 15 15 19 21 18 20 14 12 12 28 20 23 24 30 24 51 77 50 35 29 26 26 30 24 20 19 20 16 22 27 26 44 36 25 22 22 24 30 36 63 78 58 44
20 16 17 19 21 20 18 17 12 12 14 19 20 21 25 22 27 31 30 29 24 29 24 26 22 27 24 18 15 14 27 18 30 43 45 27 26 81 79 43 94 99 94 56
18 19 19 18 19 21 18 16 17 11 16 14 17 19 21 21 25 63 55 37 29 36 28 24 27 23 24 18 18 13 18 22 16 43 37 23 39 89 100 63 74 93 47 64
14 17 20 19 18 19 18 15 14 16 19 16 15 16 19 19 22 94 95 72 25 99 93 41 68 39 26 30 30 15 12 18 17 22 34 32 24 38 43 99 94 41 41 40
19 14 16 21 21 21 19 19 14 14 19 30 20 15 13 20 33 100 95 97 43 17 16 23 95 57 29 31 43 23 14 16 17 17 17 38 44 23 42 100 39 47 38 29
26 16 16 16 19 22 19 18 19 15 15 21 27 16 10 18 25 57 100 92 43 39 37 40 69 25 26 91 37 21 21 15 17 18 16 21 32 34 16 12 19 25 47 25
29 33 20 19 15 18 18 20 19 17 14 14 16 21 11 15 21 20 33 34 30 23 42 80 83 92 44 87 29 22 25 18 18 18 18 16 18 22 32 28 16 15 27 82
29 30 28 34 21 16 16 19 21 20 20 16 16 13 17 11 15 16 16 20 19 18 19 100 100 100 100 100 80 58 50 27 19 20 19 21 18 16 18 28 24 10 12 17
34 38 32 32 40 40 25 14 18 20 20 22 21 13 13 26 34 16 14 18 20 19 18 18 100 98 100 99 100 100 88 69 71 29 23 18 20 19 17 19 38 22 13 14
35 28 35 36 59 39 22 21 20 18 19 20 21 17 12 16 25 22 14 14 18 20 19 17 37 100 99 100 100 100 70 68 100 98 55 38 23 17 18 21 24 37 24 13
100 82 76 33 41 48 46 51 36 22 21 21 24 20 14 11 16 30 22 14 15 16 17 17 18 44 85 100 99 100 74 98 99 98 100 90 40 32 16 20 26 45 36 34
100 100 92 63 48 68 46 50 40 33 28 24 20 20 18 14 14 18 27 29 22 15 14 15 18 32 59 43 85 71 51 87 100 100 93 84 98 100 60 14 18 33 49 38
72 96 100 100 98 95 100 89 59 48 33 25 22 18 16 17 14 15 21 26 32 28 19 16 15 16 18 33 40 79 75 92 67 68 85 62 64 100 100 100 50 25 27 49
58 68 98 100 91 96 100 95 75 82 83 62 24 19 15 17 16 15 17 15 32 36 32 24 18 16 15 21 85 63 100 100 86 64 86 69 45 57 96 100 100 58 26 40
41 51 63 89 93 80 100 100 89 92 100 84 54 38 25 15 18 18 20 21 16 33 41 35 27 21 17 26 87 100 100 100 100 100 77 60 69 46 26 68 100 53 41 61
27 38 49 51 65 69 74 87 98 100 100 89 71 45 21 26 16 18 19 22 15 15 35 42 36 31 28 23 36 50 82 93 100 100 94 97 86 77 67 53 48 82 95 85
25 26 31 43 49 46 40 44 62 92 96 94 98 67 36 24 23 21 18 20 22 19 16 33 41 39 36 34 34 33 30 30 25 21 74 66 63 91 86 46 18 21 72 76
26 24 24 26 28 30 32 37 38 43 64 71 82 75 50 31 30 41 35 22 19 20 18 16 24 38 40 40 42 44 45 42 37 33 72 24 19 19 19 16 19 18 30 47
28 26 26 26 25 26 28 32 34 33 42 58 56 56 42 32 32 32 37 29 19 19 20 19 16 22 41 41 43 49 51 50 48 42 44 37 28 24 21 14 17 21 16 23
28 27 28 26 24 24 24 30 39 35 35 36 34 31 26 21 22 21 22 31 24 17 17 19 20 16 16 30 40 44 47 51 52 48 43 41 35 29 28 22 18 18 21 21
29 26 27 25 26 23 21 28 32 30 42 70 86 64 35 24 24 20 16 19 24 23 18 16 19 19 16 15 21 32 40 46 48 48 48 45 42 33 32 29 23 21 19 26
28 26 26 25 23 22 24 26 30 30 28 42 68 100 93 69 45 34 22 17 20 22 21 19 16 18 20 19 15 15 21 31 41 46 45 43 43 38 34 31 25 22 20 20
26 24 22 23 22 21 22 22 27 32 31 32 36 39 47 58 52 54 41 24 18 20 23 23 20 17 16 17 18 16 14 14 16 21 28 31 31 31 28 26 24 19 17 15

GFSCGP_250_rhum_081.txt.gz
RH
14 12 14 16 13 8 11 14 21 40 57 64 66 56 44 100 100 98 100 86 67 49 43 38 36 26 30 40 28 29 31 45 38 19 21 27 60 82 98 100 71 51 54 20
11 14 14 15 15 10 8 11 15 20 32 60 79 69 52 60 84 89 100 98 65 74 60 42 42 28 29 32 21 30 26 42 40 33 24 35 57 98 95 92 77 39 44 22
14 14 14 14 14 14 10 9 11 15 21 38 65 63 64 70 100 91 90 78 60 50 48 31 25 30 28 35 21 18 30 30 38 46 24 37 44 59 54 73 71 53 21 30
19 14 12 13 13 13 14 12 9 11 16 25 49 45 56 71 97 100 100 66 63 75 50 29 19 28 22 21 24 19 24 24 33 44 49 33 28 60 67 70 100 80 39 49
22 16 15 13 14 16 18 14 10 9 12 17 25 36 41 56 85 98 94 84 86 91 52 27 23 20 19 22 24 24 16 27 20 42 34 31 28 100 100 97 100 82 44 61
22 20 17 17 14 13 22 14 13 12 9 12 16 22 30 35 50 88 98 100 73 67 73 39 20 18 22 21 23 28 18 15 22 24 29 51 34 90 69 97 76 51 45 49
18 21 22 20 18 13 16 16 14 15 14 13 11 16 19 23 37 58 72 100 97 97 80 29 31 64 28 29 27 29 29 14 14 18 19 32 60 55 92 100 100 67 97 100
17 18 20 22 21 18 17 14 17 16 18 22 17 10 14 20 26 47 43 100 83 98 100 94 44 76 66 68 43 28 39 22 14 15 15 16 32 41 36 79 88 76 99 79
21 15 16 19 22 23 20 16 18 20 19 19 20 10 10 17 22 24 23 33 42 77 74 90 89 58 97 96 65 31 44 36 19 16 16 23 16 19 26 32 53 47 51 84
20 19 16 16 17 20 22 20 17 18 21 19 16 10 9 10 13 16 19 30 24 94 100 100 100 54 32 78 74 42 85 62 26 23 15 29 35 15 14 36 28 35 18 37
26 25 20 22 20 19 18 20 19 18 17 19 19 16 13 29 64 46 36 54 36 64 79 100 100 100 100 100 100 96 100 100 98 55 50 32 38 39 19 23 26 39 27 64
30 30 30 23 26 22 18 18 20 19 20 19 17 16 14 60 44 68 51 70 86 25 91 69 54 83 100 100 100 100 100 100 100 100 100 76 37 29 33 36 28 20 17 26
38 38 30 34 34 35 25 15 15 19 21 20 17 14 15 15 52 23 17 26 62 33 78 84 68 83 46 100 100 100 100 100 100 100 100 100 100 63 85 88 46 22 24 24
56 47 37 41 39 40 31 21 16 22 21 21 18 15 12 13 14 15 15 14 30 89 58 91 64 37 27 100 100 100 87 91 100 97 88 95 98 100 100 98 69 59 40 26
81 68 46 36 35 38 47 32 43 34 34 23 17 18 16 15 13 13 15 18 17 27 41 16 28 35 21 60 86 96 96 32 66 85 100 72 86 100 100 94 100 100 92 46
98 69 60 54 41 37 51 37 58 55 47 41 16 13 15 14 12 16 16 14 17 19 19 20 18 21 23 22 100 100 92 100 100 100 100 90 100 100 100 100 100 100 100 98
100 84 86 77 56 42 54 90 61 50 45 38 32 25 14 12 12 11 15 18 17 20 21 17 15 18 22 25 31 96 100 100 98 71 87 96 100 100 100 100 99 98 100 99
59 86 93 100 100 68 57 68 90 63 44 43 41 38 33 19 12 12 14 14 17 15 17 20 21 16 16 21 23 40 70 100 100 100 100 100 95 94 65 61 76 80 99 100
47 56 59 88 92 89 95 68 99 100 56 66 78 47 44 40 34 19 11 12 17 19 18 17 21 23 21 17 18 20 55 100 100 100 100 100 100 100 76 60 44 56 100 91
27 39 50 49 81 89 90 85 100 100 100 86 72 78 42 49 51 22 13 13 13 16 20 18 18 22 22 21 19 16 21 37 100 100 100 100 65 90 100 79 58 95 80 63
20 21 31 50 49 57 72 66 81 98 97 100 96 87 69 41 49 62 37 28 16 13 14 18 18 18 19 25 23 24 17 17 37 94 100 100 100 100 100 78 68 74 54 41
25 22 22 23 27 36 47 55 57 54 78 98 100 80 91 89 53 67 65 54 36 24 16 14 16 19 19 17 23 27 29 21 17 16 55 100 100 100 100 100 91 85 98 80
33 29 25 23 23 23 28 41 48 46 53 56 80 97 78 76 69 52 59 75 71 45 28 22 15 14 18 18 17 21 31 32 24 20 24 100 100 100 100 100 100 100 100 90
31 30 28 26 24 21 21 25 26 34 44 40 43 53 62 60 59 69 63 54 74 79 55 32 23 14 13 16 18 17 22 35 33 28 23 44 100 100 100 100 100 100 90 35
45 36 32 26 22 22 21 21 21 22 24 30 33 35 36 39 39 35 39 44 60 71 65 55 34 24 17 12 14 18 17 18 33 34 33 30 63 90 74 96 86 58 37 44
48 39 39 33 25 21 19 19 22 20 20 21 23 26 26 25 27 28 27 29 28 36 48 51 46 36 26 21 13 12 16 17 16 23 33 35 34 33 32 32 35 36 40 40

GFSCGP_250_rhum_084.txt.gz
RH
12 12 14 13 9 7 10 15 21 62 66 92 100 98 100 100 90 81 96 100 100 100 71 41 37 36 25 31 23 31 32 49 33 23 33 76 92 92 99 96 75 44 31 59
13 14 12 14 10 8 7 11 15 38 59 52 65 82 97 100 97 84 100 100 100 100 68 64 40 31 26 24 28 24 32 48 50 31 40 63 90 74 67 97 59 28 37 64
14 14 13 13 13 11 8 8 11 16 25 26 91 95 77 93 86 100 80 90 91 100 84 65 42 24 26 22 24 20 33 31 51 52 33 34 45 71 72 100 95 57 56 74
15 13 14 14 13 12 11 10 8 11 16 22 47 100 91 86 68 81 94 100 99 98 85 67 49 29 22 21 22 19 23 30 29 47 41 31 61 84 99 98 100 64 63 58
20 14 13 15 16 14 15 12 9 8 11 15 22 61 74 81 71 78 77 99 78 79 70 99 78 32 21 20 22 18 35 23 26 30 33 48 44 100 61 84 100 83 50 72
21 16 14 14 16 18 15 12 13 11 8 12 17 22 40 65 74 95 79 95 88 100 99 86 82 75 41 20 21 17 23 30 22 19 21 28 68 61 93 92 100 86 87 78
23 23 20 15 15 16 13 10 12 16 12 10 12 16 20 29 62 87 99 88 100 98 100 97 85 64 45 31 26 22 26 26 23 20 17 14 28 67 56 98 100 80 79 74
18 22 24 22 19 18 15 12 12 16 16 20 10 11 14 19 43 58 57 87 92 100 100 100 88 70 64 50 46 35 30 32 35 18 19 18 17 33 51 55 58 81 86 58
20 17 22 22 23 21 15 14 14 16 20 17 13 10 11 15 49 69 74 60 66 93 98 100 99 100 56 70 61 82 66 30 41 23 20 18 23 26 33 37 58 78 64 35
17 16 16 21 22 21 22 19 14 14 17 18 14 11 11 11 16 38 59 55 42 40 71 79 75 97 100 96 99 87 63 61 53 39 37 22 21 38 24 30 68 40 51 27
22 20 18 17 21 23 23 19 16 15 15 14 14 12 15 15 16 14 21 53 50 50 98 88 93 95 88 100 99 78 100 92 93 94 88 69 69 42 56 40 24 40 68 65
35 29 22 23 20 25 24 22 20 13 12 11 11 14 16 17 19 18 14 18 33 33 32 43 70 63 100 84 86 93 100 100 99 100 100 100 100 100 100 66 38 39 46 41
42 40 33 35 32 32 25 22 20 18 13 11 11 12 19 19 17 20 18 17 17 19 21 22 24 76 80 93 97 80 86 84 100 100 100 100 98 100 100 100 100 97 90 53
42 44 39 38 29 29 23 20 18 19 18 15 12 13 15 22 19 18 15 17 14 16 22 20 18 77 85 100 100 71 100 100 100 100 100 95 83 100 100 100 100 100 100 100
39 45 39 35 40 44 49 33 26 20 18 18 18 17 16 16 20 20 20 36 41 18 16 17 19 24 86 100 100 97 86 100 100 100 100 87 100 100 100 87 90 94 74 98
50 45 41 53 34 36 52 30 40 45 24 14 15 16 17 16 18 22 22 21 58 92 44 65 33 61 90 100 98 100 100 76 100 100 100 100 100 100 95 92 92 100 100 96
52 48 51 47 56 44 36 40 32 40 42 20 14 15 16 16 15 17 20 22 20 45 83 100 83 81 63 100 100 95 100 100 95 99 100 100 100 100 89 84 91 100 100 100
44 71 60 59 61 55 47 43 48 42 36 27 22 16 15 14 15 16 17 18 21 20 19 57 100 100 76 80 100 100 100 100 100 100 100 100 100 100 83 100 79 100 98 100
43 54 88 89 85 75 41 50 40 51 52 36 32 27 25 29 18 14 15 17 19 19 20 16 40 100 100 100 100 100 100 100 100 96 100 100 100 100 100 87 95 89 99 100
38 40 47 77 98 100 89 50 34 55 67 48 44 38 35 33 36 19 12 13 15 16 19 20 17 16 96 100 100 100 100 100 100 100 100 100 100 100 100 100 98 100 100 100
30 38 44 48 65 75 94 89 52 42 69 60 51 44 53 46 35 35 22 19 13 12 14 16 19 20 16 16 26 38 47 80 65 100 100 100 100 100 100 100 100 78 100 100
24 22 27 35 52 65 86 88 82 70 73 70 67 64 53 59 53 44 47 26 17 15 15 12 13 17 19 19 16 16 18 18 17 23 74 100 100 100 100 100 100 100 85 100
29 26 23 22 23 37 57 60 70 64 62 77 80 69 69 48 47 45 40 36 21 15 18 19 18 13 12 16 19 18 16 16 17 16 20 28 77 100 100 100 100 100 100 100
38 29 28 26 22 21 24 35 41 47 48 52 57 67 75 72 65 50 34 45 52 32 16 19 19 23 24 15 13 16 18 16 15 15 16 18 20 27 67 100 100 100 100 100
53 50 40 31 25 23 24 23 22 26 31 35 31 29 35 58 81 82 82 70 54 49 52 34 21 19 24 26 21 14 13 16 17 16 15 16 20 19 19 29 94 100 100 100
62 58 53 47 38 29 22 20 22 20 19 19 21 27 29 24 31 62 92 99 94 83 70 68 57 42 28 23 26 26 20 13 12 16 17 15 15 17 24 22 19 22 53 100

GFSCGP_250_rhum_087.txt.gz
RH
9 11 16 18 10 8 11 14 16 53 88 100 100 100 100 100 100 78 100 100 100 100 77 85 40 35 29 26 18 24 33 40 30 44 77 78 79 82 95 38 35 54 83 42
12 13 14 16 12 8 7 11 14 21 50 100 100 100 100 100 94 78 100 100 99 99 94 97 50 41 38 30 28 15 18 26 40 33 42 53 82 77 93 85 54 49 52 52
14 14 12 14 13 10 8 8 15 17 30 98 100 100 99 100 100 100 100 100 100 94 100 100 59 33 28 25 21 16 16 17 29 41 32 50 78 88 92 87 55 54 61 51
16 13 13 13 13 14 10 9 10 18 18 26 83 100 88 100 100 97 82 100 100 92 100 100 66 45 30 23 21 14 16 17 16 29 51 35 80 100 94 96 98 60 63 70
16 13 14 14 14 15 16 9 9 10 16 16 25 74 84 100 100 100 97 93 82 100 100 100 78 60 48 21 20 19 14 16 18 17 28 62 52 80 93 92 74 100 86 88
15 13 14 16 13 15 12 12 11 9 10 14 18 48 79 80 81 98 95 100 100 100 100 81 76 54 54 33 44 22 19 16 16 17 21 22 59 62 71 100 100 90 90 68
22 19 16 16 14 13 11 11 11 12 10 10 15 17 47 41 34 49 80 93 96 97 97 85 96 76 62 69 59 34 22 23 20 16 20 24 23 42 58 70 96 100 86 75
20 23 19 19 16 15 12 11 13 15 16 13 10 13 16 24 63 98 96 77 83 100 74 98 97 99 99 84 64 55 45 28 27 23 16 22 23 24 33 37 48 72 96 78
21 22 24 21 17 15 14 12 14 14 17 19 11 11 11 15 24 42 63 74 70 73 99 95 100 100 90 90 69 50 49 34 40 41 25 23 26 24 28 24 31 61 43 62
28 20 22 25 23 20 16 15 14 14 16 17 15 15 12 11 16 21 29 31 42 72 99 88 94 77 97 92 75 62 50 59 68 49 50 36 37 28 31 33 34 24 42 66
44 23 22 22 26 26 23 15 13 14 17 16 16 18 17 12 12 15 20 22 42 67 78 78 84 76 100 91 79 83 79 99 100 78 66 77 74 64 82 62 56 44 37 47
60 43 28 25 23 29 26 20 14 11 15 16 15 18 16 16 12 13 15 19 67 86 73 74 71 78 100 100 72 68 100 100 100 100 100 100 100 100 100 100 100 100 92 81
67 71 44 37 33 32 26 21 16 13 14 15 17 17 18 19 19 15 14 24 37 49 66 73 74 61 65 68 68 74 77 100 100 92 92 98 100 81 81 98 100 60 100 100
58 70 60 44 33 28 24 21 21 17 15 16 14 17 18 24 26 23 20 15 29 37 63 78 83 98 65 66 89 74 65 90 100 100 100 89 92 72 93 86 90 100 77 73
53 72 78 60 43 32 32 22 19 21 18 18 19 18 18 20 21 25 25 22 20 18 25 78 94 100 98 75 100 72 78 54 90 100 100 94 82 76 93 92 74 98 100 77
49 64 79 74 59 50 32 26 20 17 18 20 20 20 19 23 20 22 24 26 25 21 19 26 55 100 100 89 79 100 100 52 69 100 97 100 85 79 73 100 81 76 100 94
51 49 60 61 56 58 48 38 29 22 16 16 17 20 20 21 20 20 21 22 25 24 22 20 20 100 100 97 93 84 100 88 74 100 100 100 97 100 93 73 68 50 56 94
46 58 51 59 52 47 51 47 45 27 21 18 16 17 19 19 20 19 19 21 24 26 25 23 21 23 45 69 78 99 96 100 100 99 100 100 100 99 100 97 100 78 46 55
45 54 75 70 60 57 51 42 48 49 29 21 22 21 16 19 19 20 20 20 21 22 26 26 24 23 37 32 38 54 100 97 100 100 100 100 100 100 100 100 100 93 73 73
48 50 54 84 84 63 60 59 47 46 44 40 28 20 19 19 20 21 18 18 19 20 22 21 23 24 27 61 66 31 52 81 100 100 100 99 100 100 100 100 100 100 100 96
38 48 59 56 66 83 71 63 59 42 36 42 48 37 32 26 24 22 21 19 17 18 19 20 20 21 23 26 65 87 45 74 100 100 100 100 94 100 100 100 100 100 100 79
24 31 47 49 49 50 61 71 87 72 39 40 45 42 38 40 35 32 30 23 18 16 16 17 17 18 18 20 23 54 99 64 88 100 100 100 100 100 100 100 100 100 100 100
28 26 27 31 48 55 51 43 55 88 96 45 42 53 48 43 39 42 33 28 25 22 17 15 16 17 18 18 18 20 28 72 84 60 99 100 100 100 100 100 100 100 100 100
31 27 25 25 29 34 40 45 44 42 64 93 56 44 60 65 46 43 39 34 32 26 23 21 14 14 14 16 17 19 20 19 24 93 93 96 100 100 100 100 100 100 100 100
46 36 32 26 24 24 26 34 41 44 45 56 72 62 49 54 67 66 51 42 39 32 28 23 19 16 14 14 13 14 16 18 19 18 52 100 100 100 100 100 100 100 100 100
69 67 56 46 36 26 24 24 23 25 30 33 36 41 42 44 60 64 70 64 50 46 35 29 25 21 19 18 18 16 15 14 15 17 17 25 84 100 99 96 100 100 100 98

GFSCGP_250_rhum_093.txt.gz
RH
9 9 11 13 12 10 8 11 12 17 24 100 100 97 100 100 99 87 100 95 100 75 82 70 82 76 23 17 14 14 25 33 39 54 70 74 66 60 50 59 42 34 23 23
10 11 10 10 10 11 8 9 14 21 58 100 100 100 100 94 79 100 100 86 99 76 90 69 84 91 34 18 19 15 15 18 36 38 43 65 83 68 66 54 61 48 41 34
12 13 10 10 10 10 10 9 12 19 97 100 99 95 100 100 96 77 90 100 100 70 58 71 95 92 57 23 20 18 14 13 19 29 37 39 59 79 81 62 56 72 58 45
11 11 10 10 10 9 10 10 10 23 51 93 99 100 96 100 100 72 80 74 60 81 56 74 93 80 67 34 20 18 18 19 13 15 18 65 63 70 60 63 61 56 82 75
12 12 12 10 11 10 9 11 10 38 100 100 100 99 100 100 100 100 100 98 76 89 78 58 87 92 80 47 24 19 18 19 22 16 15 16 51 24 35 42 59 46 55 74
11 11 12 11 10 11 9 11 11 23 100 100 95 100 96 100 93 100 100 96 90 97 92 68 91 71 74 52 40 22 28 26 24 24 20 18 34 57 51 48 39 37 36 56
14 12 12 12 10 11 10 10 13 12 98 100 100 100 82 78 77 68 100 96 82 84 96 98 87 87 70 50 43 29 57 48 52 48 33 21 20 23 56 34 32 38 50 42
20 14 14 14 13 10 10 12 14 15 20 94 100 100 100 99 72 72 67 97 98 98 84 100 93 93 91 66 50 46 56 66 66 50 39 29 34 23 30 32 32 32 60 42
24 18 15 17 16 12 9 9 14 16 15 24 84 100 100 100 100 97 84 94 92 97 90 97 100 89 100 89 84 64 64 68 62 56 47 32 47 33 35 27 38 38 37 47
35 30 20 19 16 14 10 10 12 15 16 15 24 60 82 100 100 100 100 100 99 87 83 99 94 100 100 100 81 73 76 73 68 64 53 40 65 49 51 57 42 47 55 61
56 42 28 22 19 15 13 11 11 14 16 17 16 19 30 61 68 81 100 100 100 100 99 100 100 100 100 100 100 86 86 78 81 67 59 50 66 62 81 79 64 100 83 79
60 50 46 24 21 20 17 12 12 13 17 17 20 21 16 21 29 38 41 44 46 63 100 100 100 100 96 97 99 100 75 76 92 68 66 98 100 79 92 90 100 100 91 58
62 61 47 34 24 20 21 14 12 12 16 18 17 23 25 19 14 18 26 33 40 39 60 79 100 100 100 91 86 100 87 100 94 87 58 64 98 70 93 98 91 97 90 87
47 66 58 56 33 23 23 23 16 13 15 20 21 20 30 24 22 18 14 16 41 44 75 100 100 100 98 88 70 80 85 100 98 83 58 73 90 81 59 98 83 71 65 68
49 45 64 65 53 34 21 23 23 19 15 18 22 22 22 25 23 24 22 16 14 34 57 94 100 100 99 74 51 79 98 97 100 74 71 78 98 93 55 73 70 67 57 44
53 46 51 76 70 53 40 26 22 24 21 18 20 23 24 25 22 24 25 25 22 18 17 23 31 40 46 51 38 33 62 64 77 77 87 80 56 58 58 60 52 41 59 52
56 56 56 60 72 79 56 35 26 24 26 24 20 22 25 26 26 21 23 25 23 25 25 22 18 15 18 29 35 43 53 54 83 100 76 79 58 60 65 61 54 42 30 39
58 59 56 60 63 58 66 59 42 29 25 25 26 26 25 28 27 25 21 22 24 23 22 24 24 23 22 20 39 32 67 100 90 94 100 61 70 67 66 75 63 39 36 27
57 64 60 60 59 62 67 82 73 51 32 27 25 26 26 26 28 29 28 24 21 21 22 21 21 22 22 21 23 36 41 68 83 100 100 95 100 72 72 74 85 76 43 35
50 63 63 65 58 69 73 72 81 77 42 32 25 24 25 26 28 29 30 29 26 22 20 20 20 20 20 20 20 22 22 28 49 100 100 100 100 100 100 79 84 100 95 56
45 52 70 63 64 60 69 75 72 72 73 55 35 27 23 20 23 27 31 31 29 28 24 21 20 20 20 20 21 22 22 21 35 67 77 100 100 100 100 100 94 97 100 100
34 44 51 60 58 49 51 61 66 65 61 61 61 43 35 25 23 21 24 28 31 30 28 26 24 22 21 20 20 20 24 24 26 29 68 96 100 100 100 100 100 100 92 100
28 31 40 43 59 62 52 49 50 55 61 59 57 64 61 38 36 25 24 26 25 27 29 28 27 26 24 24 23 22 22 21 23 25 24 24 61 100 100 100 100 100 100 100
29 27 27 28 34 43 47 51 52 52 54 60 51 54 59 60 59 56 40 31 30 27 26 28 26 25 26 25 24 24 23 22 20 20 20 21 22 23 24 51 100 100 100 100
38 32 29 27 26 25 27 32 36 41 48 57 60 58 54 52 46 51 57 48 43 36 29 28 28 27 26 24 25 25 24 23 24 22 20 20 20 20 20 21 23 39 74 99
56 53 45 40 34 29 27 25 24 26 31 37 50 52 52 56 50 47 45 44 42 41 42 34 31 29 27 28 27 24 23 23 23 23 23 22 22 20 18 18 18 18 22 21

GFSCGP_250_rhum_096.txt.gz
RH
10 10 11 10 11 12 19 23 76 80 78 100 100 100 100 100 100 99 56 50 90 82 73 56 66 82 28 18 14 13 36 40 46 48 59 60 58 56 61 48 44 41 28 23
11 12 11 10 10 12 11 12 29 71 61 74 86 100 100 94 99 100 93 64 83 88 91 63 68 84 40 21 15 14 14 26 31 59 76 43 47 55 60 70 57 56 48 31
10 12 11 11 10 11 12 10 10 31 71 94 96 100 88 100 77 76 89 72 99 80 84 67 64 94 63 29 18 17 13 13 16 38 82 84 87 42 55 61 72 71 65 51
9 9 12 11 11 10 11 11 10 15 47 99 97 95 97 100 100 79 90 81 97 100 99 88 64 73 83 38 20 18 21 21 17 15 43 58 58 52 27 38 61 60 72 77
10 9 11 12 11 10 10 11 10 22 49 84 100 100 98 100 100 97 98 92 74 76 92 62 62 52 88 52 28 20 21 22 24 29 38 50 82 94 44 40 60 60 60 58
11 9 10 12 11 11 10 10 10 16 71 100 100 100 100 100 100 97 92 100 84 65 65 52 60 52 58 75 46 20 38 37 50 50 33 34 63 79 88 78 36 44 47 66
16 12 10 10 13 10 10 10 11 12 31 100 100 100 100 100 100 98 100 100 91 74 85 53 77 61 61 77 50 24 47 51 59 54 48 30 54 85 67 87 81 80 100 64
18 14 14 11 11 13 10 10 11 12 22 98 100 100 100 99 91 100 100 100 100 91 62 61 66 76 60 78 60 43 27 54 62 65 52 41 40 34 65 55 81 56 56 59
19 17 16 14 12 14 12 9 13 13 14 38 100 100 100 100 100 97 100 62 100 100 68 66 56 73 83 78 65 58 44 40 58 55 53 59 65 60 48 80 72 62 88 62
20 18 20 19 14 14 12 12 10 11 14 29 100 100 100 97 100 93 78 66 72 100 77 93 80 60 95 89 80 70 68 71 74 63 56 59 49 53 55 59 75 67 85 99
28 20 24 21 16 14 13 13 12 13 14 21 100 100 100 100 98 100 93 74 67 76 94 73 100 73 89 96 97 100 89 91 73 76 70 61 45 45 60 70 66 74 85 54
41 28 25 28 20 15 15 14 15 14 14 20 78 100 100 100 100 100 100 98 81 74 98 76 100 89 81 83 98 98 100 100 100 100 96 82 56 48 66 70 66 99 100 76
51 40 24 25 31 18 16 14 16 17 17 16 22 98 99 100 100 100 100 100 98 99 98 97 100 100 99 100 100 91 97 98 93 100 94 70 67 52 56 57 71 83 93 85
53 45 33 35 37 32 20 18 17 17 22 25 20 26 42 91 99 100 100 100 100 100 100 99 100 100 100 100 100 100 91 98 97 100 97 59 68 79 51 69 64 58 63 78
58 52 40 34 26 28 26 21 22 19 19 25 28 19 21 24 44 78 90 95 96 100 100 100 100 100 100 100 100 100 97 100 87 94 100 98 91 86 56 69 82 49 53 54
49 68 50 38 38 42 41 29 24 23 19 19 26 30 23 25 21 19 31 45 59 73 78 86 100 98 85 56 90 94 81 92 100 92 98 100 78 66 92 81 44 37 33 43
46 74 64 41 36 44 55 38 29 26 26 20 22 25 30 29 26 20 20 19 18 23 24 24 35 38 42 92 52 74 86 94 86 86 75 80 70 82 78 90 55 44 39 35
46 66 81 48 39 54 60 58 48 35 32 27 27 22 30 32 32 30 20 19 20 19 17 16 16 16 19 59 100 82 97 100 93 83 89 76 51 58 81 79 76 62 44 42
32 60 87 67 47 51 50 66 55 50 42 33 26 24 24 28 31 32 30 22 18 20 20 20 20 19 15 16 98 100 99 100 100 100 80 56 41 38 26 32 61 73 72 53
29 54 88 88 59 50 52 62 52 48 40 34 28 26 26 26 27 26 29 31 25 20 19 19 20 21 21 21 18 43 71 92 95 79 44 54 77 51 82 100 56 61 63 66
28 46 79 88 76 54 63 66 72 61 34 48 37 29 24 24 26 30 28 31 32 28 24 20 19 18 19 22 23 24 24 23 21 23 23 22 54 100 100 86 100 100 83 52
28 31 59 74 74 64 59 56 57 64 59 56 54 43 34 28 26 28 30 30 32 33 32 29 25 20 19 18 19 22 24 25 26 26 29 42 40 48 81 100 100 99 100 100
29 30 38 57 62 63 59 54 54 58 69 72 69 63 59 51 41 29 31 32 31 31 32 32 31 29 25 20 18 18 20 22 24 26 26 26 27 28 25 29 71 81 85 100
26 28 34 40 46 50 51 53 55 53 55 59 68 73 71 60 57 56 47 34 34 31 33 34 33 32 30 27 22 20 19 19 21 22 24 26 27 26 24 24 22 23 68 100
34 30 28 29 36 42 44 46 51 58 59 54 57 64 68 68 66 64 67 63 49 39 33 32 31 32 33 31 30 28 24 22 20 20 20 19 20 24 26 27 25 24 25 42
53 45 35 29 28 28 30 34 39 43 48 59 63 60 59 61 68 71 67 64 61 54 46 41 40 35 34 35 31 30 29 26 25 23 23 21 21 19 19 21 22 25 25 25

GFSCGP_250_rhum_102.txt.gz
RH
10 9 9 10 11 11 29 54 93 81 70 62 57 51 61 49 70 83 36 44 52 48 45 68 51 73 30 14 38 75 72 78 88 98 63 43 38 43 41 33 29 24 25 22
10 10 10 9 11 11 51 89 76 69 100 88 57 58 48 100 100 74 55 89 77 51 29 67 50 57 60 18 16 49 68 66 80 72 99 97 78 50 48 49 40 34 33 34
9 11 10 9 9 11 100 86 62 100 100 93 95 59 49 100 94 100 95 100 100 90 42 34 35 51 67 32 23 30 47 57 85 71 81 82 73 84 76 88 59 51 48 39
9 10 10 9 9 10 72 55 100 100 100 100 100 77 41 89 92 100 100 99 100 100 54 52 25 36 68 60 20 24 51 56 61 78 95 82 91 100 85 100 100 57 62 49
10 8 10 10 9 9 11 31 84 100 100 100 100 99 59 100 100 100 100 100 91 88 83 48 38 29 67 68 26 28 55 51 44 92 92 74 76 74 79 94 59 55 54 58
10 8 9 11 10 9 9 10 95 100 100 100 100 99 92 100 99 91 99 100 98 69 72 50 60 40 44 66 60 26 43 47 45 36 80 68 46 98 94 95 64 83 100 84
15 8 8 10 13 9 9 20 100 100 100 97 100 100 74 100 100 90 100 86 100 66 68 65 47 46 35 52 60 42 33 43 43 38 36 48 62 59 93 76 93 85 95 93
16 10 10 12 13 10 9 61 100 100 100 100 94 93 100 100 100 100 100 100 92 100 99 91 52 41 30 33 40 55 46 35 54 57 57 58 50 44 65 71 78 97 100 100
21 16 12 11 12 12 8 22 100 100 100 100 98 100 86 100 100 100 100 87 100 88 100 100 99 51 43 59 58 49 64 50 56 67 56 61 51 41 38 48 59 74 99 100
27 22 14 10 11 11 9 10 37 100 100 100 96 86 80 100 99 83 100 99 85 100 100 94 100 74 75 89 95 100 47 56 50 76 70 60 63 52 37 32 58 83 100 100
30 27 23 14 9 11 13 9 12 91 100 100 100 100 85 100 100 100 92 100 98 97 100 100 99 88 88 90 85 82 50 50 44 59 61 95 98 76 49 29 37 53 69 100
35 35 27 21 15 11 12 13 11 20 70 100 97 100 92 100 100 100 100 84 100 100 92 92 68 99 100 64 33 30 56 39 42 49 58 49 82 100 61 43 38 38 49 61
39 38 35 29 23 16 12 13 13 67 100 100 100 100 100 94 98 100 100 100 100 99 81 87 95 74 67 70 56 30 34 55 64 68 60 45 46 67 100 82 85 100 54 53
50 42 38 33 34 25 16 14 13 14 56 100 100 96 83 68 98 73 83 98 100 74 88 91 90 86 89 99 100 68 45 34 81 84 80 60 43 46 94 80 48 64 47 49
61 51 45 45 36 33 24 15 14 15 17 18 57 53 16 58 96 88 99 94 100 100 67 69 100 100 99 84 87 95 71 49 56 96 100 95 79 81 53 56 61 78 84 63
70 66 55 38 32 34 31 24 17 15 16 20 17 12 13 22 35 35 97 100 100 100 100 77 80 99 100 100 100 100 97 67 62 90 100 94 84 100 100 100 96 93 100 100
74 84 73 83 43 36 34 35 22 18 18 22 22 20 13 13 98 96 36 58 100 100 100 100 100 96 100 100 100 100 100 100 88 53 85 100 83 77 77 85 91 100 100 72
76 86 88 97 94 81 56 44 38 28 20 22 18 14 12 20 19 90 95 61 64 100 100 100 100 100 100 100 100 99 97 100 100 77 64 100 97 78 82 71 65 64 67 70
100 99 100 100 100 96 71 62 53 41 28 31 18 15 15 22 38 41 95 100 98 76 100 100 100 100 100 100 100 100 100 100 100 100 100 84 97 81 67 52 68 91 98 100
48 100 100 100 100 100 100 69 63 45 45 30 30 21 13 26 53 75 44 84 100 100 89 98 100 100 100 100 100 98 100 94 100 100 99 99 100 100 100 100 100 100 94 72
31 50 100 100 100 100 100 91 70 58 55 94 53 27 22 18 24 46 100 73 68 61 63 94 77 99 100 100 100 100 100 100 100 100 99 100 77 91 100 100 100 100 100 92
24 34 63 100 100 100 100 85 85 72 65 72 99 65 21 23 18 21 35 36 46 90 84 70 82 96 93 90 93 94 100 100 100 100 83 74 80 95 87 90 100 100 100 92
35 26 40 54 100 100 98 75 100 100 57 77 70 63 33 21 22 17 19 29 36 34 31 48 45 58 80 89 98 80 83 85 100 100 100 100 100 100 100 100 100 100 100 100
31 34 26 35 42 72 66 77 99 98 84 54 66 62 47 42 29 22 20 20 24 28 31 35 26 17 16 20 41 74 93 93 98 100 100 100 100 99 77 86 97 85 81 78
31 30 27 26 30 45 69 67 65 74 69 56 54 69 66 50 48 36 26 26 28 26 23 22 25 29 26 20 15 14 28 54 60 63 70 79 88 92 92 84 77 59 35 32
41 36 30 27 26 24 26 29 38 37 45 46 53 58 60 72 65 49 47 44 42 42 38 32 25 23 22 23 25 24 20 16 14 18 26 31 34 36 32 30 26 21 19 18

GFSCGP_250_rhum_105.txt.gz
RH
8 8 9 10 10 11 29 51 46 89 100 100 100 98 66 43 59 58 56 48 50 42 35 58 43 28 16 33 48 58 85 91 92 81 70 72 89 71 55 46 42 85 63 42
7 9 9 10 10 10 17 54 43 48 72 100 100 100 100 46 52 48 59 57 68 69 38 29 40 43 21 26 35 55 81 80 90 74 86 94 100 100 94 59 43 46 76 76
8 9 9 8 10 10 11 44 59 50 90 100 100 99 100 59 52 39 98 66 77 95 73 40 29 42 51 22 40 55 100 82 82 82 82 92 100 80 73 69 61 54 71 91
8 8 10 8 10 10 11 36 60 51 76 93 100 98 100 95 60 51 100 91 100 96 100 76 45 30 49 50 24 38 38 71 86 91 84 96 100 100 100 99 98 76 77 99
12 8 10 9 10 9 11 14 37 48 81 100 100 100 98 100 64 77 72 99 100 100 96 90 65 55 38 73 24 43 41 46 68 76 88 100 94 96 98 76 99 100 95 95
15 8 8 10 9 9 11 11 69 90 88 100 100 100 100 100 94 66 100 96 100 100 100 66 54 47 43 52 58 39 36 33 34 57 64 99 100 75 86 98 100 100 100 100
24 14 10 10 8 9 10 12 30 100 100 100 100 100 100 100 96 74 59 82 100 100 96 67 56 57 36 45 51 29 43 35 35 40 46 54 68 97 89 90 92 100 100 100
27 20 13 10 10 10 10 15 50 76 100 100 100 100 100 98 100 85 71 82 88 100 100 99 65 75 36 30 37 43 31 41 47 43 42 47 54 64 62 86 95 98 97 100
35 26 12 10 11 12 11 30 100 100 100 100 100 100 100 94 100 100 89 91 100 89 100 100 98 100 76 68 33 42 41 42 44 43 34 34 36 50 51 91 100 100 98 100
34 30 18 10 11 11 10 65 82 100 100 100 99 90 100 77 86 100 89 100 66 95 100 92 87 100 73 100 97 59 100 90 50 56 45 31 37 68 51 58 63 88 100 90
29 30 23 17 10 12 9 20 52 100 100 100 100 100 100 95 63 100 100 100 100 100 100 84 76 84 82 100 86 97 100 100 86 57 57 92 68 79 76 69 62 64 61 90
36 33 31 22 13 12 10 12 11 38 100 100 100 96 100 57 50 85 100 100 100 100 92 97 100 79 91 99 72 100 97 97 95 74 81 74 82 86 100 99 60 56 87 87
40 43 36 32 21 15 12 12 10 13 100 100 99 100 93 34 37 96 98 100 100 100 100 100 70 100 76 98 75 100 93 98 100 78 75 93 49 50 84 99 100 100 96 96
51 40 42 37 30 19 12 10 11 11 65 100 100 100 100 48 33 85 100 94 100 100 100 100 99 92 100 98 100 100 100 100 100 40 38 38 32 38 39 57 90 100 100 100
46 44 43 37 35 28 16 12 11 11 12 71 100 99 81 70 50 75 100 100 100 100 100 100 100 82 100 93 100 100 100 100 100 97 83 40 46 61 43 42 30 25 41 41
67 42 38 35 38 32 24 18 11 10 14 15 73 100 100 84 64 97 100 100 100 97 100 100 100 100 100 100 100 100 100 100 100 100 100 73 48 76 74 64 83 55 43 35
71 65 36 35 44 38 37 20 15 11 14 15 13 70 94 100 100 100 100 100 100 100 87 88 100 94 97 100 100 98 100 100 100 100 100 100 89 58 94 100 90 67 66 77
100 67 73 54 44 41 35 34 24 17 14 14 11 14 27 95 100 100 100 99 100 100 100 100 96 87 80 91 98 100 100 100 100 99 100 100 87 68 73 99 98 78 59 63
33 92 68 65 52 47 42 46 38 32 26 15 13 11 12 12 55 100 100 100 93 78 100 100 100 100 100 97 57 55 95 98 89 83 96 99 100 98 71 66 73 81 66 59
30 29 90 63 73 62 52 47 41 41 39 30 17 29 34 52 12 15 80 100 100 100 73 82 95 99 100 99 100 92 100 94 100 100 87 81 100 87 84 99 84 70 62 57
26 44 58 90 66 86 79 59 57 47 45 36 34 28 68 44 80 33 30 32 96 85 99 90 34 79 100 100 100 100 100 100 100 100 100 100 100 100 100 100 100 91 76 74
21 29 50 98 100 100 100 95 77 70 67 60 43 41 44 60 100 100 88 53 49 100 95 82 81 100 99 100 93 100 100 100 100 100 100 100 100 100 100 100 100 100 100 98
24 25 38 100 100 100 100 100 99 87 89 78 44 44 100 42 72 100 98 87 20 21 38 37 36 86 86 94 99 100 100 100 100 100 100 100 100 100 100 100 100 100 100 100
73 34 26 80 100 100 100 100 93 83 89 88 74 66 51 96 87 100 100 90 73 47 25 34 29 29 36 65 50 49 44 90 100 100 100 100 91 100 97 100 100 98 100 100
26 37 50 30 78 100 100 95 96 96 84 99 63 70 63 51 98 91 90 100 99 70 60 42 36 34 25 20 37 71 77 70 78 96 100 100 100 99 100 100 100 100 100 100
35 26 30 44 34 46 83 100 100 86 80 77 71 49 55 70 86 66 53 48 79 61 57 66 36 24 34 46 57 44 26 36 47 60 74 82 80 84 88 91 87 92 82 81

GFSCGP_250_rhum_108.txt.gz
RH
9 8 9 10 11 10 13 44 76 96 100 100 100 100 85 100 94 65 54 49 46 42 70 51 39 18 32 29 60 69 69 61 66 66 66 64 61 73 84 74 78 83 81 100
9 11 8 10 10 10 11 37 44 84 80 100 97 97 100 97 100 54 56 67 52 48 40 36 45 26 26 28 60 66 71 63 59 52 63 76 89 75 80 97 87 74 86 78
9 10 8 8 10 11 11 22 23 50 64 99 100 100 100 91 100 89 57 46 62 73 50 34 39 47 26 29 30 52 63 66 67 63 67 84 88 100 91 89 77 76 90 79
8 8 8 7 9 11 11 15 48 52 57 100 97 100 76 78 96 88 45 51 88 87 71 63 61 47 54 29 32 38 46 61 68 62 46 59 70 100 100 95 98 82 68 68
9 8 7 7 9 10 11 10 39 64 56 100 100 91 100 97 100 97 56 48 88 100 100 77 85 55 53 55 32 30 33 47 48 65 56 53 62 100 100 97 92 100 95 96
15 11 9 6 8 9 10 12 18 58 43 90 100 81 100 100 100 94 87 42 99 84 88 100 92 74 61 60 57 41 25 41 50 58 73 79 78 79 100 96 100 93 100 100
18 17 12 7 8 9 10 12 12 52 40 52 78 100 100 100 100 72 89 62 84 62 94 96 72 87 56 61 59 38 36 36 42 48 43 64 63 87 90 93 78 100 72 90
26 23 15 10 10 11 13 11 12 40 69 89 100 100 92 99 82 64 60 100 97 88 54 100 65 86 69 52 51 50 36 31 36 40 47 36 41 45 96 74 94 79 58 69
31 26 16 10 9 12 15 12 12 16 61 97 100 100 90 98 68 65 47 100 100 100 50 83 82 89 63 44 39 46 40 29 41 36 45 59 47 52 68 98 100 96 84 78
27 24 19 14 10 12 12 11 11 12 48 100 100 100 100 100 80 90 62 97 100 100 63 100 70 91 90 78 84 77 54 69 52 43 36 46 60 81 64 60 72 100 98 86
33 26 23 15 11 15 15 13 11 12 34 100 100 100 100 100 91 54 45 76 100 93 86 85 60 100 66 98 100 98 100 100 100 100 77 48 79 100 99 94 60 64 69 77
47 39 28 22 13 14 15 16 11 12 33 100 100 100 100 100 100 71 51 37 96 89 97 98 48 100 69 72 100 100 98 100 100 84 99 79 80 100 97 93 100 97 94 100
55 57 41 30 18 14 15 16 11 11 26 100 100 100 100 100 95 84 60 59 60 81 100 98 56 72 87 52 79 100 100 100 100 90 100 100 100 100 98 76 30 38 66 92
52 61 45 36 23 18 14 16 14 11 19 47 100 100 100 100 81 99 57 56 62 81 100 100 100 96 77 64 71 48 94 100 100 100 96 100 100 99 100 83 58 30 23 42
64 56 49 37 29 28 21 14 15 12 12 100 100 100 100 100 100 67 80 44 91 100 100 100 100 100 87 92 58 86 98 78 100 100 100 100 100 69 72 81 95 57 40 32
56 52 43 46 37 29 18 13 15 14 12 90 100 100 100 100 100 69 46 56 93 100 100 100 100 93 100 100 89 85 95 100 100 100 100 100 100 100 100 94 73 58 50 47
56 52 41 41 41 34 25 19 13 15 13 25 100 100 100 100 98 90 83 78 100 100 100 100 99 100 100 98 100 95 100 100 100 98 98 98 100 98 100 100 98 82 68 68
83 62 51 48 36 35 33 25 15 13 14 21 87 100 100 100 100 97 92 100 100 100 100 100 99 95 100 100 99 100 100 96 100 100 98 98 100 100 100 100 100 100 96 76
54 76 60 55 49 33 36 29 16 18 13 12 37 92 100 100 100 100 70 100 100 100 100 100 100 100 100 100 100 100 100 100 100 100 100 99 100 100 100 100 100 100 82 100
39 51 93 81 54 44 37 35 26 24 16 12 13 17 45 70 99 100 100 49 88 100 100 100 100 100 100 100 100 93 91 93 93 100 100 100 100 100 100 100 100 79 66 83
29 36 56 99 95 55 58 40 35 30 17 15 12 13 13 14 18 58 100 99 67 97 100 100 100 100 100 100 100 100 100 100 100 100 100 100 100 100 86 77 67 73 97 84
21 26 36 52 99 85 70 72 43 38 29 18 18 14 13 15 14 16 39 92 100 91 100 98 99 100 100 100 100 93 100 100 100 93 99 96 100 100 100 88 56 50 72 55
36 34 69 35 44 94 99 88 83 60 42 27 26 20 18 13 18 17 18 28 72 85 87 85 99 100 100 100 100 100 78 98 100 98 69 58 63 82 72 71 100 100 70 99
53 42 51 30 26 57 100 100 100 98 73 46 30 31 26 21 23 34 38 33 18 30 78 73 83 99 95 94 100 100 100 100 100 100 100 100 100 100 100 100 99 100 100 100
43 58 47 45 38 35 64 85 99 100 74 73 62 36 38 40 35 36 59 99 85 56 63 69 54 56 72 95 96 90 94 96 98 93 92 97 96 100 100 100 100 100 100 86
35 30 34 32 35 51 52 70 85 92 89 68 65 72 51 37 36 37 42 61 100 100 90 71 54 31 34 33 41 57 58 66 79 84 94 88 84 67 100 100 100 100 100 100

GFSCGP_250_rhum_111.txt.gz
RH
8 11 12 9 9 8 9 20 96 100 95 100 100 100 100 100 100 90 75 42 39 39 38 40 22 20 40 50 38 38 38 57 74 93 89 78 79 66 69 56 98 36 33 40
7 8 11 8 8 7 8 16 92 100 100 96 100 100 100 100 100 100 95 51 46 46 32 42 28 25 29 44 50 29 40 58 65 73 98 99 78 55 71 71 64 37 19 36
8 7 9 9 7 8 8 11 86 100 100 100 100 100 100 100 100 98 96 68 56 52 38 42 49 34 24 27 56 49 35 67 60 61 90 92 100 100 98 95 76 73 61 30
7 6 7 8 7 7 9 8 45 98 100 100 100 100 100 100 80 100 100 70 51 66 54 36 53 46 38 21 33 58 56 56 75 61 69 70 79 100 100 100 100 98 86 68
7 6 7 7 9 7 9 7 11 53 100 100 100 100 100 99 100 100 100 99 56 54 66 63 71 52 53 39 19 34 50 69 73 86 78 82 63 76 99 59 95 100 100 86
9 7 6 7 8 8 8 8 9 26 81 100 93 100 100 90 100 81 65 70 70 50 84 71 83 62 56 52 35 25 49 60 67 82 87 90 81 63 59 55 37 81 100 100
11 9 7 6 7 9 8 9 9 12 55 100 100 100 100 100 95 56 64 80 91 48 81 87 97 75 73 50 46 22 40 52 53 43 53 49 71 96 59 55 41 48 77 100
18 10 9 7 6 8 9 8 10 12 34 73 100 100 100 100 100 73 96 61 66 50 64 72 74 82 97 58 46 24 35 44 51 49 40 40 48 85 93 78 72 64 77 71
32 14 11 9 7 8 10 10 10 11 15 70 100 100 100 100 99 98 100 99 58 69 78 59 51 52 100 69 53 32 29 27 46 58 55 55 49 54 77 54 62 80 80 84
42 24 17 11 11 10 10 9 10 11 13 46 100 100 100 100 96 95 92 81 75 60 78 80 59 41 53 98 81 60 48 41 37 50 58 55 55 66 73 77 60 56 78 77
67 38 27 14 12 13 12 10 11 11 12 24 100 100 100 100 99 100 100 97 74 51 59 100 88 53 45 86 100 87 99 67 66 83 79 88 80 64 100 100 75 62 70 96
74 51 30 22 15 18 16 12 12 11 12 16 70 100 100 100 94 100 100 92 61 44 49 92 97 66 37 48 100 68 86 87 100 100 100 98 100 62 83 87 100 100 94 92
82 58 39 27 20 24 16 12 12 12 12 14 19 49 100 100 97 100 87 67 52 50 59 86 99 70 51 49 84 62 100 100 90 99 100 100 99 96 99 75 93 88 80 60
87 60 41 32 32 25 19 15 14 13 12 14 16 44 100 100 100 93 72 56 56 46 63 70 100 100 78 93 65 61 80 86 97 100 100 100 99 100 84 87 91 88 77 46
65 69 39 38 33 29 22 20 15 16 13 13 16 59 100 100 97 100 100 54 57 55 54 98 100 100 92 100 86 67 77 73 76 100 100 100 100 100 97 95 99 91 89 82
32 75 45 40 31 26 25 21 16 15 16 13 15 94 100 100 100 99 100 92 49 86 67 87 98 100 100 95 69 86 96 76 64 52 82 100 100 100 98 91 100 100 82 97
24 62 51 38 34 32 29 24 20 16 16 16 15 98 100 100 100 92 100 95 75 78 100 73 100 100 96 90 76 86 100 100 81 66 71 76 97 95 100 97 100 100 100 100
23 60 65 49 38 33 27 29 23 22 16 16 16 38 100 100 99 99 100 83 78 95 100 100 100 100 100 100 100 100 100 96 71 93 100 100 100 100 90 76 85 100 100 98
24 42 90 62 40 45 28 34 28 23 16 16 16 16 41 100 100 100 100 99 82 100 99 100 100 98 97 100 97 98 90 78 87 100 100 100 100 100 100 100 100 100 99 100
24 29 75 86 60 48 53 37 35 26 15 16 16 16 18 40 82 100 100 100 100 98 100 100 100 100 100 100 100 100 100 90 100 100 100 100 100 100 100 100 100 96 88 100
23 32 36 97 92 69 60 36 43 31 19 17 16 15 16 19 35 83 100 100 100 100 100 100 100 100 100 100 100 100 100 78 97 100 100 100 99 100 100 100 100 100 94 83
23 32 38 46 96 92 83 50 40 46 31 24 19 16 16 16 20 29 85 100 100 100 100 100 100 100 100 100 100 100 100 100 92 87 100 100 100 100 100 100 100 100 92 94
29 24 28 34 50 90 92 68 53 41 44 32 26 18 16 16 17 18 38 90 94 100 100 100 100 100 100 100 100 100 100 100 100 97 100 100 100 100 100 88 87 100 100 100
46 36 22 22 26 43 74 78 68 59 41 39 32 27 22 16 16 16 18 34 86 98 100 99 100 100 100 100 100 100 97 99 100 100 100 100 81 100 100 100 100 100 100 100
34 47 44 31 29 24 29 55 84 72 62 53 42 35 30 25 20 15 18 20 26 67 89 92 94 86 100 100 100 100 100 100 100 92 92 99 100 100 100 100 100 100 100 100
39 37 32 40 34 28 26 25 35 92 99 75 54 51 35 33 30 28 23 27 23 22 33 83 94 99 93 69 89 100 100 100 100 100 100 100 100 100 100 100 85 77 79 100

GFSCGP_250_rhum_114.txt.gz
RH
7 7 8 10 8 8 8 11 63 100 100 100 100 100 100 95 100 82 66 46 38 32 22 20 22 43 51 46 43 52 59 82 84 78 82 68 63 51 27 47 61 25 23 24
8 7 6 8 8 8 8 9 28 99 100 100 100 100 100 100 100 99 87 58 42 39 26 26 22 32 45 43 55 62 58 62 82 92 100 92 85 78 61 41 66 65 37 45
12 10 7 6 8 7 8 9 14 87 100 100 90 100 100 100 100 100 75 68 55 45 25 38 31 24 31 38 53 60 57 52 50 71 79 92 97 100 77 51 41 65 71 62
13 10 10 9 7 7 7 8 10 61 100 100 95 100 100 100 100 100 71 45 86 50 32 34 42 35 24 33 29 48 63 38 43 64 72 55 80 76 98 99 89 42 38 41
16 10 7 8 7 6 6 7 9 32 100 100 100 100 100 100 94 80 69 41 95 57 57 38 45 44 39 28 29 41 46 49 46 56 58 65 44 42 76 98 100 97 47 31
16 12 6 6 7 7 6 7 8 31 100 100 100 100 80 81 100 69 57 44 97 77 63 62 68 55 46 39 28 46 51 49 55 56 68 75 71 66 46 68 92 100 100 80
18 12 8 5 6 6 6 6 7 12 99 100 100 100 65 100 100 100 80 42 96 98 53 66 71 62 40 50 39 42 48 41 44 45 49 64 67 62 59 62 75 88 93 100
24 13 12 9 6 7 7 6 7 8 79 99 100 100 83 100 100 100 80 51 74 100 60 58 76 80 56 43 45 37 48 47 37 34 41 52 75 70 64 62 63 74 79 84
37 22 18 11 8 6 7 7 6 8 63 94 97 100 100 72 99 100 84 88 68 98 96 61 63 76 55 50 57 34 40 45 42 45 50 48 70 60 64 65 68 54 59 77
39 38 23 19 11 8 7 8 6 7 27 74 83 100 100 100 84 100 100 99 66 74 77 51 64 48 42 34 64 58 32 34 34 47 54 58 48 70 86 67 62 67 64 62
48 62 28 22 16 10 8 7 7 7 8 26 45 99 100 100 99 74 88 87 76 97 65 62 71 57 41 38 62 64 71 52 39 37 51 65 73 88 84 97 72 82 79 71
56 70 36 30 19 13 9 7 8 7 8 10 17 48 100 100 100 100 92 100 95 100 99 63 63 64 45 44 45 54 100 100 99 98 80 100 100 100 100 100 93 100 100 96
70 75 48 34 33 18 11 9 9 8 7 8 11 15 53 100 100 100 99 100 98 100 86 61 55 68 75 74 54 59 66 100 100 89 92 99 83 100 100 80 83 98 78 78
63 62 39 26 53 24 15 9 11 10 8 8 10 14 19 78 100 100 100 100 100 100 100 72 75 53 80 92 79 68 51 71 100 86 70 56 54 94 66 45 64 86 100 84
54 35 29 25 54 38 25 14 12 13 10 9 10 12 16 63 99 100 97 100 100 100 92 96 96 65 44 79 96 66 70 59 69 90 89 98 74 83 90 96 93 87 69 79
29 22 23 23 61 54 32 21 14 12 13 12 12 13 16 28 100 100 98 95 100 100 100 100 100 74 42 47 98 100 72 70 67 75 100 100 89 73 78 82 87 89 58 70
19 15 20 25 60 52 40 33 18 15 18 16 14 14 17 22 89 96 100 92 98 100 100 100 97 72 53 53 67 98 98 96 70 80 99 100 98 86 89 100 88 76 98 54
11 12 20 24 44 46 47 42 27 18 23 23 17 17 18 25 38 71 100 99 78 78 95 100 94 66 56 56 83 92 95 100 94 86 73 96 85 97 87 100 100 100 97 98
10 11 18 23 56 76 49 39 39 28 22 23 22 18 22 19 88 68 89 100 99 93 85 76 96 72 63 49 65 100 98 100 97 78 78 89 89 89 79 60 56 91 98 100
12 13 22 30 93 79 56 40 36 36 26 25 24 32 26 28 40 100 82 100 100 100 90 71 76 96 68 90 100 100 100 100 79 74 59 73 100 91 100 100 100 100 66 54
15 14 23 30 92 92 75 58 38 37 33 27 26 21 24 46 37 31 45 100 100 100 100 100 91 95 91 99 100 100 100 100 100 100 100 99 100 96 100 100 100 100 100 88
20 19 19 28 69 100 98 80 42 42 37 28 39 28 21 35 68 39 26 82 94 100 100 100 100 100 100 100 100 100 99 97 100 99 100 95 100 100 100 100 100 100 100 98
26 35 22 23 31 95 100 93 54 37 42 30 31 23 21 22 43 62 35 36 96 99 100 100 96 100 99 82 86 100 100 100 100 98 79 97 82 100 100 100 100 100 100 100
34 26 43 25 27 40 99 100 95 47 35 40 36 35 27 24 19 41 42 40 45 97 72 100 100 100 99 100 100 90 100 100 90 100 100 100 98 100 100 100 100 100 100 92
41 35 28 40 26 27 37 93 100 92 44 41 47 40 36 28 24 21 26 30 27 34 74 100 100 100 100 89 99 100 100 100 100 95 100 100 100 86 99 100 100 100 100 100
41 43 38 33 36 33 26 31 67 98 85 62 45 52 43 42 35 27 21 20 21 21 24 35 88 99 100 100 100 100 77 64 83 100 100 100 100 100 100 100 100 100 100 100

GFSCGP_250_rhum_117.txt.gz
RH
7 7 8 10 10 9 9 9 13 50 100 82 62 63 48 98 84 90 59 41 38 26 18 39 34 32 33 53 73 94 84 74 74 61 44 37 54 58 25 25 27 26 27 33
7 6 6 8 9 9 10 9 11 20 100 100 76 84 66 78 43 100 66 42 40 34 24 25 40 36 36 33 62 66 79 90 89 82 67 57 48 57 44 52 59 49 34 26
8 8 6 6 6 8 8 9 9 12 100 100 87 76 47 79 75 86 86 52 47 33 26 23 28 37 39 36 37 58 58 77 55 80 69 86 79 59 61 66 59 71 75 21
16 15 14 12 8 6 8 8 9 10 73 100 90 75 68 100 100 37 100 70 64 47 36 30 28 21 30 24 41 32 49 57 52 39 60 79 83 88 71 41 43 50 52 23
18 16 12 11 10 9 6 7 8 9 33 100 100 93 100 100 69 50 100 79 67 57 35 42 35 32 26 20 36 40 34 46 55 57 56 70 84 79 100 84 36 41 24 19
23 21 16 14 9 9 9 6 7 8 14 96 100 89 65 100 78 76 100 77 55 73 56 36 40 40 37 30 28 35 48 50 51 51 39 45 77 92 76 91 97 66 33 24
32 27 22 18 13 11 7 6 6 7 9 42 100 77 73 92 64 99 100 68 45 65 85 61 58 49 40 43 31 47 50 55 41 42 58 48 56 67 84 69 80 100 93 64
42 35 25 21 15 10 8 7 5 6 8 14 97 99 72 81 100 73 68 55 44 52 94 68 65 64 36 48 41 49 43 40 40 41 39 46 48 51 52 68 56 67 87 92
40 38 32 31 22 11 9 7 7 5 7 11 93 100 74 86 82 89 100 100 94 78 73 94 65 77 60 55 44 36 51 46 50 48 48 41 54 46 53 58 71 74 72 87
47 40 38 34 26 19 13 8 7 6 6 9 85 100 74 68 92 89 100 98 100 56 79 81 68 74 82 69 46 33 42 50 49 51 57 51 46 68 47 42 54 53 54 73
53 54 40 34 25 25 16 10 8 6 6 8 57 100 86 97 100 93 100 100 88 63 92 75 78 58 68 80 80 41 37 47 45 38 53 64 74 83 92 59 54 56 52 51
57 54 48 34 31 25 16 11 9 6 6 7 20 100 100 85 98 100 100 100 92 64 97 75 66 50 55 66 67 75 42 36 50 44 43 47 98 100 100 100 80 84 95 82
59 60 53 37 37 24 20 14 10 7 6 6 9 83 100 95 89 100 100 100 95 81 98 84 96 81 49 58 57 88 70 44 35 56 68 100 100 100 100 100 100 93 90 95
69 64 50 39 40 27 23 14 12 9 7 7 8 42 100 100 76 99 100 100 100 100 88 62 76 89 69 51 53 70 63 56 57 52 89 79 90 100 64 76 87 83 95 95
75 58 44 37 32 29 26 20 15 10 8 8 7 10 65 97 100 100 96 100 99 100 86 81 53 52 95 86 51 56 65 65 69 54 70 83 66 65 60 72 74 60 56 72
60 46 34 28 26 25 26 33 15 12 10 8 8 8 12 88 100 100 99 100 73 100 100 100 73 61 97 87 92 83 61 59 72 70 61 79 75 69 48 56 58 41 37 29
62 42 27 20 15 19 24 47 23 16 12 9 9 8 10 27 84 98 100 98 68 88 100 100 96 83 100 100 100 98 90 73 66 95 89 81 57 61 71 77 63 77 72 68
56 32 22 10 12 21 52 55 34 24 20 13 9 9 9 15 25 63 97 100 100 100 100 100 100 100 100 100 100 87 77 61 58 62 90 87 82 79 92 100 100 100 92 84
44 28 14 9 15 25 58 77 56 36 24 14 10 10 10 16 63 32 32 100 100 100 100 100 100 100 100 100 100 100 88 62 56 66 90 89 82 77 84 100 100 100 100 90
41 24 12 12 21 29 96 92 71 57 36 21 12 16 20 19 27 46 29 34 92 100 100 100 100 100 100 100 100 100 100 96 67 69 99 100 100 100 100 93 82 75 84 88
39 26 14 17 24 55 100 99 94 84 94 39 22 18 22 44 44 66 65 25 36 64 100 100 100 100 100 100 96 100 100 88 69 58 61 87 100 100 99 100 80 75 70 100
48 31 19 19 25 68 100 100 100 95 89 68 36 27 50 55 64 97 100 52 25 70 90 99 97 100 100 100 97 98 98 82 74 66 62 67 90 100 100 96 88 78 86 100
54 37 25 18 26 50 99 100 100 100 100 65 42 48 98 100 92 97 96 74 78 28 73 100 93 78 92 100 100 95 94 88 78 67 63 75 80 70 58 94 97 100 100 100
64 41 34 28 21 31 84 100 100 100 100 94 50 37 78 100 100 71 64 70 90 100 88 61 100 100 90 100 100 100 100 80 82 86 72 79 95 88 100 100 100 100 100 100
73 47 38 29 34 23 36 98 100 100 85 94 60 45 53 70 85 92 74 52 52 100 100 74 92 100 100 100 99 92 100 100 96 98 99 99 100 97 100 100 98 100 100 98
86 52 38 37 31 34 27 37 98 100 100 67 70 52 50 54 51 63 70 74 53 90 100 100 100 100 100 100 100 100 97 94 100 100 96 98 99 90 100 100 100 96 96 100

GFSCGP_250_rhum_123.txt.gz
RH
8 8 9 8 9 9 10 11 10 10 26 60 97 100 73 63 98 84 46 27 24 32 45 43 65 84 85 73 64 62 63 58 46 45 61 58 31 37 38 28 31 30 31 29
7 8 8 9 9 9 9 10 10 10 10 67 80 100 52 70 73 73 82 38 24 21 36 41 53 62 90 91 78 71 68 69 65 83 93 76 71 26 26 22 27 25 22 24
8 7 8 8 9 8 8 8 10 10 11 13 49 100 72 53 62 54 49 69 30 23 33 42 41 65 69 88 99 75 74 83 76 54 73 74 84 54 18 20 22 22 23 22
8 8 7 7 8 9 9 8 8 9 10 12 12 83 97 67 60 29 52 63 38 27 28 46 42 46 69 64 69 88 64 68 74 58 33 33 39 37 19 17 19 16 16 15
8 8 8 7 7 8 8 8 8 8 8 10 12 35 99 76 58 33 70 50 55 28 23 36 34 39 44 68 68 87 74 80 92 100 74 26 19 20 23 17 12 13 13 12
12 11 11 10 9 9 9 9 8 7 7 8 10 15 100 83 60 40 58 66 50 35 23 23 23 23 23 48 59 76 65 100 94 72 82 76 18 25 15 12 8 8 8 8
26 26 24 23 22 22 22 20 14 12 7 6 7 11 23 100 50 56 35 93 51 38 31 28 26 26 22 22 50 55 67 66 100 67 65 80 42 13 16 10 6 6 7 9
28 28 30 30 31 28 23 18 17 14 12 7 6 7 11 57 92 60 30 82 77 54 37 35 30 35 35 29 31 50 56 66 84 100 81 76 90 44 14 8 8 8 9 10
33 31 38 36 39 40 31 26 17 13 12 11 8 6 8 12 85 60 36 73 100 82 61 46 39 36 36 40 30 50 44 64 69 79 97 100 83 77 74 58 38 17 19 26
43 34 41 42 41 42 38 29 22 18 17 14 10 7 5 8 47 80 37 46 85 99 90 54 48 43 39 48 34 46 40 55 58 58 75 96 89 73 100 99 83 75 77 63
46 44 30 46 34 33 29 22 22 22 21 17 13 9 8 7 10 91 42 38 100 99 100 98 70 54 49 53 46 43 40 40 42 49 56 64 66 60 62 95 68 77 100 74
52 49 47 50 46 44 35 30 30 34 30 21 15 11 9 6 7 72 42 53 100 77 100 90 74 62 56 60 60 38 44 41 37 37 44 57 62 45 45 46 63 86 86 100
56 56 51 39 30 39 48 40 33 27 25 27 26 14 14 7 6 32 55 57 83 59 99 100 64 73 66 68 69 63 37 45 46 43 34 36 45 67 70 39 43 91 69 54
50 54 53 44 34 34 60 50 42 34 27 29 27 14 13 11 6 7 92 53 75 72 99 91 58 52 80 76 72 71 69 46 40 46 47 44 43 38 89 100 100 57 70 92
54 39 37 40 37 52 64 51 52 75 45 27 28 23 14 21 6 6 62 86 85 95 88 92 100 65 60 81 82 74 67 79 52 41 43 42 37 34 75 64 58 79 69 60
33 39 41 47 40 44 52 51 47 83 36 34 31 34 21 69 55 6 13 98 100 91 76 70 100 85 49 91 91 93 76 69 82 72 42 50 50 37 50 100 100 95 83 68
55 74 70 59 44 51 57 51 34 36 30 35 31 26 28 22 82 15 8 96 100 100 82 66 100 100 36 73 100 100 97 58 67 94 98 71 66 59 63 85 94 100 100 100
67 64 70 54 50 43 34 34 32 29 30 31 58 21 24 99 34 37 10 82 100 100 100 100 100 100 97 60 52 81 99 97 92 93 96 74 68 66 58 74 72 89 100 100
60 54 67 56 56 35 28 33 22 13 14 18 30 85 25 62 76 21 23 52 100 100 100 100 100 98 74 98 99 80 94 100 94 94 100 94 65 68 63 66 95 100 100 100
87 64 59 61 47 32 29 68 84 61 10 10 17 26 21 14 33 36 18 24 100 100 100 100 100 100 78 100 100 100 81 89 100 100 100 99 100 80 62 57 62 66 62 57
62 63 64 64 42 32 25 15 18 33 23 26 20 22 21 17 35 60 12 12 98 100 100 100 100 100 100 100 99 100 100 92 100 100 100 100 93 97 82 58 63 64 66 59
70 56 80 62 38 36 25 15 17 23 84 100 51 34 26 27 42 55 45 13 31 100 100 99 93 89 100 100 94 95 100 100 100 100 100 92 85 94 73 74 72 80 96 94
60 80 82 52 38 38 27 17 24 27 46 59 68 45 33 39 76 76 84 47 12 83 100 100 100 100 100 100 100 100 100 100 96 100 100 58 89 100 90 88 86 60 61 90
56 91 79 49 40 38 28 21 25 34 52 79 70 81 77 100 100 100 100 100 21 58 100 100 100 100 100 100 100 100 100 100 100 100 100 100 100 100 100 98 98 100 94 86
64 85 79 51 48 41 40 28 26 56 84 78 85 91 96 96 100 100 100 100 83 100 96 100 100 100 97 100 100 97 100 100 100 100 100 100 95 100 98 95 74 55 69 73
74 94 80 56 50 59 65 33 29 46 94 94 87 88 68 100 92 100 100 100 100 92 100 100 100 100 100 100 100 100 100 100 100 100 100 100 97 97 77 79 100 100 93 83

GFSCGP_250_rhum_129.txt.gz
RH
8 7 7 8 9 9 8 8 8 9 21 73 90 100 98 100 63 96 97 85 100 34 30 42 56 73 64 70 81 60 75 83 69 35 57 52 94 62 68 88 84 89 51 48
8 8 8 7 7 7 8 8 9 8 10 18 62 98 100 100 92 91 100 100 100 35 32 32 48 46 62 64 82 98 71 57 79 35 24 40 42 42 36 45 41 46 47 27
7 7 8 8 6 6 6 7 8 10 8 10 28 75 90 100 100 100 74 98 93 51 91 38 36 51 48 59 68 100 99 74 65 54 26 40 24 27 30 33 32 36 47 26
7 8 8 7 7 7 6 6 7 8 9 9 10 17 85 78 100 82 65 80 89 81 100 55 32 43 45 56 56 100 100 97 55 52 36 35 34 34 35 23 22 25 46 86
7 8 8 7 7 7 7 6 6 6 8 8 8 10 14 84 86 74 46 63 77 100 100 32 31 40 38 44 50 87 81 61 60 44 25 26 24 30 17 17 16 17 57 90
8 9 8 8 8 7 7 7 6 6 6 7 8 8 10 16 86 86 68 44 64 81 68 52 38 42 33 32 40 64 73 62 54 57 48 28 19 13 16 21 13 12 28 66
10 10 10 10 10 8 8 8 8 6 6 6 7 8 8 10 13 66 93 99 72 79 99 88 100 33 35 24 34 40 65 55 45 41 43 48 24 21 16 12 8 8 19 22
11 11 12 11 10 9 9 9 8 7 6 6 6 7 7 8 10 10 41 94 78 52 78 78 100 27 26 24 24 36 32 60 46 39 24 18 10 8 8 8 7 9 12 13
14 14 15 12 12 12 11 11 10 9 8 7 5 6 6 7 8 9 11 41 95 56 58 72 70 34 25 26 24 23 32 49 53 27 21 17 12 8 7 8 10 11 12 18
28 30 30 29 29 27 28 27 25 16 13 13 5 6 6 6 6 7 8 10 82 90 74 57 68 64 28 29 30 28 29 31 43 43 15 17 12 9 10 9 11 14 15 16
35 33 34 37 25 25 25 27 27 20 18 15 10 10 9 6 6 6 7 8 26 100 87 54 75 68 38 38 31 30 30 40 41 53 50 14 17 11 14 12 12 14 16 25
58 52 43 45 39 30 27 24 26 24 25 18 19 15 12 10 7 6 6 6 12 36 100 100 100 62 40 55 39 39 37 29 38 40 66 67 50 16 17 16 15 28 18 14
58 58 55 54 44 40 48 43 26 24 25 22 23 19 18 16 12 12 7 7 7 9 38 62 59 72 32 58 78 54 84 31 32 36 39 62 60 83 66 46 43 56 55 72
66 69 67 50 43 35 35 42 31 27 26 26 22 24 21 18 16 15 13 9 6 7 9 17 62 66 47 31 49 62 82 81 25 30 30 31 42 45 71 77 76 100 84 58
62 59 65 55 42 31 33 33 41 37 35 29 28 28 22 22 21 18 33 38 14 6 8 31 52 54 57 33 90 99 100 85 75 25 27 24 29 31 33 42 66 67 89 100
71 65 60 76 48 39 43 46 43 25 33 34 30 20 21 20 23 24 22 34 53 26 12 32 95 49 65 36 93 100 100 99 100 88 37 20 20 30 37 61 57 94 90 77
51 58 71 71 51 46 46 44 27 29 32 39 28 26 24 20 30 28 25 25 27 36 70 9 26 62 67 52 57 66 75 99 100 100 100 34 17 21 25 43 59 76 90 100
50 63 61 61 56 49 41 37 34 39 48 43 31 27 32 30 31 32 50 28 21 20 58 38 8 59 62 62 45 36 100 100 100 100 95 100 62 26 43 37 35 46 67 98
61 56 56 68 67 63 54 53 41 58 63 36 31 31 35 35 38 39 46 52 58 25 20 36 20 17 60 60 66 73 97 100 100 100 100 98 99 98 72 88 56 52 76 100
71 56 53 55 63 56 52 82 78 51 35 32 35 38 33 26 26 26 30 37 100 72 15 27 31 16 72 71 62 52 86 100 100 100 100 100 100 100 100 100 100 100 100 100
85 64 56 51 56 60 80 62 51 36 40 39 30 23 23 20 22 20 21 26 92 99 70 32 78 82 71 60 65 58 50 99 100 100 100 100 100 100 99 100 100 92 100 100
94 87 68 55 64 53 62 58 42 37 38 24 59 52 44 23 24 27 19 30 56 95 100 93 59 100 100 88 64 88 62 48 99 100 100 100 98 100 100 99 98 100 100 100
100 100 86 67 66 56 57 48 33 39 52 95 100 100 100 98 87 29 36 42 72 92 99 99 100 100 100 93 46 59 95 53 77 100 100 100 100 100 100 100 83 80 99 91
96 94 72 73 67 65 56 50 34 40 92 100 70 94 85 100 98 100 100 100 100 84 96 100 100 100 100 75 94 73 91 73 97 100 100 100 100 100 100 97 69 51 52 59
100 71 81 91 75 61 77 49 36 41 100 100 100 100 100 100 72 66 68 74 67 87 82 80 100 100 100 96 97 92 100 100 100 100 100 100 100 100 100 100 100 80 70 47
99 63 98 100 75 92 90 45 35 66 68 100 100 100 100 100 96 83 41 52 56 48 48 85 100 100 100 100 100 100 99 100 100 100 100 100 100 96 81 99 100 82 83 91

GFSCGP_250_rhum_132.txt.gz
RH
8 7 6 8 10 10 9 10 10 9 10 37 100 100 100 100 80 53 65 83 75 77 51 50 48 43 59 100 100 68 76 79 60 66 82 78 76 77 61 67 82 100 40 27
8 7 7 7 7 9 9 9 10 10 9 10 67 100 100 100 98 90 81 61 80 100 80 74 40 42 46 84 100 100 81 80 62 44 66 72 58 72 65 77 95 48 26 17
8 8 7 7 7 7 8 8 9 9 9 10 11 89 100 100 100 98 61 72 100 100 64 75 80 49 31 70 100 100 88 65 75 26 41 44 42 82 67 63 47 29 20 22
8 9 8 7 7 8 7 7 8 8 9 9 11 11 58 89 100 100 97 76 86 92 77 80 88 52 35 38 99 100 98 63 35 44 50 28 33 34 34 41 35 34 41 61
8 8 8 8 7 8 6 7 7 7 8 8 8 10 12 32 100 100 100 100 78 80 95 87 90 58 62 34 71 100 100 80 27 45 33 40 44 28 29 32 42 26 51 93
8 8 8 8 7 7 7 7 7 6 6 7 8 8 9 10 31 99 100 82 98 60 79 97 93 38 54 44 43 97 79 100 51 26 33 29 22 18 21 24 28 27 62 97
8 8 8 8 9 8 8 7 6 6 6 5 6 8 8 9 10 19 87 95 93 63 64 87 99 60 45 40 34 54 84 81 73 47 22 21 15 13 14 18 26 37 63 80
10 9 8 9 9 9 9 8 7 6 6 6 5 6 7 8 9 9 16 68 91 74 47 73 94 86 59 39 27 38 56 75 56 35 27 23 15 16 12 17 29 52 75 91
12 11 10 10 10 10 10 9 9 8 7 6 6 5 6 7 8 8 9 12 69 91 70 71 74 89 100 35 27 26 33 66 59 22 19 10 14 13 9 12 28 36 39 33
16 14 13 12 12 11 11 10 9 8 7 7 7 6 5 5 6 7 8 8 13 65 88 61 73 67 97 52 28 27 27 44 58 34 15 10 6 7 7 7 11 10 14 18
36 30 27 21 18 18 16 17 13 13 10 8 8 7 6 5 5 5 7 8 8 10 39 77 60 62 72 69 32 32 28 30 48 47 20 12 7 8 8 9 10 15 16 20
36 35 33 29 27 28 30 30 28 24 21 20 17 15 13 10 8 6 5 6 7 10 11 27 57 87 54 74 33 32 32 25 31 53 24 16 11 10 9 10 11 12 17 16
38 33 44 51 43 40 33 30 28 26 25 20 21 17 15 17 14 13 10 6 7 9 45 25 50 96 82 66 69 30 33 30 21 37 50 27 14 11 12 12 12 15 16 17
37 34 40 48 54 48 50 44 32 27 28 28 27 22 21 17 17 18 18 14 6 6 13 14 23 73 92 66 71 49 50 65 42 30 34 56 45 29 15 15 16 18 34 47
34 35 40 40 46 46 49 46 43 34 31 29 28 30 27 24 21 20 20 17 10 7 6 7 13 37 95 75 72 41 80 100 100 95 85 56 60 50 53 44 49 45 58 65
32 39 52 43 38 40 48 48 39 34 30 29 29 31 34 29 25 21 20 22 15 11 6 6 9 25 100 82 65 47 66 89 100 97 95 54 66 62 48 41 58 65 74 100
47 52 49 47 39 45 46 44 45 44 42 44 35 27 25 24 21 19 19 20 20 16 16 7 7 7 38 89 78 46 47 57 100 100 100 100 88 48 64 58 60 47 45 84
63 65 60 49 42 43 35 59 52 42 37 34 29 28 29 25 28 29 23 20 19 18 19 44 12 6 8 32 55 53 40 44 97 100 100 100 100 100 97 65 81 66 90 61
88 63 60 56 57 51 53 53 55 54 57 54 47 38 38 37 27 29 26 22 18 20 15 31 97 9 6 9 26 62 50 52 97 100 99 100 100 100 100 100 40 27 38 48
88 96 67 61 56 48 42 68 50 44 43 38 46 49 39 34 29 25 24 24 22 20 21 16 63 99 30 8 10 51 56 47 64 100 100 100 100 100 100 100 98 73 36 29
100 100 78 75 60 54 45 33 50 66 60 60 52 37 29 27 28 29 30 33 28 24 24 19 16 66 35 8 8 54 62 68 76 98 100 100 100 100 100 100 100 97 100 99
100 99 92 96 77 63 45 46 64 61 66 48 34 30 48 46 35 31 27 28 32 27 24 37 20 17 64 17 15 70 62 69 76 83 100 100 100 100 100 100 100 100 100 100
100 100 100 100 78 75 57 62 61 51 58 49 32 78 100 99 86 73 32 28 22 26 26 42 42 16 18 53 25 20 62 68 77 78 97 100 100 100 100 100 99 100 100 100
100 100 100 100 96 70 48 75 61 67 69 36 48 100 100 98 91 100 78 24 20 22 23 32 61 56 22 43 80 83 41 56 80 81 100 100 100 100 100 96 95 100 100 100
100 100 100 100 80 69 64 57 58 82 59 36 54 100 98 87 78 99 100 96 33 21 22 24 65 100 87 64 71 100 97 41 76 89 100 100 100 100 100 100 100 100 99 98
88 87 100 100 82 65 75 61 60 94 57 35 35 75 100 78 44 72 100 100 95 64 32 58 78 100 96 100 100 100 100 93 80 100 85 93 100 88 100 100 100 100 100 98

GFSCGP_250_rhum_135.txt.gz
RH
10 8 6 6 9 11 11 11 11 11 37 100 87 100 98 100 75 90 62 48 78 81 82 77 50 65 82 99 100 100 70 57 44 69 91 85 58 63 100 100 93 76 68 56
9 9 7 6 7 9 11 11 11 10 12 22 80 83 100 100 100 87 100 62 65 82 88 74 77 51 78 99 100 100 78 55 37 58 79 98 88 82 100 100 92 77 66 38
9 9 9 7 7 7 9 10 10 10 11 23 16 21 99 100 100 100 96 100 78 81 94 92 82 49 76 84 100 100 100 36 24 47 61 72 79 81 94 92 100 51 38 20
10 10 9 8 7 7 7 8 10 10 10 21 19 20 11 77 100 100 100 100 100 93 98 100 88 95 47 75 96 100 100 48 34 34 44 64 84 100 97 90 73 32 22 24
9 10 9 8 8 7 7 7 8 8 11 9 13 21 23 10 74 100 100 92 94 88 96 100 96 99 42 55 63 100 100 89 33 36 27 57 69 78 88 64 37 26 22 25
8 8 9 8 8 8 6 8 8 8 8 10 8 9 12 13 20 82 97 100 100 100 100 96 88 90 50 37 48 71 100 97 45 49 33 30 38 46 41 31 30 25 28 30
12 9 8 8 7 8 8 8 8 8 8 7 7 8 8 9 9 20 48 89 100 100 99 99 77 93 71 36 34 42 96 100 51 27 26 21 23 26 21 25 34 30 34 77
13 13 10 9 9 9 9 8 8 7 7 6 7 7 6 7 8 8 9 40 94 100 100 64 86 81 82 41 29 38 58 100 99 37 22 14 16 16 17 24 42 54 67 92
12 11 11 10 9 9 8 9 8 7 7 7 7 7 7 6 7 8 8 9 25 77 98 77 65 93 88 66 34 25 34 63 88 34 21 14 13 14 14 24 44 60 72 79
14 14 11 11 11 9 8 9 9 8 7 7 7 7 7 7 7 6 7 8 9 11 56 91 74 93 96 90 44 26 26 32 67 39 16 15 14 12 13 20 34 43 46 46
21 16 14 12 12 11 10 10 9 9 9 10 8 8 8 8 8 8 6 6 7 8 11 54 83 69 100 100 82 47 26 20 45 36 12 11 12 11 16 20 33 44 49 48
40 33 24 14 13 12 11 10 11 11 11 10 9 8 9 9 9 9 7 6 6 7 9 22 61 58 71 84 99 72 28 29 29 59 19 8 7 7 9 22 36 40 29 13
49 48 38 40 41 35 28 24 20 20 21 22 17 18 21 19 14 10 9 8 6 5 7 9 19 69 56 66 75 69 38 31 26 35 33 14 7 7 6 7 10 11 12 17
46 49 48 39 34 36 41 41 34 32 29 30 27 22 19 19 21 20 17 14 9 6 6 7 8 15 42 46 67 58 71 32 44 50 45 32 12 9 9 10 10 14 16 18
32 36 44 44 35 38 49 44 41 41 41 36 32 29 26 23 17 19 18 16 15 11 8 5 7 11 11 13 55 74 81 45 35 42 36 39 42 15 11 11 11 12 14 18
23 29 34 39 36 43 48 51 42 43 37 38 38 28 24 27 28 24 25 18 18 17 16 12 7 10 34 12 12 67 73 73 39 75 100 82 48 44 36 13 13 12 14 15
26 27 30 30 33 38 50 60 50 43 43 44 40 33 28 25 23 24 30 28 22 19 16 14 12 9 12 44 18 27 54 75 60 67 96 100 100 86 50 58 46 23 23 40
46 27 31 32 32 40 52 51 40 35 39 39 35 34 34 36 40 34 30 26 24 23 20 15 13 13 8 13 25 19 43 59 62 82 100 86 100 100 100 69 54 43 50 72
80 62 64 43 48 52 57 41 37 40 47 40 40 46 42 36 34 29 25 24 23 22 20 18 15 13 13 8 9 13 18 51 62 67 100 75 100 100 100 100 100 100 98 68
100 84 64 79 61 61 53 46 52 39 57 52 53 45 46 46 36 31 31 31 30 26 22 20 18 14 14 12 7 9 21 60 61 48 75 93 99 99 88 100 100 60 84 100
99 64 49 81 79 74 62 56 52 50 40 34 39 53 54 45 39 32 28 26 26 26 26 21 17 16 15 16 12 6 12 78 63 55 44 79 100 100 100 100 100 100 97 100
100 72 70 82 82 87 70 67 60 52 42 39 41 41 39 40 30 28 31 38 42 23 20 19 17 17 15 17 19 11 7 20 68 92 68 37 54 97 100 100 100 97 98 100
100 78 87 100 85 86 87 88 76 62 54 50 49 47 52 35 31 67 74 54 50 47 33 20 18 21 18 18 18 30 10 7 12 48 67 60 41 69 100 100 100 100 94 100
100 100 100 85 75 82 100 89 88 92 68 60 60 52 56 33 44 100 70 81 76 48 37 26 20 26 22 18 18 35 82 31 6 8 29 44 58 71 69 98 100 100 100 100
100 100 100 92 77 100 100 100 100 83 66 65 60 63 59 31 43 100 98 70 80 69 38 34 22 24 27 24 21 21 73 83 21 11 13 31 83 93 96 93 100 100 100 100
100 100 100 100 99 100 100 100 100 78 70 60 69 80 45 33 33 92 100 64 91 77 82 32 28 28 31 28 33 23 20 41 56 41 54 71 100 100 95 95 100 100 100 99